<?xml version="1.0" encoding="UTF-8" standalone="no" ?>
<gpx xmlns="http://www.topografix.com/GPX/1/1" xmlns:xsi="http://www.w3.org/2001/XMLSchema-instance" xsi:schemaLocation="http://www.topografix.com/GPX/1/1 http://www.topografix.com/GPX/1/1/gpx.xsd" version="1.1" creator="VisuGPX - https://www.visugpx.com">
  <metadata>
    <name>Ski de rando Tour du Puy Gris</name>
  </metadata>
  <trk>
    <name><![CDATA[Ski de rando Tour du Puy Gris]]></name>
    <trkseg>
      <trkpt lat="45.28177" lon="6.21228">
        <ele>1199</ele>
        <time>2012-02-05T07:38:15.000Z</time>
      </trkpt>
      <trkpt lat="45.28177" lon="6.21226">
        <ele>1199</ele>
        <time>2012-02-05T07:38:32.000Z</time>
      </trkpt>
      <trkpt lat="45.28178" lon="6.21227">
        <ele>1198.5999755859</ele>
        <time>2012-02-05T07:38:40.000Z</time>
      </trkpt>
      <trkpt lat="45.28179" lon="6.21226">
        <ele>1198.1999511719</ele>
        <time>2012-02-05T07:39:23.000Z</time>
      </trkpt>
      <trkpt lat="45.28176" lon="6.21234">
        <ele>1198.1999511719</ele>
        <time>2012-02-05T07:39:29.000Z</time>
      </trkpt>
      <trkpt lat="45.28187" lon="6.21223">
        <ele>1197.8000488281</ele>
        <time>2012-02-05T07:40:00.000Z</time>
      </trkpt>
      <trkpt lat="45.28185" lon="6.21221">
        <ele>1198</ele>
        <time>2012-02-05T07:40:06.000Z</time>
      </trkpt>
      <trkpt lat="45.28185" lon="6.21221">
        <ele>1198</ele>
        <time>2012-02-05T07:40:12.000Z</time>
      </trkpt>
      <trkpt lat="45.28172" lon="6.2122">
        <ele>1198.5999755859</ele>
        <time>2012-02-05T07:40:18.000Z</time>
      </trkpt>
      <trkpt lat="45.28165" lon="6.21217">
        <ele>1199.1999511719</ele>
        <time>2012-02-05T07:40:25.000Z</time>
      </trkpt>
      <trkpt lat="45.2816" lon="6.21217">
        <ele>1199.5999755859</ele>
        <time>2012-02-05T07:40:43.000Z</time>
      </trkpt>
      <trkpt lat="45.28159" lon="6.21211">
        <ele>1199.8000488281</ele>
        <time>2012-02-05T07:40:48.000Z</time>
      </trkpt>
      <trkpt lat="45.28159" lon="6.21203">
        <ele>1198.8000488281</ele>
        <time>2012-02-05T07:40:55.000Z</time>
      </trkpt>
      <trkpt lat="45.2816" lon="6.21186">
        <ele>1197.4000244141</ele>
        <time>2012-02-05T07:41:01.000Z</time>
      </trkpt>
      <trkpt lat="45.28161" lon="6.21178">
        <ele>1196.8000488281</ele>
        <time>2012-02-05T07:41:05.000Z</time>
      </trkpt>
      <trkpt lat="45.28163" lon="6.21161">
        <ele>1196.5999755859</ele>
        <time>2012-02-05T07:41:13.000Z</time>
      </trkpt>
      <trkpt lat="45.28166" lon="6.2115">
        <ele>1196.5999755859</ele>
        <time>2012-02-05T07:41:19.000Z</time>
      </trkpt>
      <trkpt lat="45.28169" lon="6.21138">
        <ele>1197</ele>
        <time>2012-02-05T07:41:25.000Z</time>
      </trkpt>
      <trkpt lat="45.28176" lon="6.21129">
        <ele>1197.4000244141</ele>
        <time>2012-02-05T07:41:33.000Z</time>
      </trkpt>
      <trkpt lat="45.28186" lon="6.21125">
        <ele>1198</ele>
        <time>2012-02-05T07:41:41.000Z</time>
      </trkpt>
      <trkpt lat="45.28198" lon="6.21125">
        <ele>1199</ele>
        <time>2012-02-05T07:41:50.000Z</time>
      </trkpt>
      <trkpt lat="45.28207" lon="6.21123">
        <ele>1200</ele>
        <time>2012-02-05T07:41:59.000Z</time>
      </trkpt>
      <trkpt lat="45.28216" lon="6.21118">
        <ele>1200.8000488281</ele>
        <time>2012-02-05T07:42:06.000Z</time>
      </trkpt>
      <trkpt lat="45.28221" lon="6.21111">
        <ele>1201.8000488281</ele>
        <time>2012-02-05T07:42:14.000Z</time>
      </trkpt>
      <trkpt lat="45.28222" lon="6.21114">
        <ele>1201.5999755859</ele>
        <time>2012-02-05T07:42:42.000Z</time>
      </trkpt>
      <trkpt lat="45.28228" lon="6.21109">
        <ele>1201.4000244141</ele>
        <time>2012-02-05T07:43:16.000Z</time>
      </trkpt>
      <trkpt lat="45.28231" lon="6.211">
        <ele>1202</ele>
        <time>2012-02-05T07:43:23.000Z</time>
      </trkpt>
      <trkpt lat="45.28235" lon="6.21086">
        <ele>1203.5999755859</ele>
        <time>2012-02-05T07:43:33.000Z</time>
      </trkpt>
      <trkpt lat="45.28237" lon="6.21084">
        <ele>1203.8000488281</ele>
        <time>2012-02-05T07:43:35.000Z</time>
      </trkpt>
      <trkpt lat="45.28244" lon="6.21068">
        <ele>1205</ele>
        <time>2012-02-05T07:43:45.000Z</time>
      </trkpt>
      <trkpt lat="45.28251" lon="6.21054">
        <ele>1206.4000244141</ele>
        <time>2012-02-05T07:43:55.000Z</time>
      </trkpt>
      <trkpt lat="45.28253" lon="6.21045">
        <ele>1207</ele>
        <time>2012-02-05T07:44:01.000Z</time>
      </trkpt>
      <trkpt lat="45.28256" lon="6.21036">
        <ele>1207.5999755859</ele>
        <time>2012-02-05T07:44:06.000Z</time>
      </trkpt>
      <trkpt lat="45.28259" lon="6.21019">
        <ele>1208.5999755859</ele>
        <time>2012-02-05T07:44:16.000Z</time>
      </trkpt>
      <trkpt lat="45.28265" lon="6.21008">
        <ele>1209.5999755859</ele>
        <time>2012-02-05T07:44:24.000Z</time>
      </trkpt>
      <trkpt lat="45.28275" lon="6.20998">
        <ele>1210.5999755859</ele>
        <time>2012-02-05T07:44:31.000Z</time>
      </trkpt>
      <trkpt lat="45.28282" lon="6.20995">
        <ele>1211.1999511719</ele>
        <time>2012-02-05T07:44:38.000Z</time>
      </trkpt>
      <trkpt lat="45.28293" lon="6.20996">
        <ele>1211.5999755859</ele>
        <time>2012-02-05T07:44:45.000Z</time>
      </trkpt>
      <trkpt lat="45.28302" lon="6.20999">
        <ele>1212</ele>
        <time>2012-02-05T07:44:52.000Z</time>
      </trkpt>
      <trkpt lat="45.28311" lon="6.21005">
        <ele>1213.1999511719</ele>
        <time>2012-02-05T07:45:01.000Z</time>
      </trkpt>
      <trkpt lat="45.2832" lon="6.21011">
        <ele>1214.8000488281</ele>
        <time>2012-02-05T07:45:10.000Z</time>
      </trkpt>
      <trkpt lat="45.2833" lon="6.21016">
        <ele>1215.8000488281</ele>
        <time>2012-02-05T07:45:19.000Z</time>
      </trkpt>
      <trkpt lat="45.28338" lon="6.21018">
        <ele>1216</ele>
        <time>2012-02-05T07:45:27.000Z</time>
      </trkpt>
      <trkpt lat="45.28344" lon="6.21021">
        <ele>1216.1999511719</ele>
        <time>2012-02-05T07:45:33.000Z</time>
      </trkpt>
      <trkpt lat="45.28353" lon="6.21022">
        <ele>1216.8000488281</ele>
        <time>2012-02-05T07:45:40.000Z</time>
      </trkpt>
      <trkpt lat="45.28353" lon="6.21022">
        <ele>1217</ele>
        <time>2012-02-05T07:45:48.000Z</time>
      </trkpt>
      <trkpt lat="45.28353" lon="6.21021">
        <ele>1217.1999511719</ele>
        <time>2012-02-05T07:45:53.000Z</time>
      </trkpt>
      <trkpt lat="45.2835" lon="6.21018">
        <ele>1218</ele>
        <time>2012-02-05T07:45:58.000Z</time>
      </trkpt>
      <trkpt lat="45.28347" lon="6.21014">
        <ele>1218.1999511719</ele>
        <time>2012-02-05T07:46:04.000Z</time>
      </trkpt>
      <trkpt lat="45.28344" lon="6.21018">
        <ele>1218.1999511719</ele>
        <time>2012-02-05T07:46:13.000Z</time>
      </trkpt>
      <trkpt lat="45.28342" lon="6.21014">
        <ele>1218.5999755859</ele>
        <time>2012-02-05T07:46:17.000Z</time>
      </trkpt>
      <trkpt lat="45.28339" lon="6.21003">
        <ele>1219.4000244141</ele>
        <time>2012-02-05T07:46:25.000Z</time>
      </trkpt>
      <trkpt lat="45.28337" lon="6.20995">
        <ele>1220.4000244141</ele>
        <time>2012-02-05T07:46:32.000Z</time>
      </trkpt>
      <trkpt lat="45.28334" lon="6.20992">
        <ele>1221</ele>
        <time>2012-02-05T07:46:37.000Z</time>
      </trkpt>
      <trkpt lat="45.2833" lon="6.20983">
        <ele>1222</ele>
        <time>2012-02-05T07:46:46.000Z</time>
      </trkpt>
      <trkpt lat="45.28326" lon="6.20971">
        <ele>1223.4000244141</ele>
        <time>2012-02-05T07:46:56.000Z</time>
      </trkpt>
      <trkpt lat="45.28326" lon="6.20968">
        <ele>1224</ele>
        <time>2012-02-05T07:46:59.000Z</time>
      </trkpt>
      <trkpt lat="45.28327" lon="6.20956">
        <ele>1225.4000244141</ele>
        <time>2012-02-05T07:47:08.000Z</time>
      </trkpt>
      <trkpt lat="45.28323" lon="6.20944">
        <ele>1226.5999755859</ele>
        <time>2012-02-05T07:47:17.000Z</time>
      </trkpt>
      <trkpt lat="45.28324" lon="6.20939">
        <ele>1227.5999755859</ele>
        <time>2012-02-05T07:47:23.000Z</time>
      </trkpt>
      <trkpt lat="45.28327" lon="6.2093">
        <ele>1229</ele>
        <time>2012-02-05T07:47:31.000Z</time>
      </trkpt>
      <trkpt lat="45.28328" lon="6.20924">
        <ele>1230.4000244141</ele>
        <time>2012-02-05T07:47:37.000Z</time>
      </trkpt>
      <trkpt lat="45.28327" lon="6.20917">
        <ele>1231.8000488281</ele>
        <time>2012-02-05T07:47:44.000Z</time>
      </trkpt>
      <trkpt lat="45.28328" lon="6.2091">
        <ele>1233</ele>
        <time>2012-02-05T07:47:50.000Z</time>
      </trkpt>
      <trkpt lat="45.2833" lon="6.209">
        <ele>1234.1999511719</ele>
        <time>2012-02-05T07:47:58.000Z</time>
      </trkpt>
      <trkpt lat="45.28332" lon="6.20894">
        <ele>1235.1999511719</ele>
        <time>2012-02-05T07:48:03.000Z</time>
      </trkpt>
      <trkpt lat="45.28334" lon="6.20884">
        <ele>1236.8000488281</ele>
        <time>2012-02-05T07:48:12.000Z</time>
      </trkpt>
      <trkpt lat="45.28334" lon="6.20878">
        <ele>1238.1999511719</ele>
        <time>2012-02-05T07:48:19.000Z</time>
      </trkpt>
      <trkpt lat="45.28332" lon="6.20872">
        <ele>1239.1999511719</ele>
        <time>2012-02-05T07:48:25.000Z</time>
      </trkpt>
      <trkpt lat="45.2833" lon="6.20865">
        <ele>1240.5999755859</ele>
        <time>2012-02-05T07:48:31.000Z</time>
      </trkpt>
      <trkpt lat="45.28329" lon="6.20856">
        <ele>1242</ele>
        <time>2012-02-05T07:48:38.000Z</time>
      </trkpt>
      <trkpt lat="45.28331" lon="6.20844">
        <ele>1244</ele>
        <time>2012-02-05T07:48:48.000Z</time>
      </trkpt>
      <trkpt lat="45.28331" lon="6.20838">
        <ele>1245.4000244141</ele>
        <time>2012-02-05T07:48:55.000Z</time>
      </trkpt>
      <trkpt lat="45.2833" lon="6.20832">
        <ele>1246</ele>
        <time>2012-02-05T07:49:06.000Z</time>
      </trkpt>
      <trkpt lat="45.28329" lon="6.20824">
        <ele>1248</ele>
        <time>2012-02-05T07:49:14.000Z</time>
      </trkpt>
      <trkpt lat="45.2833" lon="6.20818">
        <ele>1249.5999755859</ele>
        <time>2012-02-05T07:49:21.000Z</time>
      </trkpt>
      <trkpt lat="45.2833" lon="6.20812">
        <ele>1250.8000488281</ele>
        <time>2012-02-05T07:49:26.000Z</time>
      </trkpt>
      <trkpt lat="45.28328" lon="6.20806">
        <ele>1252</ele>
        <time>2012-02-05T07:49:31.000Z</time>
      </trkpt>
      <trkpt lat="45.28324" lon="6.20796">
        <ele>1254.1999511719</ele>
        <time>2012-02-05T07:49:40.000Z</time>
      </trkpt>
      <trkpt lat="45.28323" lon="6.2079">
        <ele>1256</ele>
        <time>2012-02-05T07:49:47.000Z</time>
      </trkpt>
      <trkpt lat="45.28323" lon="6.20783">
        <ele>1257.5999755859</ele>
        <time>2012-02-05T07:49:54.000Z</time>
      </trkpt>
      <trkpt lat="45.28325" lon="6.20778">
        <ele>1258.8000488281</ele>
        <time>2012-02-05T07:50:00.000Z</time>
      </trkpt>
      <trkpt lat="45.28326" lon="6.20772">
        <ele>1260.1999511719</ele>
        <time>2012-02-05T07:50:07.000Z</time>
      </trkpt>
      <trkpt lat="45.28323" lon="6.20767">
        <ele>1261.4000244141</ele>
        <time>2012-02-05T07:50:12.000Z</time>
      </trkpt>
      <trkpt lat="45.28322" lon="6.20763">
        <ele>1262.8000488281</ele>
        <time>2012-02-05T07:50:18.000Z</time>
      </trkpt>
      <trkpt lat="45.28322" lon="6.20758">
        <ele>1264</ele>
        <time>2012-02-05T07:50:24.000Z</time>
      </trkpt>
      <trkpt lat="45.28326" lon="6.20748">
        <ele>1267</ele>
        <time>2012-02-05T07:50:36.000Z</time>
      </trkpt>
      <trkpt lat="45.28321" lon="6.2074">
        <ele>1269.8000488281</ele>
        <time>2012-02-05T07:50:47.000Z</time>
      </trkpt>
      <trkpt lat="45.28319" lon="6.20736">
        <ele>1271</ele>
        <time>2012-02-05T07:50:52.000Z</time>
      </trkpt>
      <trkpt lat="45.28319" lon="6.20726">
        <ele>1272.5999755859</ele>
        <time>2012-02-05T07:51:00.000Z</time>
      </trkpt>
      <trkpt lat="45.28321" lon="6.20722">
        <ele>1273.5999755859</ele>
        <time>2012-02-05T07:51:05.000Z</time>
      </trkpt>
      <trkpt lat="45.28329" lon="6.20721">
        <ele>1275.4000244141</ele>
        <time>2012-02-05T07:51:13.000Z</time>
      </trkpt>
      <trkpt lat="45.28337" lon="6.20721">
        <ele>1276.8000488281</ele>
        <time>2012-02-05T07:51:21.000Z</time>
      </trkpt>
      <trkpt lat="45.28342" lon="6.20717">
        <ele>1277.8000488281</ele>
        <time>2012-02-05T07:51:27.000Z</time>
      </trkpt>
      <trkpt lat="45.28347" lon="6.20713">
        <ele>1279.1999511719</ele>
        <time>2012-02-05T07:51:33.000Z</time>
      </trkpt>
      <trkpt lat="45.28351" lon="6.20711">
        <ele>1280.4000244141</ele>
        <time>2012-02-05T07:51:38.000Z</time>
      </trkpt>
      <trkpt lat="45.28354" lon="6.20707">
        <ele>1281.8000488281</ele>
        <time>2012-02-05T07:51:45.000Z</time>
      </trkpt>
      <trkpt lat="45.2835" lon="6.20701">
        <ele>1283</ele>
        <time>2012-02-05T07:52:24.000Z</time>
      </trkpt>
      <trkpt lat="45.28348" lon="6.20698">
        <ele>1283.8000488281</ele>
        <time>2012-02-05T07:52:29.000Z</time>
      </trkpt>
      <trkpt lat="45.28347" lon="6.20697">
        <ele>1284.1999511719</ele>
        <time>2012-02-05T07:52:30.000Z</time>
      </trkpt>
      <trkpt lat="45.28341" lon="6.20691">
        <ele>1285.8000488281</ele>
        <time>2012-02-05T07:52:38.000Z</time>
      </trkpt>
      <trkpt lat="45.2834" lon="6.20685">
        <ele>1286.1999511719</ele>
        <time>2012-02-05T07:52:46.000Z</time>
      </trkpt>
      <trkpt lat="45.28337" lon="6.20675">
        <ele>1287</ele>
        <time>2012-02-05T07:52:54.000Z</time>
      </trkpt>
      <trkpt lat="45.28337" lon="6.20667">
        <ele>1287.8000488281</ele>
        <time>2012-02-05T07:52:59.000Z</time>
      </trkpt>
      <trkpt lat="45.28335" lon="6.20655">
        <ele>1289.5999755859</ele>
        <time>2012-02-05T07:53:08.000Z</time>
      </trkpt>
      <trkpt lat="45.28333" lon="6.20646">
        <ele>1290.8000488281</ele>
        <time>2012-02-05T07:53:15.000Z</time>
      </trkpt>
      <trkpt lat="45.28333" lon="6.20638">
        <ele>1292.4000244141</ele>
        <time>2012-02-05T07:53:22.000Z</time>
      </trkpt>
      <trkpt lat="45.28338" lon="6.20636">
        <ele>1293.5999755859</ele>
        <time>2012-02-05T07:53:29.000Z</time>
      </trkpt>
      <trkpt lat="45.2834" lon="6.20636">
        <ele>1294</ele>
        <time>2012-02-05T07:53:31.000Z</time>
      </trkpt>
      <trkpt lat="45.28347" lon="6.20643">
        <ele>1295.8000488281</ele>
        <time>2012-02-05T07:53:40.000Z</time>
      </trkpt>
      <trkpt lat="45.28355" lon="6.20646">
        <ele>1297.5999755859</ele>
        <time>2012-02-05T07:53:49.000Z</time>
      </trkpt>
      <trkpt lat="45.28355" lon="6.20643">
        <ele>1299.1999511719</ele>
        <time>2012-02-05T07:53:55.000Z</time>
      </trkpt>
      <trkpt lat="45.28356" lon="6.20637">
        <ele>1300.1999511719</ele>
        <time>2012-02-05T07:54:02.000Z</time>
      </trkpt>
      <trkpt lat="45.28357" lon="6.20631">
        <ele>1301.8000488281</ele>
        <time>2012-02-05T07:54:09.000Z</time>
      </trkpt>
      <trkpt lat="45.28356" lon="6.20624">
        <ele>1303.1999511719</ele>
        <time>2012-02-05T07:54:16.000Z</time>
      </trkpt>
      <trkpt lat="45.28359" lon="6.20617">
        <ele>1304</ele>
        <time>2012-02-05T07:54:24.000Z</time>
      </trkpt>
      <trkpt lat="45.28359" lon="6.2061">
        <ele>1305</ele>
        <time>2012-02-05T07:54:31.000Z</time>
      </trkpt>
      <trkpt lat="45.28358" lon="6.20606">
        <ele>1306</ele>
        <time>2012-02-05T07:54:36.000Z</time>
      </trkpt>
      <trkpt lat="45.28356" lon="6.20602">
        <ele>1307.1999511719</ele>
        <time>2012-02-05T07:54:42.000Z</time>
      </trkpt>
      <trkpt lat="45.28355" lon="6.20597">
        <ele>1307.8000488281</ele>
        <time>2012-02-05T07:54:47.000Z</time>
      </trkpt>
      <trkpt lat="45.28354" lon="6.20585">
        <ele>1308</ele>
        <time>2012-02-05T07:54:54.000Z</time>
      </trkpt>
      <trkpt lat="45.2835" lon="6.20578">
        <ele>1308.1999511719</ele>
        <time>2012-02-05T07:54:59.000Z</time>
      </trkpt>
      <trkpt lat="45.28345" lon="6.20567">
        <ele>1308.5999755859</ele>
        <time>2012-02-05T07:55:07.000Z</time>
      </trkpt>
      <trkpt lat="45.28341" lon="6.20557">
        <ele>1309.1999511719</ele>
        <time>2012-02-05T07:55:14.000Z</time>
      </trkpt>
      <trkpt lat="45.2834" lon="6.20546">
        <ele>1310.4000244141</ele>
        <time>2012-02-05T07:55:22.000Z</time>
      </trkpt>
      <trkpt lat="45.28339" lon="6.20535">
        <ele>1311.1999511719</ele>
        <time>2012-02-05T07:55:30.000Z</time>
      </trkpt>
      <trkpt lat="45.28338" lon="6.20524">
        <ele>1312.4000244141</ele>
        <time>2012-02-05T07:55:38.000Z</time>
      </trkpt>
      <trkpt lat="45.28335" lon="6.20515">
        <ele>1313.4000244141</ele>
        <time>2012-02-05T07:55:44.000Z</time>
      </trkpt>
      <trkpt lat="45.28334" lon="6.20507">
        <ele>1314.5999755859</ele>
        <time>2012-02-05T07:55:50.000Z</time>
      </trkpt>
      <trkpt lat="45.28332" lon="6.205">
        <ele>1316</ele>
        <time>2012-02-05T07:55:58.000Z</time>
      </trkpt>
      <trkpt lat="45.28331" lon="6.20493">
        <ele>1317.4000244141</ele>
        <time>2012-02-05T07:56:05.000Z</time>
      </trkpt>
      <trkpt lat="45.28329" lon="6.20487">
        <ele>1318.8000488281</ele>
        <time>2012-02-05T07:56:11.000Z</time>
      </trkpt>
      <trkpt lat="45.28325" lon="6.20477">
        <ele>1320</ele>
        <time>2012-02-05T07:56:18.000Z</time>
      </trkpt>
      <trkpt lat="45.28324" lon="6.2047">
        <ele>1321.4000244141</ele>
        <time>2012-02-05T07:56:25.000Z</time>
      </trkpt>
      <trkpt lat="45.28324" lon="6.20458">
        <ele>1322.5999755859</ele>
        <time>2012-02-05T07:56:34.000Z</time>
      </trkpt>
      <trkpt lat="45.28322" lon="6.20448">
        <ele>1324</ele>
        <time>2012-02-05T07:56:42.000Z</time>
      </trkpt>
      <trkpt lat="45.28318" lon="6.2044">
        <ele>1324.5999755859</ele>
        <time>2012-02-05T07:56:49.000Z</time>
      </trkpt>
      <trkpt lat="45.28316" lon="6.20434">
        <ele>1325.4000244141</ele>
        <time>2012-02-05T07:56:55.000Z</time>
      </trkpt>
      <trkpt lat="45.28314" lon="6.20429">
        <ele>1326.1999511719</ele>
        <time>2012-02-05T07:57:00.000Z</time>
      </trkpt>
      <trkpt lat="45.28308" lon="6.20417">
        <ele>1327.5999755859</ele>
        <time>2012-02-05T07:57:09.000Z</time>
      </trkpt>
      <trkpt lat="45.28307" lon="6.20409">
        <ele>1329</ele>
        <time>2012-02-05T07:57:16.000Z</time>
      </trkpt>
      <trkpt lat="45.28305" lon="6.20405">
        <ele>1329.5999755859</ele>
        <time>2012-02-05T07:57:19.000Z</time>
      </trkpt>
      <trkpt lat="45.28307" lon="6.20395">
        <ele>1331.4000244141</ele>
        <time>2012-02-05T07:57:28.000Z</time>
      </trkpt>
      <trkpt lat="45.2831" lon="6.20389">
        <ele>1332.8000488281</ele>
        <time>2012-02-05T07:57:35.000Z</time>
      </trkpt>
      <trkpt lat="45.28313" lon="6.20385">
        <ele>1334.1999511719</ele>
        <time>2012-02-05T07:57:41.000Z</time>
      </trkpt>
      <trkpt lat="45.28313" lon="6.20383">
        <ele>1334.4000244141</ele>
        <time>2012-02-05T07:57:43.000Z</time>
      </trkpt>
      <trkpt lat="45.28316" lon="6.20373">
        <ele>1335</ele>
        <time>2012-02-05T07:57:52.000Z</time>
      </trkpt>
      <trkpt lat="45.28314" lon="6.20366">
        <ele>1336</ele>
        <time>2012-02-05T07:57:58.000Z</time>
      </trkpt>
      <trkpt lat="45.28312" lon="6.20359">
        <ele>1336.1999511719</ele>
        <time>2012-02-05T07:58:05.000Z</time>
      </trkpt>
      <trkpt lat="45.28312" lon="6.20355">
        <ele>1337.5999755859</ele>
        <time>2012-02-05T07:58:13.000Z</time>
      </trkpt>
      <trkpt lat="45.28309" lon="6.20353">
        <ele>1338.1999511719</ele>
        <time>2012-02-05T07:58:19.000Z</time>
      </trkpt>
      <trkpt lat="45.28307" lon="6.20359">
        <ele>1338.4000244141</ele>
        <time>2012-02-05T07:58:39.000Z</time>
      </trkpt>
      <trkpt lat="45.28303" lon="6.20359">
        <ele>1338</ele>
        <time>2012-02-05T07:58:42.000Z</time>
      </trkpt>
      <trkpt lat="45.28296" lon="6.20358">
        <ele>1339</ele>
        <time>2012-02-05T07:58:51.000Z</time>
      </trkpt>
      <trkpt lat="45.28294" lon="6.20358">
        <ele>1339.1999511719</ele>
        <time>2012-02-05T07:58:54.000Z</time>
      </trkpt>
      <trkpt lat="45.28288" lon="6.20353">
        <ele>1340.4000244141</ele>
        <time>2012-02-05T07:59:03.000Z</time>
      </trkpt>
      <trkpt lat="45.28285" lon="6.20349">
        <ele>1341</ele>
        <time>2012-02-05T07:59:08.000Z</time>
      </trkpt>
      <trkpt lat="45.28283" lon="6.20342">
        <ele>1342</ele>
        <time>2012-02-05T07:59:14.000Z</time>
      </trkpt>
      <trkpt lat="45.28281" lon="6.20336">
        <ele>1343.1999511719</ele>
        <time>2012-02-05T07:59:21.000Z</time>
      </trkpt>
      <trkpt lat="45.28281" lon="6.20328">
        <ele>1343</ele>
        <time>2012-02-05T07:59:29.000Z</time>
      </trkpt>
      <trkpt lat="45.28278" lon="6.20322">
        <ele>1343.4000244141</ele>
        <time>2012-02-05T07:59:36.000Z</time>
      </trkpt>
      <trkpt lat="45.28276" lon="6.20322">
        <ele>1343.1999511719</ele>
        <time>2012-02-05T07:59:44.000Z</time>
      </trkpt>
      <trkpt lat="45.28273" lon="6.20322">
        <ele>1344</ele>
        <time>2012-02-05T07:59:50.000Z</time>
      </trkpt>
      <trkpt lat="45.28269" lon="6.2032">
        <ele>1344.4000244141</ele>
        <time>2012-02-05T07:59:56.000Z</time>
      </trkpt>
      <trkpt lat="45.28264" lon="6.2032">
        <ele>1345.1999511719</ele>
        <time>2012-02-05T08:00:01.000Z</time>
      </trkpt>
      <trkpt lat="45.2826" lon="6.20315">
        <ele>1346</ele>
        <time>2012-02-05T08:00:11.000Z</time>
      </trkpt>
      <trkpt lat="45.28259" lon="6.20311">
        <ele>1346.1999511719</ele>
        <time>2012-02-05T08:00:20.000Z</time>
      </trkpt>
      <trkpt lat="45.28252" lon="6.20304">
        <ele>1348</ele>
        <time>2012-02-05T08:00:30.000Z</time>
      </trkpt>
      <trkpt lat="45.28249" lon="6.20294">
        <ele>1349.8000488281</ele>
        <time>2012-02-05T08:00:39.000Z</time>
      </trkpt>
      <trkpt lat="45.28247" lon="6.20286">
        <ele>1351.1999511719</ele>
        <time>2012-02-05T08:00:46.000Z</time>
      </trkpt>
      <trkpt lat="45.28243" lon="6.20273">
        <ele>1353.1999511719</ele>
        <time>2012-02-05T08:00:54.000Z</time>
      </trkpt>
      <trkpt lat="45.28239" lon="6.20265">
        <ele>1355.4000244141</ele>
        <time>2012-02-05T08:01:03.000Z</time>
      </trkpt>
      <trkpt lat="45.28239" lon="6.20263">
        <ele>1355.8000488281</ele>
        <time>2012-02-05T08:01:05.000Z</time>
      </trkpt>
      <trkpt lat="45.28237" lon="6.20253">
        <ele>1357.5999755859</ele>
        <time>2012-02-05T08:01:14.000Z</time>
      </trkpt>
      <trkpt lat="45.28235" lon="6.20244">
        <ele>1358.4000244141</ele>
        <time>2012-02-05T08:01:21.000Z</time>
      </trkpt>
      <trkpt lat="45.28233" lon="6.20233">
        <ele>1359.4000244141</ele>
        <time>2012-02-05T08:01:30.000Z</time>
      </trkpt>
      <trkpt lat="45.28231" lon="6.20224">
        <ele>1361</ele>
        <time>2012-02-05T08:01:38.000Z</time>
      </trkpt>
      <trkpt lat="45.28229" lon="6.20218">
        <ele>1362</ele>
        <time>2012-02-05T08:01:45.000Z</time>
      </trkpt>
      <trkpt lat="45.28226" lon="6.20212">
        <ele>1362.1999511719</ele>
        <time>2012-02-05T08:01:52.000Z</time>
      </trkpt>
      <trkpt lat="45.2822" lon="6.20199">
        <ele>1363</ele>
        <time>2012-02-05T08:02:01.000Z</time>
      </trkpt>
      <trkpt lat="45.28213" lon="6.20186">
        <ele>1364.8000488281</ele>
        <time>2012-02-05T08:02:10.000Z</time>
      </trkpt>
      <trkpt lat="45.28209" lon="6.20176">
        <ele>1366</ele>
        <time>2012-02-05T08:02:17.000Z</time>
      </trkpt>
      <trkpt lat="45.28205" lon="6.20168">
        <ele>1367.5999755859</ele>
        <time>2012-02-05T08:02:25.000Z</time>
      </trkpt>
      <trkpt lat="45.28203" lon="6.2016">
        <ele>1369.1999511719</ele>
        <time>2012-02-05T08:02:33.000Z</time>
      </trkpt>
      <trkpt lat="45.28201" lon="6.20158">
        <ele>1370.1999511719</ele>
        <time>2012-02-05T08:02:49.000Z</time>
      </trkpt>
      <trkpt lat="45.28201" lon="6.20153">
        <ele>1371.1999511719</ele>
        <time>2012-02-05T08:02:56.000Z</time>
      </trkpt>
      <trkpt lat="45.28198" lon="6.20149">
        <ele>1372.4000244141</ele>
        <time>2012-02-05T08:03:04.000Z</time>
      </trkpt>
      <trkpt lat="45.28195" lon="6.20145">
        <ele>1373.8000488281</ele>
        <time>2012-02-05T08:03:11.000Z</time>
      </trkpt>
      <trkpt lat="45.28191" lon="6.2014">
        <ele>1375</ele>
        <time>2012-02-05T08:03:20.000Z</time>
      </trkpt>
      <trkpt lat="45.28188" lon="6.20136">
        <ele>1375.8000488281</ele>
        <time>2012-02-05T08:03:27.000Z</time>
      </trkpt>
      <trkpt lat="45.28184" lon="6.20133">
        <ele>1377</ele>
        <time>2012-02-05T08:03:33.000Z</time>
      </trkpt>
      <trkpt lat="45.28179" lon="6.2013">
        <ele>1378.4000244141</ele>
        <time>2012-02-05T08:03:42.000Z</time>
      </trkpt>
      <trkpt lat="45.28172" lon="6.20124">
        <ele>1379.8000488281</ele>
        <time>2012-02-05T08:03:52.000Z</time>
      </trkpt>
      <trkpt lat="45.28168" lon="6.20117">
        <ele>1381</ele>
        <time>2012-02-05T08:04:00.000Z</time>
      </trkpt>
      <trkpt lat="45.28165" lon="6.20111">
        <ele>1382.1999511719</ele>
        <time>2012-02-05T08:04:07.000Z</time>
      </trkpt>
      <trkpt lat="45.28161" lon="6.20102">
        <ele>1383.8000488281</ele>
        <time>2012-02-05T08:04:16.000Z</time>
      </trkpt>
      <trkpt lat="45.28159" lon="6.20097">
        <ele>1385</ele>
        <time>2012-02-05T08:04:23.000Z</time>
      </trkpt>
      <trkpt lat="45.28155" lon="6.20093">
        <ele>1386.1999511719</ele>
        <time>2012-02-05T08:04:29.000Z</time>
      </trkpt>
      <trkpt lat="45.28151" lon="6.20086">
        <ele>1387.1999511719</ele>
        <time>2012-02-05T08:04:36.000Z</time>
      </trkpt>
      <trkpt lat="45.28148" lon="6.2008">
        <ele>1388.8000488281</ele>
        <time>2012-02-05T08:04:44.000Z</time>
      </trkpt>
      <trkpt lat="45.28142" lon="6.20072">
        <ele>1390.4000244141</ele>
        <time>2012-02-05T08:04:54.000Z</time>
      </trkpt>
      <trkpt lat="45.28138" lon="6.20063">
        <ele>1391.5999755859</ele>
        <time>2012-02-05T08:05:03.000Z</time>
      </trkpt>
      <trkpt lat="45.28137" lon="6.20055">
        <ele>1393.1999511719</ele>
        <time>2012-02-05T08:05:11.000Z</time>
      </trkpt>
      <trkpt lat="45.28133" lon="6.20046">
        <ele>1393.8000488281</ele>
        <time>2012-02-05T08:05:19.000Z</time>
      </trkpt>
      <trkpt lat="45.28131" lon="6.20039">
        <ele>1395</ele>
        <time>2012-02-05T08:05:26.000Z</time>
      </trkpt>
      <trkpt lat="45.2813" lon="6.20034">
        <ele>1395.8000488281</ele>
        <time>2012-02-05T08:05:31.000Z</time>
      </trkpt>
      <trkpt lat="45.28128" lon="6.20027">
        <ele>1396.8000488281</ele>
        <time>2012-02-05T08:05:39.000Z</time>
      </trkpt>
      <trkpt lat="45.28117" lon="6.20013">
        <ele>1396.5999755859</ele>
        <time>2012-02-05T08:07:42.000Z</time>
      </trkpt>
      <trkpt lat="45.28117" lon="6.2001">
        <ele>1397.1999511719</ele>
        <time>2012-02-05T08:07:45.000Z</time>
      </trkpt>
      <trkpt lat="45.28114" lon="6.20001">
        <ele>1399.1999511719</ele>
        <time>2012-02-05T08:07:54.000Z</time>
      </trkpt>
      <trkpt lat="45.28113" lon="6.19993">
        <ele>1400.1999511719</ele>
        <time>2012-02-05T08:08:02.000Z</time>
      </trkpt>
      <trkpt lat="45.28112" lon="6.19988">
        <ele>1401</ele>
        <time>2012-02-05T08:08:09.000Z</time>
      </trkpt>
      <trkpt lat="45.28111" lon="6.19982">
        <ele>1401.4000244141</ele>
        <time>2012-02-05T08:08:15.000Z</time>
      </trkpt>
      <trkpt lat="45.2811" lon="6.1997">
        <ele>1403</ele>
        <time>2012-02-05T08:08:26.000Z</time>
      </trkpt>
      <trkpt lat="45.28109" lon="6.19962">
        <ele>1404</ele>
        <time>2012-02-05T08:08:33.000Z</time>
      </trkpt>
      <trkpt lat="45.28108" lon="6.19955">
        <ele>1405</ele>
        <time>2012-02-05T08:08:40.000Z</time>
      </trkpt>
      <trkpt lat="45.28106" lon="6.19945">
        <ele>1406.4000244141</ele>
        <time>2012-02-05T08:08:49.000Z</time>
      </trkpt>
      <trkpt lat="45.28106" lon="6.19938">
        <ele>1407.5999755859</ele>
        <time>2012-02-05T08:08:56.000Z</time>
      </trkpt>
      <trkpt lat="45.28106" lon="6.19931">
        <ele>1408.4000244141</ele>
        <time>2012-02-05T08:09:02.000Z</time>
      </trkpt>
      <trkpt lat="45.28105" lon="6.19923">
        <ele>1409</ele>
        <time>2012-02-05T08:09:09.000Z</time>
      </trkpt>
      <trkpt lat="45.28105" lon="6.19915">
        <ele>1409.8000488281</ele>
        <time>2012-02-05T08:09:16.000Z</time>
      </trkpt>
      <trkpt lat="45.28109" lon="6.19909">
        <ele>1410.4000244141</ele>
        <time>2012-02-05T08:09:23.000Z</time>
      </trkpt>
      <trkpt lat="45.28114" lon="6.19902">
        <ele>1412.1999511719</ele>
        <time>2012-02-05T08:09:31.000Z</time>
      </trkpt>
      <trkpt lat="45.28118" lon="6.19896">
        <ele>1413.1999511719</ele>
        <time>2012-02-05T08:09:38.000Z</time>
      </trkpt>
      <trkpt lat="45.28123" lon="6.19889">
        <ele>1414.1999511719</ele>
        <time>2012-02-05T08:09:46.000Z</time>
      </trkpt>
      <trkpt lat="45.28124" lon="6.19884">
        <ele>1414.4000244141</ele>
        <time>2012-02-05T08:09:51.000Z</time>
      </trkpt>
      <trkpt lat="45.2812" lon="6.19878">
        <ele>1414.4000244141</ele>
        <time>2012-02-05T08:09:57.000Z</time>
      </trkpt>
      <trkpt lat="45.28115" lon="6.19876">
        <ele>1414.4000244141</ele>
        <time>2012-02-05T08:10:05.000Z</time>
      </trkpt>
      <trkpt lat="45.28109" lon="6.19879">
        <ele>1414.4000244141</ele>
        <time>2012-02-05T08:10:14.000Z</time>
      </trkpt>
      <trkpt lat="45.28107" lon="6.19878">
        <ele>1414.1999511719</ele>
        <time>2012-02-05T08:10:17.000Z</time>
      </trkpt>
      <trkpt lat="45.28106" lon="6.19865">
        <ele>1414.4000244141</ele>
        <time>2012-02-05T08:10:26.000Z</time>
      </trkpt>
      <trkpt lat="45.28103" lon="6.19854">
        <ele>1415.1999511719</ele>
        <time>2012-02-05T08:10:34.000Z</time>
      </trkpt>
      <trkpt lat="45.28101" lon="6.19851">
        <ele>1415.1999511719</ele>
        <time>2012-02-05T08:10:40.000Z</time>
      </trkpt>
      <trkpt lat="45.28097" lon="6.19839">
        <ele>1415</ele>
        <time>2012-02-05T08:11:00.000Z</time>
      </trkpt>
      <trkpt lat="45.28092" lon="6.19822">
        <ele>1415.1999511719</ele>
        <time>2012-02-05T08:11:10.000Z</time>
      </trkpt>
      <trkpt lat="45.2809" lon="6.19805">
        <ele>1416</ele>
        <time>2012-02-05T08:11:20.000Z</time>
      </trkpt>
      <trkpt lat="45.28091" lon="6.19791">
        <ele>1416.8000488281</ele>
        <time>2012-02-05T08:11:29.000Z</time>
      </trkpt>
      <trkpt lat="45.28091" lon="6.19778">
        <ele>1416.8000488281</ele>
        <time>2012-02-05T08:11:37.000Z</time>
      </trkpt>
      <trkpt lat="45.28089" lon="6.19764">
        <ele>1417</ele>
        <time>2012-02-05T08:11:46.000Z</time>
      </trkpt>
      <trkpt lat="45.28086" lon="6.19749">
        <ele>1417</ele>
        <time>2012-02-05T08:11:56.000Z</time>
      </trkpt>
      <trkpt lat="45.28081" lon="6.19739">
        <ele>1418.1999511719</ele>
        <time>2012-02-05T08:12:04.000Z</time>
      </trkpt>
      <trkpt lat="45.28076" lon="6.19726">
        <ele>1419.4000244141</ele>
        <time>2012-02-05T08:12:14.000Z</time>
      </trkpt>
      <trkpt lat="45.28071" lon="6.19714">
        <ele>1420.8000488281</ele>
        <time>2012-02-05T08:12:23.000Z</time>
      </trkpt>
      <trkpt lat="45.28065" lon="6.19702">
        <ele>1421.8000488281</ele>
        <time>2012-02-05T08:12:33.000Z</time>
      </trkpt>
      <trkpt lat="45.28059" lon="6.19688">
        <ele>1422.1999511719</ele>
        <time>2012-02-05T08:12:45.000Z</time>
      </trkpt>
      <trkpt lat="45.28053" lon="6.19674">
        <ele>1422.4000244141</ele>
        <time>2012-02-05T08:12:56.000Z</time>
      </trkpt>
      <trkpt lat="45.28049" lon="6.19662">
        <ele>1423</ele>
        <time>2012-02-05T08:13:06.000Z</time>
      </trkpt>
      <trkpt lat="45.28046" lon="6.19651">
        <ele>1424.1999511719</ele>
        <time>2012-02-05T08:13:15.000Z</time>
      </trkpt>
      <trkpt lat="45.28043" lon="6.19642">
        <ele>1425.8000488281</ele>
        <time>2012-02-05T08:13:24.000Z</time>
      </trkpt>
      <trkpt lat="45.2804" lon="6.19636">
        <ele>1426.5999755859</ele>
        <time>2012-02-05T08:13:31.000Z</time>
      </trkpt>
      <trkpt lat="45.28037" lon="6.19628">
        <ele>1427.8000488281</ele>
        <time>2012-02-05T08:13:40.000Z</time>
      </trkpt>
      <trkpt lat="45.28036" lon="6.19627">
        <ele>1427.8000488281</ele>
        <time>2012-02-05T08:13:48.000Z</time>
      </trkpt>
      <trkpt lat="45.2803" lon="6.19618">
        <ele>1428.5999755859</ele>
        <time>2012-02-05T08:13:58.000Z</time>
      </trkpt>
      <trkpt lat="45.28026" lon="6.19611">
        <ele>1429.4000244141</ele>
        <time>2012-02-05T08:14:07.000Z</time>
      </trkpt>
      <trkpt lat="45.28029" lon="6.19605">
        <ele>1431.5999755859</ele>
        <time>2012-02-05T08:14:33.000Z</time>
      </trkpt>
      <trkpt lat="45.28029" lon="6.196">
        <ele>1432.4000244141</ele>
        <time>2012-02-05T08:14:41.000Z</time>
      </trkpt>
      <trkpt lat="45.28029" lon="6.19593">
        <ele>1434</ele>
        <time>2012-02-05T08:14:49.000Z</time>
      </trkpt>
      <trkpt lat="45.28029" lon="6.19589">
        <ele>1435.4000244141</ele>
        <time>2012-02-05T08:14:56.000Z</time>
      </trkpt>
      <trkpt lat="45.28029" lon="6.19585">
        <ele>1435.8000488281</ele>
        <time>2012-02-05T08:15:01.000Z</time>
      </trkpt>
      <trkpt lat="45.28027" lon="6.19581">
        <ele>1436.5999755859</ele>
        <time>2012-02-05T08:15:08.000Z</time>
      </trkpt>
      <trkpt lat="45.28025" lon="6.19577">
        <ele>1437.5999755859</ele>
        <time>2012-02-05T08:15:17.000Z</time>
      </trkpt>
      <trkpt lat="45.28022" lon="6.19575">
        <ele>1437.4000244141</ele>
        <time>2012-02-05T08:15:24.000Z</time>
      </trkpt>
      <trkpt lat="45.28019" lon="6.19572">
        <ele>1437</ele>
        <time>2012-02-05T08:15:31.000Z</time>
      </trkpt>
      <trkpt lat="45.28012" lon="6.19564">
        <ele>1437.1999511719</ele>
        <time>2012-02-05T08:15:40.000Z</time>
      </trkpt>
      <trkpt lat="45.28007" lon="6.19555">
        <ele>1437.8000488281</ele>
        <time>2012-02-05T08:15:49.000Z</time>
      </trkpt>
      <trkpt lat="45.27999" lon="6.19545">
        <ele>1438.1999511719</ele>
        <time>2012-02-05T08:15:59.000Z</time>
      </trkpt>
      <trkpt lat="45.27995" lon="6.19533">
        <ele>1438.1999511719</ele>
        <time>2012-02-05T08:16:08.000Z</time>
      </trkpt>
      <trkpt lat="45.27991" lon="6.19522">
        <ele>1438.4000244141</ele>
        <time>2012-02-05T08:16:16.000Z</time>
      </trkpt>
      <trkpt lat="45.27984" lon="6.19507">
        <ele>1438.8000488281</ele>
        <time>2012-02-05T08:16:28.000Z</time>
      </trkpt>
      <trkpt lat="45.27978" lon="6.19494">
        <ele>1438.8000488281</ele>
        <time>2012-02-05T08:16:38.000Z</time>
      </trkpt>
      <trkpt lat="45.27972" lon="6.1948">
        <ele>1438.5999755859</ele>
        <time>2012-02-05T08:16:49.000Z</time>
      </trkpt>
      <trkpt lat="45.27967" lon="6.19467">
        <ele>1438.5999755859</ele>
        <time>2012-02-05T08:16:59.000Z</time>
      </trkpt>
      <trkpt lat="45.2796" lon="6.19459">
        <ele>1438.1999511719</ele>
        <time>2012-02-05T08:17:08.000Z</time>
      </trkpt>
      <trkpt lat="45.27958" lon="6.19454">
        <ele>1438</ele>
        <time>2012-02-05T08:17:14.000Z</time>
      </trkpt>
      <trkpt lat="45.27955" lon="6.19446">
        <ele>1439.1999511719</ele>
        <time>2012-02-05T08:17:22.000Z</time>
      </trkpt>
      <trkpt lat="45.27953" lon="6.19439">
        <ele>1440.4000244141</ele>
        <time>2012-02-05T08:17:30.000Z</time>
      </trkpt>
      <trkpt lat="45.27949" lon="6.19432">
        <ele>1441.4000244141</ele>
        <time>2012-02-05T08:17:37.000Z</time>
      </trkpt>
      <trkpt lat="45.27947" lon="6.19427">
        <ele>1441.8000488281</ele>
        <time>2012-02-05T08:17:43.000Z</time>
      </trkpt>
      <trkpt lat="45.27942" lon="6.19418">
        <ele>1441.8000488281</ele>
        <time>2012-02-05T08:17:52.000Z</time>
      </trkpt>
      <trkpt lat="45.27937" lon="6.19413">
        <ele>1443</ele>
        <time>2012-02-05T08:18:00.000Z</time>
      </trkpt>
      <trkpt lat="45.27933" lon="6.19408">
        <ele>1444</ele>
        <time>2012-02-05T08:18:07.000Z</time>
      </trkpt>
      <trkpt lat="45.27929" lon="6.19401">
        <ele>1445</ele>
        <time>2012-02-05T08:18:15.000Z</time>
      </trkpt>
      <trkpt lat="45.27927" lon="6.19394">
        <ele>1446.4000244141</ele>
        <time>2012-02-05T08:18:23.000Z</time>
      </trkpt>
      <trkpt lat="45.27923" lon="6.19388">
        <ele>1447.5999755859</ele>
        <time>2012-02-05T08:18:31.000Z</time>
      </trkpt>
      <trkpt lat="45.2792" lon="6.19379">
        <ele>1448.5999755859</ele>
        <time>2012-02-05T08:18:39.000Z</time>
      </trkpt>
      <trkpt lat="45.27918" lon="6.19375">
        <ele>1449.4000244141</ele>
        <time>2012-02-05T08:18:45.000Z</time>
      </trkpt>
      <trkpt lat="45.27916" lon="6.1937">
        <ele>1451</ele>
        <time>2012-02-05T08:18:52.000Z</time>
      </trkpt>
      <trkpt lat="45.27914" lon="6.19362">
        <ele>1452.4000244141</ele>
        <time>2012-02-05T08:19:00.000Z</time>
      </trkpt>
      <trkpt lat="45.27913" lon="6.19354">
        <ele>1454.1999511719</ele>
        <time>2012-02-05T08:19:10.000Z</time>
      </trkpt>
      <trkpt lat="45.27912" lon="6.19352">
        <ele>1454.5999755859</ele>
        <time>2012-02-05T08:19:12.000Z</time>
      </trkpt>
      <trkpt lat="45.27909" lon="6.19341">
        <ele>1455.5999755859</ele>
        <time>2012-02-05T08:19:21.000Z</time>
      </trkpt>
      <trkpt lat="45.27905" lon="6.19331">
        <ele>1457</ele>
        <time>2012-02-05T08:19:29.000Z</time>
      </trkpt>
      <trkpt lat="45.27902" lon="6.19324">
        <ele>1458.5999755859</ele>
        <time>2012-02-05T08:19:37.000Z</time>
      </trkpt>
      <trkpt lat="45.279" lon="6.19315">
        <ele>1459.5999755859</ele>
        <time>2012-02-05T08:19:45.000Z</time>
      </trkpt>
      <trkpt lat="45.27898" lon="6.19303">
        <ele>1461</ele>
        <time>2012-02-05T08:19:56.000Z</time>
      </trkpt>
      <trkpt lat="45.27898" lon="6.19297">
        <ele>1462</ele>
        <time>2012-02-05T08:20:02.000Z</time>
      </trkpt>
      <trkpt lat="45.27898" lon="6.19289">
        <ele>1463.1999511719</ele>
        <time>2012-02-05T08:20:09.000Z</time>
      </trkpt>
      <trkpt lat="45.27896" lon="6.19278">
        <ele>1464.5999755859</ele>
        <time>2012-02-05T08:20:18.000Z</time>
      </trkpt>
      <trkpt lat="45.27892" lon="6.19266">
        <ele>1465.8000488281</ele>
        <time>2012-02-05T08:20:28.000Z</time>
      </trkpt>
      <trkpt lat="45.27891" lon="6.19263">
        <ele>1466.5999755859</ele>
        <time>2012-02-05T08:20:36.000Z</time>
      </trkpt>
      <trkpt lat="45.27889" lon="6.19255">
        <ele>1467</ele>
        <time>2012-02-05T08:20:56.000Z</time>
      </trkpt>
      <trkpt lat="45.27888" lon="6.19244">
        <ele>1468.1999511719</ele>
        <time>2012-02-05T08:21:07.000Z</time>
      </trkpt>
      <trkpt lat="45.27886" lon="6.19236">
        <ele>1469</ele>
        <time>2012-02-05T08:21:14.000Z</time>
      </trkpt>
      <trkpt lat="45.27885" lon="6.1923">
        <ele>1470</ele>
        <time>2012-02-05T08:21:22.000Z</time>
      </trkpt>
      <trkpt lat="45.27882" lon="6.1922">
        <ele>1470.5999755859</ele>
        <time>2012-02-05T08:21:30.000Z</time>
      </trkpt>
      <trkpt lat="45.27879" lon="6.19212">
        <ele>1471</ele>
        <time>2012-02-05T08:21:38.000Z</time>
      </trkpt>
      <trkpt lat="45.27882" lon="6.19197">
        <ele>1470.8000488281</ele>
        <time>2012-02-05T08:21:49.000Z</time>
      </trkpt>
      <trkpt lat="45.27886" lon="6.1919">
        <ele>1471.4000244141</ele>
        <time>2012-02-05T08:21:57.000Z</time>
      </trkpt>
      <trkpt lat="45.27888" lon="6.19183">
        <ele>1472.1999511719</ele>
        <time>2012-02-05T08:22:03.000Z</time>
      </trkpt>
      <trkpt lat="45.27886" lon="6.19175">
        <ele>1472.4000244141</ele>
        <time>2012-02-05T08:22:09.000Z</time>
      </trkpt>
      <trkpt lat="45.27882" lon="6.19172">
        <ele>1473</ele>
        <time>2012-02-05T08:22:17.000Z</time>
      </trkpt>
      <trkpt lat="45.27877" lon="6.1917">
        <ele>1474.1999511719</ele>
        <time>2012-02-05T08:22:24.000Z</time>
      </trkpt>
      <trkpt lat="45.27874" lon="6.19165">
        <ele>1475</ele>
        <time>2012-02-05T08:22:30.000Z</time>
      </trkpt>
      <trkpt lat="45.2787" lon="6.19159">
        <ele>1476</ele>
        <time>2012-02-05T08:22:36.000Z</time>
      </trkpt>
      <trkpt lat="45.27865" lon="6.19145">
        <ele>1477.1999511719</ele>
        <time>2012-02-05T08:22:44.000Z</time>
      </trkpt>
      <trkpt lat="45.27861" lon="6.19133">
        <ele>1478</ele>
        <time>2012-02-05T08:22:52.000Z</time>
      </trkpt>
      <trkpt lat="45.27859" lon="6.19123">
        <ele>1478.5999755859</ele>
        <time>2012-02-05T08:22:59.000Z</time>
      </trkpt>
      <trkpt lat="45.27856" lon="6.19114">
        <ele>1479.4000244141</ele>
        <time>2012-02-05T08:23:06.000Z</time>
      </trkpt>
      <trkpt lat="45.27853" lon="6.19104">
        <ele>1480</ele>
        <time>2012-02-05T08:23:13.000Z</time>
      </trkpt>
      <trkpt lat="45.27853" lon="6.19098">
        <ele>1480.4000244141</ele>
        <time>2012-02-05T08:23:19.000Z</time>
      </trkpt>
      <trkpt lat="45.27853" lon="6.19092">
        <ele>1481</ele>
        <time>2012-02-05T08:23:24.000Z</time>
      </trkpt>
      <trkpt lat="45.27853" lon="6.19088">
        <ele>1481.5999755859</ele>
        <time>2012-02-05T08:23:29.000Z</time>
      </trkpt>
      <trkpt lat="45.27849" lon="6.19081">
        <ele>1482.4000244141</ele>
        <time>2012-02-05T08:23:34.000Z</time>
      </trkpt>
      <trkpt lat="45.27847" lon="6.19073">
        <ele>1483.5999755859</ele>
        <time>2012-02-05T08:23:41.000Z</time>
      </trkpt>
      <trkpt lat="45.27845" lon="6.19066">
        <ele>1483.8000488281</ele>
        <time>2012-02-05T08:23:48.000Z</time>
      </trkpt>
      <trkpt lat="45.27841" lon="6.19057">
        <ele>1484.5999755859</ele>
        <time>2012-02-05T08:23:55.000Z</time>
      </trkpt>
      <trkpt lat="45.27837" lon="6.19048">
        <ele>1485.4000244141</ele>
        <time>2012-02-05T08:24:04.000Z</time>
      </trkpt>
      <trkpt lat="45.27833" lon="6.19041">
        <ele>1485.1999511719</ele>
        <time>2012-02-05T08:24:25.000Z</time>
      </trkpt>
      <trkpt lat="45.27833" lon="6.1904">
        <ele>1485.4000244141</ele>
        <time>2012-02-05T08:24:26.000Z</time>
      </trkpt>
      <trkpt lat="45.27837" lon="6.19034">
        <ele>1485.8000488281</ele>
        <time>2012-02-05T08:24:34.000Z</time>
      </trkpt>
      <trkpt lat="45.2784" lon="6.19022">
        <ele>1486.5999755859</ele>
        <time>2012-02-05T08:24:44.000Z</time>
      </trkpt>
      <trkpt lat="45.27839" lon="6.19019">
        <ele>1486.5999755859</ele>
        <time>2012-02-05T08:24:46.000Z</time>
      </trkpt>
      <trkpt lat="45.27838" lon="6.19011">
        <ele>1486.8000488281</ele>
        <time>2012-02-05T08:24:54.000Z</time>
      </trkpt>
      <trkpt lat="45.27837" lon="6.19007">
        <ele>1488</ele>
        <time>2012-02-05T08:24:59.000Z</time>
      </trkpt>
      <trkpt lat="45.27835" lon="6.19001">
        <ele>1489.1999511719</ele>
        <time>2012-02-05T08:25:05.000Z</time>
      </trkpt>
      <trkpt lat="45.27834" lon="6.18996">
        <ele>1490</ele>
        <time>2012-02-05T08:25:10.000Z</time>
      </trkpt>
      <trkpt lat="45.27834" lon="6.18993">
        <ele>1491</ele>
        <time>2012-02-05T08:25:15.000Z</time>
      </trkpt>
      <trkpt lat="45.27836" lon="6.18987">
        <ele>1492.1999511719</ele>
        <time>2012-02-05T08:25:22.000Z</time>
      </trkpt>
      <trkpt lat="45.27836" lon="6.18983">
        <ele>1493.4000244141</ele>
        <time>2012-02-05T08:25:27.000Z</time>
      </trkpt>
      <trkpt lat="45.27833" lon="6.18976">
        <ele>1494.5999755859</ele>
        <time>2012-02-05T08:25:34.000Z</time>
      </trkpt>
      <trkpt lat="45.27836" lon="6.18967">
        <ele>1495.8000488281</ele>
        <time>2012-02-05T08:25:42.000Z</time>
      </trkpt>
      <trkpt lat="45.27841" lon="6.18961">
        <ele>1497.4000244141</ele>
        <time>2012-02-05T08:25:50.000Z</time>
      </trkpt>
      <trkpt lat="45.27841" lon="6.18957">
        <ele>1497.8000488281</ele>
        <time>2012-02-05T08:25:53.000Z</time>
      </trkpt>
      <trkpt lat="45.27843" lon="6.18949">
        <ele>1498.8000488281</ele>
        <time>2012-02-05T08:26:01.000Z</time>
      </trkpt>
      <trkpt lat="45.27845" lon="6.18942">
        <ele>1500</ele>
        <time>2012-02-05T08:26:08.000Z</time>
      </trkpt>
      <trkpt lat="45.27845" lon="6.18932">
        <ele>1501.1999511719</ele>
        <time>2012-02-05T08:26:16.000Z</time>
      </trkpt>
      <trkpt lat="45.27847" lon="6.18923">
        <ele>1502.5999755859</ele>
        <time>2012-02-05T08:26:25.000Z</time>
      </trkpt>
      <trkpt lat="45.27849" lon="6.18914">
        <ele>1503.8000488281</ele>
        <time>2012-02-05T08:26:33.000Z</time>
      </trkpt>
      <trkpt lat="45.27851" lon="6.18907">
        <ele>1505</ele>
        <time>2012-02-05T08:26:40.000Z</time>
      </trkpt>
      <trkpt lat="45.27854" lon="6.18899">
        <ele>1506.1999511719</ele>
        <time>2012-02-05T08:26:48.000Z</time>
      </trkpt>
      <trkpt lat="45.27854" lon="6.18894">
        <ele>1507</ele>
        <time>2012-02-05T08:26:56.000Z</time>
      </trkpt>
      <trkpt lat="45.27855" lon="6.18888">
        <ele>1507.1999511719</ele>
        <time>2012-02-05T08:27:03.000Z</time>
      </trkpt>
      <trkpt lat="45.27859" lon="6.18876">
        <ele>1508.8000488281</ele>
        <time>2012-02-05T08:27:14.000Z</time>
      </trkpt>
      <trkpt lat="45.27859" lon="6.18871">
        <ele>1509.1999511719</ele>
        <time>2012-02-05T08:27:18.000Z</time>
      </trkpt>
      <trkpt lat="45.27864" lon="6.18859">
        <ele>1509.8000488281</ele>
        <time>2012-02-05T08:27:28.000Z</time>
      </trkpt>
      <trkpt lat="45.27869" lon="6.18848">
        <ele>1509.1999511719</ele>
        <time>2012-02-05T08:27:37.000Z</time>
      </trkpt>
      <trkpt lat="45.27873" lon="6.18838">
        <ele>1509</ele>
        <time>2012-02-05T08:27:45.000Z</time>
      </trkpt>
      <trkpt lat="45.27876" lon="6.18829">
        <ele>1509.1999511719</ele>
        <time>2012-02-05T08:27:53.000Z</time>
      </trkpt>
      <trkpt lat="45.27877" lon="6.18824">
        <ele>1509.4000244141</ele>
        <time>2012-02-05T08:27:56.000Z</time>
      </trkpt>
      <trkpt lat="45.27878" lon="6.18822">
        <ele>1509.5999755859</ele>
        <time>2012-02-05T08:27:58.000Z</time>
      </trkpt>
      <trkpt lat="45.27882" lon="6.1881">
        <ele>1510</ele>
        <time>2012-02-05T08:28:08.000Z</time>
      </trkpt>
      <trkpt lat="45.27883" lon="6.188">
        <ele>1510.8000488281</ele>
        <time>2012-02-05T08:28:16.000Z</time>
      </trkpt>
      <trkpt lat="45.27884" lon="6.18791">
        <ele>1511.4000244141</ele>
        <time>2012-02-05T08:28:23.000Z</time>
      </trkpt>
      <trkpt lat="45.27884" lon="6.18789">
        <ele>1511.4000244141</ele>
        <time>2012-02-05T08:28:25.000Z</time>
      </trkpt>
      <trkpt lat="45.27886" lon="6.18778">
        <ele>1512.5999755859</ele>
        <time>2012-02-05T08:28:34.000Z</time>
      </trkpt>
      <trkpt lat="45.27891" lon="6.18768">
        <ele>1513.8000488281</ele>
        <time>2012-02-05T08:28:43.000Z</time>
      </trkpt>
      <trkpt lat="45.27891" lon="6.18758">
        <ele>1514.8000488281</ele>
        <time>2012-02-05T08:28:51.000Z</time>
      </trkpt>
      <trkpt lat="45.27892" lon="6.18749">
        <ele>1516.1999511719</ele>
        <time>2012-02-05T08:28:59.000Z</time>
      </trkpt>
      <trkpt lat="45.2789" lon="6.1874">
        <ele>1517</ele>
        <time>2012-02-05T08:29:05.000Z</time>
      </trkpt>
      <trkpt lat="45.27891" lon="6.18731">
        <ele>1517.8000488281</ele>
        <time>2012-02-05T08:29:12.000Z</time>
      </trkpt>
      <trkpt lat="45.27891" lon="6.18717">
        <ele>1519.4000244141</ele>
        <time>2012-02-05T08:29:23.000Z</time>
      </trkpt>
      <trkpt lat="45.27892" lon="6.1871">
        <ele>1520.4000244141</ele>
        <time>2012-02-05T08:29:29.000Z</time>
      </trkpt>
      <trkpt lat="45.27892" lon="6.187">
        <ele>1521.5999755859</ele>
        <time>2012-02-05T08:29:37.000Z</time>
      </trkpt>
      <trkpt lat="45.27893" lon="6.18688">
        <ele>1522.8000488281</ele>
        <time>2012-02-05T08:29:46.000Z</time>
      </trkpt>
      <trkpt lat="45.27894" lon="6.18681">
        <ele>1523.8000488281</ele>
        <time>2012-02-05T08:29:53.000Z</time>
      </trkpt>
      <trkpt lat="45.27893" lon="6.18666">
        <ele>1524.5999755859</ele>
        <time>2012-02-05T08:30:03.000Z</time>
      </trkpt>
      <trkpt lat="45.27897" lon="6.18658">
        <ele>1525.5999755859</ele>
        <time>2012-02-05T08:30:12.000Z</time>
      </trkpt>
      <trkpt lat="45.279" lon="6.18651">
        <ele>1526.8000488281</ele>
        <time>2012-02-05T08:30:20.000Z</time>
      </trkpt>
      <trkpt lat="45.27901" lon="6.18643">
        <ele>1527.8000488281</ele>
        <time>2012-02-05T08:30:28.000Z</time>
      </trkpt>
      <trkpt lat="45.27901" lon="6.18634">
        <ele>1529</ele>
        <time>2012-02-05T08:30:36.000Z</time>
      </trkpt>
      <trkpt lat="45.27902" lon="6.18625">
        <ele>1530.5999755859</ele>
        <time>2012-02-05T08:30:44.000Z</time>
      </trkpt>
      <trkpt lat="45.27904" lon="6.18618">
        <ele>1531.4000244141</ele>
        <time>2012-02-05T08:30:51.000Z</time>
      </trkpt>
      <trkpt lat="45.27906" lon="6.18609">
        <ele>1532.4000244141</ele>
        <time>2012-02-05T08:30:59.000Z</time>
      </trkpt>
      <trkpt lat="45.27907" lon="6.186">
        <ele>1533.1999511719</ele>
        <time>2012-02-05T08:31:07.000Z</time>
      </trkpt>
      <trkpt lat="45.27906" lon="6.18591">
        <ele>1534.1999511719</ele>
        <time>2012-02-05T08:31:14.000Z</time>
      </trkpt>
      <trkpt lat="45.27907" lon="6.18582">
        <ele>1535.5999755859</ele>
        <time>2012-02-05T08:31:22.000Z</time>
      </trkpt>
      <trkpt lat="45.27904" lon="6.18571">
        <ele>1536.8000488281</ele>
        <time>2012-02-05T08:31:29.000Z</time>
      </trkpt>
      <trkpt lat="45.27902" lon="6.18561">
        <ele>1538</ele>
        <time>2012-02-05T08:31:37.000Z</time>
      </trkpt>
      <trkpt lat="45.27901" lon="6.18553">
        <ele>1538.8000488281</ele>
        <time>2012-02-05T08:31:46.000Z</time>
      </trkpt>
      <trkpt lat="45.27899" lon="6.18546">
        <ele>1540.1999511719</ele>
        <time>2012-02-05T08:31:53.000Z</time>
      </trkpt>
      <trkpt lat="45.27898" lon="6.18538">
        <ele>1542.1999511719</ele>
        <time>2012-02-05T08:32:02.000Z</time>
      </trkpt>
      <trkpt lat="45.27896" lon="6.1853">
        <ele>1543.4000244141</ele>
        <time>2012-02-05T08:32:10.000Z</time>
      </trkpt>
      <trkpt lat="45.27895" lon="6.18529">
        <ele>1543.4000244141</ele>
        <time>2012-02-05T08:32:11.000Z</time>
      </trkpt>
      <trkpt lat="45.27894" lon="6.1852">
        <ele>1545</ele>
        <time>2012-02-05T08:32:21.000Z</time>
      </trkpt>
      <trkpt lat="45.27892" lon="6.18512">
        <ele>1546</ele>
        <time>2012-02-05T08:32:29.000Z</time>
      </trkpt>
      <trkpt lat="45.27891" lon="6.18503">
        <ele>1547.1999511719</ele>
        <time>2012-02-05T08:32:38.000Z</time>
      </trkpt>
      <trkpt lat="45.27889" lon="6.18495">
        <ele>1548.4000244141</ele>
        <time>2012-02-05T08:32:45.000Z</time>
      </trkpt>
      <trkpt lat="45.27889" lon="6.18486">
        <ele>1549.4000244141</ele>
        <time>2012-02-05T08:32:54.000Z</time>
      </trkpt>
      <trkpt lat="45.27886" lon="6.18475">
        <ele>1551.4000244141</ele>
        <time>2012-02-05T08:33:03.000Z</time>
      </trkpt>
      <trkpt lat="45.27886" lon="6.18469">
        <ele>1552.5999755859</ele>
        <time>2012-02-05T08:33:10.000Z</time>
      </trkpt>
      <trkpt lat="45.27884" lon="6.18456">
        <ele>1553.1999511719</ele>
        <time>2012-02-05T08:33:19.000Z</time>
      </trkpt>
      <trkpt lat="45.27883" lon="6.18447">
        <ele>1553.5999755859</ele>
        <time>2012-02-05T08:33:27.000Z</time>
      </trkpt>
      <trkpt lat="45.27884" lon="6.18445">
        <ele>1553.5999755859</ele>
        <time>2012-02-05T08:33:29.000Z</time>
      </trkpt>
      <trkpt lat="45.27885" lon="6.18432">
        <ele>1553.1999511719</ele>
        <time>2012-02-05T08:33:39.000Z</time>
      </trkpt>
      <trkpt lat="45.27884" lon="6.18424">
        <ele>1554</ele>
        <time>2012-02-05T08:33:47.000Z</time>
      </trkpt>
      <trkpt lat="45.27882" lon="6.18414">
        <ele>1555.1999511719</ele>
        <time>2012-02-05T08:33:55.000Z</time>
      </trkpt>
      <trkpt lat="45.27883" lon="6.18405">
        <ele>1556.8000488281</ele>
        <time>2012-02-05T08:34:03.000Z</time>
      </trkpt>
      <trkpt lat="45.27885" lon="6.18397">
        <ele>1558</ele>
        <time>2012-02-05T08:34:11.000Z</time>
      </trkpt>
      <trkpt lat="45.27889" lon="6.18389">
        <ele>1558.8000488281</ele>
        <time>2012-02-05T08:34:19.000Z</time>
      </trkpt>
      <trkpt lat="45.27893" lon="6.18382">
        <ele>1559.1999511719</ele>
        <time>2012-02-05T08:34:27.000Z</time>
      </trkpt>
      <trkpt lat="45.27898" lon="6.18375">
        <ele>1559.8000488281</ele>
        <time>2012-02-05T08:34:36.000Z</time>
      </trkpt>
      <trkpt lat="45.27903" lon="6.18366">
        <ele>1561.4000244141</ele>
        <time>2012-02-05T08:34:46.000Z</time>
      </trkpt>
      <trkpt lat="45.27908" lon="6.18356">
        <ele>1562.5999755859</ele>
        <time>2012-02-05T08:34:57.000Z</time>
      </trkpt>
      <trkpt lat="45.27912" lon="6.18348">
        <ele>1563.1999511719</ele>
        <time>2012-02-05T08:35:05.000Z</time>
      </trkpt>
      <trkpt lat="45.27915" lon="6.18342">
        <ele>1563.1999511719</ele>
        <time>2012-02-05T08:35:11.000Z</time>
      </trkpt>
      <trkpt lat="45.2792" lon="6.18331">
        <ele>1562.5999755859</ele>
        <time>2012-02-05T08:35:21.000Z</time>
      </trkpt>
      <trkpt lat="45.27924" lon="6.18323">
        <ele>1562.5999755859</ele>
        <time>2012-02-05T08:35:29.000Z</time>
      </trkpt>
      <trkpt lat="45.27926" lon="6.18319">
        <ele>1563.4000244141</ele>
        <time>2012-02-05T08:35:37.000Z</time>
      </trkpt>
      <trkpt lat="45.27928" lon="6.18314">
        <ele>1564</ele>
        <time>2012-02-05T08:35:51.000Z</time>
      </trkpt>
      <trkpt lat="45.2793" lon="6.18307">
        <ele>1565.4000244141</ele>
        <time>2012-02-05T08:36:00.000Z</time>
      </trkpt>
      <trkpt lat="45.27932" lon="6.18298">
        <ele>1567.1999511719</ele>
        <time>2012-02-05T08:36:09.000Z</time>
      </trkpt>
      <trkpt lat="45.27932" lon="6.18296">
        <ele>1567.4000244141</ele>
        <time>2012-02-05T08:36:11.000Z</time>
      </trkpt>
      <trkpt lat="45.27932" lon="6.18286">
        <ele>1567.8000488281</ele>
        <time>2012-02-05T08:36:19.000Z</time>
      </trkpt>
      <trkpt lat="45.27932" lon="6.18285">
        <ele>1567.8000488281</ele>
        <time>2012-02-05T08:36:20.000Z</time>
      </trkpt>
      <trkpt lat="45.2793" lon="6.18277">
        <ele>1568.1999511719</ele>
        <time>2012-02-05T08:36:29.000Z</time>
      </trkpt>
      <trkpt lat="45.27928" lon="6.18268">
        <ele>1569.8000488281</ele>
        <time>2012-02-05T08:36:37.000Z</time>
      </trkpt>
      <trkpt lat="45.27924" lon="6.18259">
        <ele>1570.4000244141</ele>
        <time>2012-02-05T08:36:46.000Z</time>
      </trkpt>
      <trkpt lat="45.27919" lon="6.18249">
        <ele>1570.5999755859</ele>
        <time>2012-02-05T08:36:56.000Z</time>
      </trkpt>
      <trkpt lat="45.27919" lon="6.1824">
        <ele>1571.4000244141</ele>
        <time>2012-02-05T08:37:04.000Z</time>
      </trkpt>
      <trkpt lat="45.27918" lon="6.18234">
        <ele>1572</ele>
        <time>2012-02-05T08:37:13.000Z</time>
      </trkpt>
      <trkpt lat="45.27917" lon="6.18226">
        <ele>1572</ele>
        <time>2012-02-05T08:37:23.000Z</time>
      </trkpt>
      <trkpt lat="45.27918" lon="6.18218">
        <ele>1572.8000488281</ele>
        <time>2012-02-05T08:37:31.000Z</time>
      </trkpt>
      <trkpt lat="45.27918" lon="6.18209">
        <ele>1574</ele>
        <time>2012-02-05T08:37:39.000Z</time>
      </trkpt>
      <trkpt lat="45.27917" lon="6.18198">
        <ele>1575.4000244141</ele>
        <time>2012-02-05T08:37:49.000Z</time>
      </trkpt>
      <trkpt lat="45.27914" lon="6.18187">
        <ele>1576</ele>
        <time>2012-02-05T08:37:59.000Z</time>
      </trkpt>
      <trkpt lat="45.27911" lon="6.18177">
        <ele>1576.4000244141</ele>
        <time>2012-02-05T08:38:08.000Z</time>
      </trkpt>
      <trkpt lat="45.27907" lon="6.18167">
        <ele>1576.5999755859</ele>
        <time>2012-02-05T08:38:17.000Z</time>
      </trkpt>
      <trkpt lat="45.27904" lon="6.18158">
        <ele>1576.1999511719</ele>
        <time>2012-02-05T08:38:25.000Z</time>
      </trkpt>
      <trkpt lat="45.279" lon="6.18153">
        <ele>1576.5999755859</ele>
        <time>2012-02-05T08:38:32.000Z</time>
      </trkpt>
      <trkpt lat="45.27896" lon="6.18145">
        <ele>1577.5999755859</ele>
        <time>2012-02-05T08:38:41.000Z</time>
      </trkpt>
      <trkpt lat="45.27892" lon="6.18141">
        <ele>1577.5999755859</ele>
        <time>2012-02-05T08:38:50.000Z</time>
      </trkpt>
      <trkpt lat="45.27888" lon="6.18138">
        <ele>1578</ele>
        <time>2012-02-05T08:38:56.000Z</time>
      </trkpt>
      <trkpt lat="45.27885" lon="6.18133">
        <ele>1579.1999511719</ele>
        <time>2012-02-05T08:39:04.000Z</time>
      </trkpt>
      <trkpt lat="45.2788" lon="6.18128">
        <ele>1580</ele>
        <time>2012-02-05T08:39:17.000Z</time>
      </trkpt>
      <trkpt lat="45.27877" lon="6.18124">
        <ele>1581.8000488281</ele>
        <time>2012-02-05T08:39:25.000Z</time>
      </trkpt>
      <trkpt lat="45.27877" lon="6.1812">
        <ele>1583.1999511719</ele>
        <time>2012-02-05T08:39:32.000Z</time>
      </trkpt>
      <trkpt lat="45.27877" lon="6.18113">
        <ele>1584.8000488281</ele>
        <time>2012-02-05T08:39:40.000Z</time>
      </trkpt>
      <trkpt lat="45.27875" lon="6.18109">
        <ele>1586.5999755859</ele>
        <time>2012-02-05T08:39:49.000Z</time>
      </trkpt>
      <trkpt lat="45.27873" lon="6.18104">
        <ele>1588.1999511719</ele>
        <time>2012-02-05T08:39:56.000Z</time>
      </trkpt>
      <trkpt lat="45.27869" lon="6.18101">
        <ele>1589.8000488281</ele>
        <time>2012-02-05T08:40:04.000Z</time>
      </trkpt>
      <trkpt lat="45.27868" lon="6.18099">
        <ele>1590.4000244141</ele>
        <time>2012-02-05T08:40:09.000Z</time>
      </trkpt>
      <trkpt lat="45.27869" lon="6.18088">
        <ele>1592.5999755859</ele>
        <time>2012-02-05T08:40:20.000Z</time>
      </trkpt>
      <trkpt lat="45.2787" lon="6.18085">
        <ele>1593.8000488281</ele>
        <time>2012-02-05T08:40:26.000Z</time>
      </trkpt>
      <trkpt lat="45.27873" lon="6.18083">
        <ele>1594.8000488281</ele>
        <time>2012-02-05T08:40:31.000Z</time>
      </trkpt>
      <trkpt lat="45.27878" lon="6.18078">
        <ele>1596.4000244141</ele>
        <time>2012-02-05T08:40:40.000Z</time>
      </trkpt>
      <trkpt lat="45.27881" lon="6.18072">
        <ele>1597.8000488281</ele>
        <time>2012-02-05T08:40:48.000Z</time>
      </trkpt>
      <trkpt lat="45.27881" lon="6.18063">
        <ele>1599.8000488281</ele>
        <time>2012-02-05T08:40:57.000Z</time>
      </trkpt>
      <trkpt lat="45.27881" lon="6.18059">
        <ele>1600.5999755859</ele>
        <time>2012-02-05T08:41:03.000Z</time>
      </trkpt>
      <trkpt lat="45.2788" lon="6.18053">
        <ele>1602</ele>
        <time>2012-02-05T08:41:09.000Z</time>
      </trkpt>
      <trkpt lat="45.27881" lon="6.1805">
        <ele>1603</ele>
        <time>2012-02-05T08:41:16.000Z</time>
      </trkpt>
      <trkpt lat="45.27883" lon="6.18042">
        <ele>1603.8000488281</ele>
        <time>2012-02-05T08:41:41.000Z</time>
      </trkpt>
      <trkpt lat="45.27885" lon="6.18036">
        <ele>1604.5999755859</ele>
        <time>2012-02-05T08:41:48.000Z</time>
      </trkpt>
      <trkpt lat="45.27889" lon="6.18029">
        <ele>1605.1999511719</ele>
        <time>2012-02-05T08:41:56.000Z</time>
      </trkpt>
      <trkpt lat="45.27893" lon="6.18021">
        <ele>1606.1999511719</ele>
        <time>2012-02-05T08:42:04.000Z</time>
      </trkpt>
      <trkpt lat="45.27897" lon="6.18014">
        <ele>1607.5999755859</ele>
        <time>2012-02-05T08:42:13.000Z</time>
      </trkpt>
      <trkpt lat="45.27901" lon="6.18009">
        <ele>1609</ele>
        <time>2012-02-05T08:42:21.000Z</time>
      </trkpt>
      <trkpt lat="45.27904" lon="6.18002">
        <ele>1610.4000244141</ele>
        <time>2012-02-05T08:42:30.000Z</time>
      </trkpt>
      <trkpt lat="45.27907" lon="6.17996">
        <ele>1611.8000488281</ele>
        <time>2012-02-05T08:42:37.000Z</time>
      </trkpt>
      <trkpt lat="45.27911" lon="6.17988">
        <ele>1613.5999755859</ele>
        <time>2012-02-05T08:42:47.000Z</time>
      </trkpt>
      <trkpt lat="45.27912" lon="6.1798">
        <ele>1615</ele>
        <time>2012-02-05T08:42:55.000Z</time>
      </trkpt>
      <trkpt lat="45.27914" lon="6.1797">
        <ele>1616</ele>
        <time>2012-02-05T08:43:03.000Z</time>
      </trkpt>
      <trkpt lat="45.27915" lon="6.17961">
        <ele>1617.1999511719</ele>
        <time>2012-02-05T08:43:11.000Z</time>
      </trkpt>
      <trkpt lat="45.27914" lon="6.17952">
        <ele>1618.1999511719</ele>
        <time>2012-02-05T08:43:20.000Z</time>
      </trkpt>
      <trkpt lat="45.27914" lon="6.1795">
        <ele>1618.4000244141</ele>
        <time>2012-02-05T08:43:27.000Z</time>
      </trkpt>
      <trkpt lat="45.27913" lon="6.17942">
        <ele>1618.5999755859</ele>
        <time>2012-02-05T08:43:34.000Z</time>
      </trkpt>
      <trkpt lat="45.27912" lon="6.17928">
        <ele>1618.8000488281</ele>
        <time>2012-02-05T08:43:44.000Z</time>
      </trkpt>
      <trkpt lat="45.27911" lon="6.17916">
        <ele>1619.4000244141</ele>
        <time>2012-02-05T08:43:53.000Z</time>
      </trkpt>
      <trkpt lat="45.27912" lon="6.17902">
        <ele>1620.4000244141</ele>
        <time>2012-02-05T08:44:03.000Z</time>
      </trkpt>
      <trkpt lat="45.27912" lon="6.17889">
        <ele>1620.8000488281</ele>
        <time>2012-02-05T08:44:13.000Z</time>
      </trkpt>
      <trkpt lat="45.27912" lon="6.17877">
        <ele>1621.8000488281</ele>
        <time>2012-02-05T08:44:22.000Z</time>
      </trkpt>
      <trkpt lat="45.27913" lon="6.17865">
        <ele>1622.5999755859</ele>
        <time>2012-02-05T08:44:31.000Z</time>
      </trkpt>
      <trkpt lat="45.27914" lon="6.17856">
        <ele>1623.1999511719</ele>
        <time>2012-02-05T08:44:39.000Z</time>
      </trkpt>
      <trkpt lat="45.27916" lon="6.17847">
        <ele>1624.5999755859</ele>
        <time>2012-02-05T08:44:49.000Z</time>
      </trkpt>
      <trkpt lat="45.27915" lon="6.17834">
        <ele>1625.8000488281</ele>
        <time>2012-02-05T08:44:58.000Z</time>
      </trkpt>
      <trkpt lat="45.27914" lon="6.17823">
        <ele>1626.5999755859</ele>
        <time>2012-02-05T08:45:07.000Z</time>
      </trkpt>
      <trkpt lat="45.27912" lon="6.17809">
        <ele>1627.1999511719</ele>
        <time>2012-02-05T08:45:17.000Z</time>
      </trkpt>
      <trkpt lat="45.27914" lon="6.17807">
        <ele>1628</ele>
        <time>2012-02-05T08:45:24.000Z</time>
      </trkpt>
      <trkpt lat="45.27914" lon="6.17802">
        <ele>1628</ele>
        <time>2012-02-05T08:45:32.000Z</time>
      </trkpt>
      <trkpt lat="45.27911" lon="6.17791">
        <ele>1628.1999511719</ele>
        <time>2012-02-05T08:45:42.000Z</time>
      </trkpt>
      <trkpt lat="45.27909" lon="6.17781">
        <ele>1628.4000244141</ele>
        <time>2012-02-05T08:45:51.000Z</time>
      </trkpt>
      <trkpt lat="45.27905" lon="6.1777">
        <ele>1630</ele>
        <time>2012-02-05T08:46:00.000Z</time>
      </trkpt>
      <trkpt lat="45.27905" lon="6.17759">
        <ele>1630.1999511719</ele>
        <time>2012-02-05T08:46:08.000Z</time>
      </trkpt>
      <trkpt lat="45.27906" lon="6.17747">
        <ele>1631.1999511719</ele>
        <time>2012-02-05T08:46:17.000Z</time>
      </trkpt>
      <trkpt lat="45.27909" lon="6.17738">
        <ele>1631.1999511719</ele>
        <time>2012-02-05T08:46:26.000Z</time>
      </trkpt>
      <trkpt lat="45.27911" lon="6.17731">
        <ele>1631.8000488281</ele>
        <time>2012-02-05T08:46:34.000Z</time>
      </trkpt>
      <trkpt lat="45.27912" lon="6.17726">
        <ele>1632.8000488281</ele>
        <time>2012-02-05T08:46:41.000Z</time>
      </trkpt>
      <trkpt lat="45.27919" lon="6.17715">
        <ele>1635.8000488281</ele>
        <time>2012-02-05T08:47:00.000Z</time>
      </trkpt>
      <trkpt lat="45.27922" lon="6.1771">
        <ele>1637.4000244141</ele>
        <time>2012-02-05T08:47:08.000Z</time>
      </trkpt>
      <trkpt lat="45.27922" lon="6.17708">
        <ele>1638</ele>
        <time>2012-02-05T08:47:11.000Z</time>
      </trkpt>
      <trkpt lat="45.27922" lon="6.17703">
        <ele>1639.1999511719</ele>
        <time>2012-02-05T08:47:17.000Z</time>
      </trkpt>
      <trkpt lat="45.27923" lon="6.17692">
        <ele>1640.8000488281</ele>
        <time>2012-02-05T08:47:28.000Z</time>
      </trkpt>
      <trkpt lat="45.27922" lon="6.17688">
        <ele>1641</ele>
        <time>2012-02-05T08:47:31.000Z</time>
      </trkpt>
      <trkpt lat="45.27922" lon="6.17676">
        <ele>1642</ele>
        <time>2012-02-05T08:47:41.000Z</time>
      </trkpt>
      <trkpt lat="45.27923" lon="6.17665">
        <ele>1642.8000488281</ele>
        <time>2012-02-05T08:47:50.000Z</time>
      </trkpt>
      <trkpt lat="45.27924" lon="6.17655">
        <ele>1644.1999511719</ele>
        <time>2012-02-05T08:47:59.000Z</time>
      </trkpt>
      <trkpt lat="45.27925" lon="6.17643">
        <ele>1644.4000244141</ele>
        <time>2012-02-05T08:48:08.000Z</time>
      </trkpt>
      <trkpt lat="45.27928" lon="6.17636">
        <ele>1644</ele>
        <time>2012-02-05T08:48:15.000Z</time>
      </trkpt>
      <trkpt lat="45.2793" lon="6.17624">
        <ele>1645.5999755859</ele>
        <time>2012-02-05T08:48:29.000Z</time>
      </trkpt>
      <trkpt lat="45.27933" lon="6.17619">
        <ele>1646.5999755859</ele>
        <time>2012-02-05T08:48:36.000Z</time>
      </trkpt>
      <trkpt lat="45.27936" lon="6.17614">
        <ele>1648.4000244141</ele>
        <time>2012-02-05T08:48:45.000Z</time>
      </trkpt>
      <trkpt lat="45.27938" lon="6.17612">
        <ele>1649.1999511719</ele>
        <time>2012-02-05T08:48:52.000Z</time>
      </trkpt>
      <trkpt lat="45.27941" lon="6.17608">
        <ele>1649.4000244141</ele>
        <time>2012-02-05T08:48:58.000Z</time>
      </trkpt>
      <trkpt lat="45.27943" lon="6.17599">
        <ele>1650.5999755859</ele>
        <time>2012-02-05T08:49:07.000Z</time>
      </trkpt>
      <trkpt lat="45.27945" lon="6.17593">
        <ele>1651.5999755859</ele>
        <time>2012-02-05T08:49:14.000Z</time>
      </trkpt>
      <trkpt lat="45.27945" lon="6.17592">
        <ele>1652.4000244141</ele>
        <time>2012-02-05T08:49:23.000Z</time>
      </trkpt>
      <trkpt lat="45.27945" lon="6.17584">
        <ele>1652.8000488281</ele>
        <time>2012-02-05T08:49:47.000Z</time>
      </trkpt>
      <trkpt lat="45.27946" lon="6.17576">
        <ele>1654.4000244141</ele>
        <time>2012-02-05T08:49:55.000Z</time>
      </trkpt>
      <trkpt lat="45.27941" lon="6.17575">
        <ele>1656.4000244141</ele>
        <time>2012-02-05T08:50:04.000Z</time>
      </trkpt>
      <trkpt lat="45.27937" lon="6.17571">
        <ele>1658</ele>
        <time>2012-02-05T08:50:11.000Z</time>
      </trkpt>
      <trkpt lat="45.27934" lon="6.1757">
        <ele>1659.4000244141</ele>
        <time>2012-02-05T08:50:18.000Z</time>
      </trkpt>
      <trkpt lat="45.27932" lon="6.17567">
        <ele>1661</ele>
        <time>2012-02-05T08:50:24.000Z</time>
      </trkpt>
      <trkpt lat="45.27931" lon="6.17561">
        <ele>1662.4000244141</ele>
        <time>2012-02-05T08:50:31.000Z</time>
      </trkpt>
      <trkpt lat="45.27934" lon="6.17551">
        <ele>1663.8000488281</ele>
        <time>2012-02-05T08:50:40.000Z</time>
      </trkpt>
      <trkpt lat="45.27937" lon="6.17544">
        <ele>1664.8000488281</ele>
        <time>2012-02-05T08:50:48.000Z</time>
      </trkpt>
      <trkpt lat="45.27939" lon="6.17533">
        <ele>1665.1999511719</ele>
        <time>2012-02-05T08:50:56.000Z</time>
      </trkpt>
      <trkpt lat="45.2794" lon="6.17524">
        <ele>1666.1999511719</ele>
        <time>2012-02-05T08:51:04.000Z</time>
      </trkpt>
      <trkpt lat="45.27943" lon="6.17515">
        <ele>1667.8000488281</ele>
        <time>2012-02-05T08:51:14.000Z</time>
      </trkpt>
      <trkpt lat="45.27947" lon="6.17508">
        <ele>1669.1999511719</ele>
        <time>2012-02-05T08:51:23.000Z</time>
      </trkpt>
      <trkpt lat="45.27949" lon="6.17504">
        <ele>1669.8000488281</ele>
        <time>2012-02-05T08:51:28.000Z</time>
      </trkpt>
      <trkpt lat="45.27951" lon="6.17502">
        <ele>1669.4000244141</ele>
        <time>2012-02-05T08:51:34.000Z</time>
      </trkpt>
      <trkpt lat="45.27955" lon="6.17496">
        <ele>1667.4000244141</ele>
        <time>2012-02-05T08:51:41.000Z</time>
      </trkpt>
      <trkpt lat="45.27958" lon="6.17495">
        <ele>1667.5999755859</ele>
        <time>2012-02-05T08:51:47.000Z</time>
      </trkpt>
      <trkpt lat="45.27963" lon="6.17494">
        <ele>1668.5999755859</ele>
        <time>2012-02-05T08:51:54.000Z</time>
      </trkpt>
      <trkpt lat="45.27962" lon="6.17485">
        <ele>1669.5999755859</ele>
        <time>2012-02-05T08:52:02.000Z</time>
      </trkpt>
      <trkpt lat="45.27962" lon="6.1748">
        <ele>1670.4000244141</ele>
        <time>2012-02-05T08:52:07.000Z</time>
      </trkpt>
      <trkpt lat="45.27963" lon="6.17473">
        <ele>1671.8000488281</ele>
        <time>2012-02-05T08:52:14.000Z</time>
      </trkpt>
      <trkpt lat="45.27964" lon="6.1747">
        <ele>1672.5999755859</ele>
        <time>2012-02-05T08:52:19.000Z</time>
      </trkpt>
      <trkpt lat="45.27963" lon="6.1746">
        <ele>1672.8000488281</ele>
        <time>2012-02-05T08:52:27.000Z</time>
      </trkpt>
      <trkpt lat="45.27964" lon="6.17453">
        <ele>1674</ele>
        <time>2012-02-05T08:52:35.000Z</time>
      </trkpt>
      <trkpt lat="45.27965" lon="6.17444">
        <ele>1675.4000244141</ele>
        <time>2012-02-05T08:52:43.000Z</time>
      </trkpt>
      <trkpt lat="45.27965" lon="6.17437">
        <ele>1676</ele>
        <time>2012-02-05T08:52:51.000Z</time>
      </trkpt>
      <trkpt lat="45.27963" lon="6.17433">
        <ele>1677.1999511719</ele>
        <time>2012-02-05T08:52:57.000Z</time>
      </trkpt>
      <trkpt lat="45.27959" lon="6.17428">
        <ele>1678.8000488281</ele>
        <time>2012-02-05T08:53:06.000Z</time>
      </trkpt>
      <trkpt lat="45.27956" lon="6.17424">
        <ele>1679.5999755859</ele>
        <time>2012-02-05T08:53:12.000Z</time>
      </trkpt>
      <trkpt lat="45.27954" lon="6.17419">
        <ele>1680.1999511719</ele>
        <time>2012-02-05T08:53:18.000Z</time>
      </trkpt>
      <trkpt lat="45.27952" lon="6.17415">
        <ele>1681.1999511719</ele>
        <time>2012-02-05T08:53:23.000Z</time>
      </trkpt>
      <trkpt lat="45.27951" lon="6.17408">
        <ele>1682</ele>
        <time>2012-02-05T08:53:30.000Z</time>
      </trkpt>
      <trkpt lat="45.27953" lon="6.17403">
        <ele>1683.4000244141</ele>
        <time>2012-02-05T08:53:37.000Z</time>
      </trkpt>
      <trkpt lat="45.27957" lon="6.17402">
        <ele>1685</ele>
        <time>2012-02-05T08:53:44.000Z</time>
      </trkpt>
      <trkpt lat="45.27963" lon="6.17399">
        <ele>1686.1999511719</ele>
        <time>2012-02-05T08:53:53.000Z</time>
      </trkpt>
      <trkpt lat="45.27966" lon="6.17397">
        <ele>1686.8000488281</ele>
        <time>2012-02-05T08:53:59.000Z</time>
      </trkpt>
      <trkpt lat="45.27968" lon="6.17389">
        <ele>1687.8000488281</ele>
        <time>2012-02-05T08:54:07.000Z</time>
      </trkpt>
      <trkpt lat="45.27967" lon="6.17382">
        <ele>1688.8000488281</ele>
        <time>2012-02-05T08:54:15.000Z</time>
      </trkpt>
      <trkpt lat="45.27965" lon="6.17377">
        <ele>1689.8000488281</ele>
        <time>2012-02-05T08:54:20.000Z</time>
      </trkpt>
      <trkpt lat="45.27961" lon="6.17371">
        <ele>1690.5999755859</ele>
        <time>2012-02-05T08:54:28.000Z</time>
      </trkpt>
      <trkpt lat="45.27956" lon="6.17367">
        <ele>1691.8000488281</ele>
        <time>2012-02-05T08:54:38.000Z</time>
      </trkpt>
      <trkpt lat="45.27953" lon="6.1736">
        <ele>1693.1999511719</ele>
        <time>2012-02-05T08:54:47.000Z</time>
      </trkpt>
      <trkpt lat="45.27955" lon="6.17354">
        <ele>1694.8000488281</ele>
        <time>2012-02-05T08:54:54.000Z</time>
      </trkpt>
      <trkpt lat="45.27958" lon="6.17347">
        <ele>1695.4000244141</ele>
        <time>2012-02-05T08:55:03.000Z</time>
      </trkpt>
      <trkpt lat="45.27962" lon="6.17339">
        <ele>1696.4000244141</ele>
        <time>2012-02-05T08:55:12.000Z</time>
      </trkpt>
      <trkpt lat="45.27968" lon="6.17331">
        <ele>1697</ele>
        <time>2012-02-05T08:55:21.000Z</time>
      </trkpt>
      <trkpt lat="45.27973" lon="6.17324">
        <ele>1698.5999755859</ele>
        <time>2012-02-05T08:55:31.000Z</time>
      </trkpt>
      <trkpt lat="45.27974" lon="6.17321">
        <ele>1698.5999755859</ele>
        <time>2012-02-05T08:55:34.000Z</time>
      </trkpt>
      <trkpt lat="45.27978" lon="6.1731">
        <ele>1699.1999511719</ele>
        <time>2012-02-05T08:55:43.000Z</time>
      </trkpt>
      <trkpt lat="45.27978" lon="6.17297">
        <ele>1700.1999511719</ele>
        <time>2012-02-05T08:56:08.000Z</time>
      </trkpt>
      <trkpt lat="45.27976" lon="6.17288">
        <ele>1701.4000244141</ele>
        <time>2012-02-05T08:56:17.000Z</time>
      </trkpt>
      <trkpt lat="45.27974" lon="6.17285">
        <ele>1702.1999511719</ele>
        <time>2012-02-05T08:56:23.000Z</time>
      </trkpt>
      <trkpt lat="45.27972" lon="6.17281">
        <ele>1703.1999511719</ele>
        <time>2012-02-05T08:56:29.000Z</time>
      </trkpt>
      <trkpt lat="45.27971" lon="6.17276">
        <ele>1704</ele>
        <time>2012-02-05T08:56:34.000Z</time>
      </trkpt>
      <trkpt lat="45.27971" lon="6.17265">
        <ele>1705</ele>
        <time>2012-02-05T08:56:43.000Z</time>
      </trkpt>
      <trkpt lat="45.27971" lon="6.17256">
        <ele>1706</ele>
        <time>2012-02-05T08:56:52.000Z</time>
      </trkpt>
      <trkpt lat="45.2797" lon="6.17245">
        <ele>1707.1999511719</ele>
        <time>2012-02-05T08:57:00.000Z</time>
      </trkpt>
      <trkpt lat="45.27973" lon="6.17237">
        <ele>1708.5999755859</ele>
        <time>2012-02-05T08:57:09.000Z</time>
      </trkpt>
      <trkpt lat="45.27976" lon="6.17235">
        <ele>1709.5999755859</ele>
        <time>2012-02-05T08:57:15.000Z</time>
      </trkpt>
      <trkpt lat="45.2798" lon="6.1723">
        <ele>1710.4000244141</ele>
        <time>2012-02-05T08:57:23.000Z</time>
      </trkpt>
      <trkpt lat="45.27984" lon="6.17222">
        <ele>1712</ele>
        <time>2012-02-05T08:57:34.000Z</time>
      </trkpt>
      <trkpt lat="45.27988" lon="6.17213">
        <ele>1713.5999755859</ele>
        <time>2012-02-05T08:57:45.000Z</time>
      </trkpt>
      <trkpt lat="45.27991" lon="6.17206">
        <ele>1714.4000244141</ele>
        <time>2012-02-05T08:57:54.000Z</time>
      </trkpt>
      <trkpt lat="45.27995" lon="6.17198">
        <ele>1715.8000488281</ele>
        <time>2012-02-05T08:58:03.000Z</time>
      </trkpt>
      <trkpt lat="45.27997" lon="6.1719">
        <ele>1717.1999511719</ele>
        <time>2012-02-05T08:58:12.000Z</time>
      </trkpt>
      <trkpt lat="45.28" lon="6.1718">
        <ele>1718.4000244141</ele>
        <time>2012-02-05T08:58:22.000Z</time>
      </trkpt>
      <trkpt lat="45.28004" lon="6.17173">
        <ele>1719.4000244141</ele>
        <time>2012-02-05T08:58:31.000Z</time>
      </trkpt>
      <trkpt lat="45.28005" lon="6.1717">
        <ele>1720.1999511719</ele>
        <time>2012-02-05T08:58:36.000Z</time>
      </trkpt>
      <trkpt lat="45.28008" lon="6.17163">
        <ele>1721.5999755859</ele>
        <time>2012-02-05T08:58:45.000Z</time>
      </trkpt>
      <trkpt lat="45.28011" lon="6.17154">
        <ele>1722</ele>
        <time>2012-02-05T08:59:00.000Z</time>
      </trkpt>
      <trkpt lat="45.28015" lon="6.17146">
        <ele>1723.4000244141</ele>
        <time>2012-02-05T08:59:10.000Z</time>
      </trkpt>
      <trkpt lat="45.28017" lon="6.1714">
        <ele>1724.5999755859</ele>
        <time>2012-02-05T08:59:17.000Z</time>
      </trkpt>
      <trkpt lat="45.28022" lon="6.17132">
        <ele>1725.8000488281</ele>
        <time>2012-02-05T08:59:27.000Z</time>
      </trkpt>
      <trkpt lat="45.28025" lon="6.17126">
        <ele>1726.8000488281</ele>
        <time>2012-02-05T08:59:35.000Z</time>
      </trkpt>
      <trkpt lat="45.28028" lon="6.17117">
        <ele>1728</ele>
        <time>2012-02-05T08:59:45.000Z</time>
      </trkpt>
      <trkpt lat="45.28031" lon="6.1711">
        <ele>1729.1999511719</ele>
        <time>2012-02-05T08:59:54.000Z</time>
      </trkpt>
      <trkpt lat="45.28034" lon="6.17102">
        <ele>1730.5999755859</ele>
        <time>2012-02-05T09:00:03.000Z</time>
      </trkpt>
      <trkpt lat="45.28036" lon="6.17097">
        <ele>1732.4000244141</ele>
        <time>2012-02-05T09:00:12.000Z</time>
      </trkpt>
      <trkpt lat="45.28038" lon="6.1709">
        <ele>1733</ele>
        <time>2012-02-05T09:00:24.000Z</time>
      </trkpt>
      <trkpt lat="45.28039" lon="6.1708">
        <ele>1734.5999755859</ele>
        <time>2012-02-05T09:00:33.000Z</time>
      </trkpt>
      <trkpt lat="45.28042" lon="6.17071">
        <ele>1736</ele>
        <time>2012-02-05T09:00:42.000Z</time>
      </trkpt>
      <trkpt lat="45.28044" lon="6.17064">
        <ele>1737</ele>
        <time>2012-02-05T09:00:50.000Z</time>
      </trkpt>
      <trkpt lat="45.28046" lon="6.17055">
        <ele>1738.1999511719</ele>
        <time>2012-02-05T09:01:00.000Z</time>
      </trkpt>
      <trkpt lat="45.28048" lon="6.17046">
        <ele>1739.4000244141</ele>
        <time>2012-02-05T09:01:09.000Z</time>
      </trkpt>
      <trkpt lat="45.2805" lon="6.17035">
        <ele>1740.5999755859</ele>
        <time>2012-02-05T09:01:20.000Z</time>
      </trkpt>
      <trkpt lat="45.28051" lon="6.17026">
        <ele>1742.1999511719</ele>
        <time>2012-02-05T09:01:30.000Z</time>
      </trkpt>
      <trkpt lat="45.28052" lon="6.17019">
        <ele>1743.4000244141</ele>
        <time>2012-02-05T09:01:37.000Z</time>
      </trkpt>
      <trkpt lat="45.28053" lon="6.1701">
        <ele>1745</ele>
        <time>2012-02-05T09:01:46.000Z</time>
      </trkpt>
      <trkpt lat="45.28054" lon="6.16998">
        <ele>1746.8000488281</ele>
        <time>2012-02-05T09:01:57.000Z</time>
      </trkpt>
      <trkpt lat="45.28055" lon="6.16993">
        <ele>1747.8000488281</ele>
        <time>2012-02-05T09:02:03.000Z</time>
      </trkpt>
      <trkpt lat="45.28056" lon="6.16983">
        <ele>1749.5999755859</ele>
        <time>2012-02-05T09:02:15.000Z</time>
      </trkpt>
      <trkpt lat="45.28057" lon="6.16975">
        <ele>1751.1999511719</ele>
        <time>2012-02-05T09:02:24.000Z</time>
      </trkpt>
      <trkpt lat="45.28059" lon="6.16968">
        <ele>1753</ele>
        <time>2012-02-05T09:02:33.000Z</time>
      </trkpt>
      <trkpt lat="45.28061" lon="6.1696">
        <ele>1754.4000244141</ele>
        <time>2012-02-05T09:02:42.000Z</time>
      </trkpt>
      <trkpt lat="45.28063" lon="6.16951">
        <ele>1756</ele>
        <time>2012-02-05T09:02:51.000Z</time>
      </trkpt>
      <trkpt lat="45.28064" lon="6.16945">
        <ele>1757.1999511719</ele>
        <time>2012-02-05T09:02:58.000Z</time>
      </trkpt>
      <trkpt lat="45.28067" lon="6.16937">
        <ele>1759</ele>
        <time>2012-02-05T09:03:09.000Z</time>
      </trkpt>
      <trkpt lat="45.28069" lon="6.16932">
        <ele>1760.1999511719</ele>
        <time>2012-02-05T09:03:16.000Z</time>
      </trkpt>
      <trkpt lat="45.28071" lon="6.16925">
        <ele>1762</ele>
        <time>2012-02-05T09:03:25.000Z</time>
      </trkpt>
      <trkpt lat="45.28073" lon="6.16919">
        <ele>1763.4000244141</ele>
        <time>2012-02-05T09:03:33.000Z</time>
      </trkpt>
      <trkpt lat="45.28076" lon="6.16913">
        <ele>1765.4000244141</ele>
        <time>2012-02-05T09:03:42.000Z</time>
      </trkpt>
      <trkpt lat="45.28077" lon="6.16904">
        <ele>1766.1999511719</ele>
        <time>2012-02-05T09:03:51.000Z</time>
      </trkpt>
      <trkpt lat="45.28078" lon="6.16894">
        <ele>1768</ele>
        <time>2012-02-05T09:04:01.000Z</time>
      </trkpt>
      <trkpt lat="45.2808" lon="6.16886">
        <ele>1769.8000488281</ele>
        <time>2012-02-05T09:04:11.000Z</time>
      </trkpt>
      <trkpt lat="45.28083" lon="6.16878">
        <ele>1771.8000488281</ele>
        <time>2012-02-05T09:04:22.000Z</time>
      </trkpt>
      <trkpt lat="45.28087" lon="6.16871">
        <ele>1773.8000488281</ele>
        <time>2012-02-05T09:04:33.000Z</time>
      </trkpt>
      <trkpt lat="45.2809" lon="6.16864">
        <ele>1775.1999511719</ele>
        <time>2012-02-05T09:04:42.000Z</time>
      </trkpt>
      <trkpt lat="45.28094" lon="6.16855">
        <ele>1777</ele>
        <time>2012-02-05T09:04:53.000Z</time>
      </trkpt>
      <trkpt lat="45.28097" lon="6.16849">
        <ele>1778.8000488281</ele>
        <time>2012-02-05T09:05:01.000Z</time>
      </trkpt>
      <trkpt lat="45.281" lon="6.16843">
        <ele>1780.4000244141</ele>
        <time>2012-02-05T09:05:10.000Z</time>
      </trkpt>
      <trkpt lat="45.28103" lon="6.16839">
        <ele>1781.8000488281</ele>
        <time>2012-02-05T09:05:19.000Z</time>
      </trkpt>
      <trkpt lat="45.28106" lon="6.16833">
        <ele>1783</ele>
        <time>2012-02-05T09:05:27.000Z</time>
      </trkpt>
      <trkpt lat="45.28108" lon="6.16827">
        <ele>1784.5999755859</ele>
        <time>2012-02-05T09:05:36.000Z</time>
      </trkpt>
      <trkpt lat="45.28112" lon="6.16819">
        <ele>1786.4000244141</ele>
        <time>2012-02-05T09:05:46.000Z</time>
      </trkpt>
      <trkpt lat="45.28115" lon="6.16812">
        <ele>1788</ele>
        <time>2012-02-05T09:05:55.000Z</time>
      </trkpt>
      <trkpt lat="45.28117" lon="6.16806">
        <ele>1789.5999755859</ele>
        <time>2012-02-05T09:06:03.000Z</time>
      </trkpt>
      <trkpt lat="45.28119" lon="6.16797">
        <ele>1791</ele>
        <time>2012-02-05T09:06:12.000Z</time>
      </trkpt>
      <trkpt lat="45.28119" lon="6.16788">
        <ele>1792.1999511719</ele>
        <time>2012-02-05T09:06:20.000Z</time>
      </trkpt>
      <trkpt lat="45.28117" lon="6.16781">
        <ele>1793.1999511719</ele>
        <time>2012-02-05T09:06:27.000Z</time>
      </trkpt>
      <trkpt lat="45.28116" lon="6.16776">
        <ele>1794.1999511719</ele>
        <time>2012-02-05T09:06:33.000Z</time>
      </trkpt>
      <trkpt lat="45.28114" lon="6.16766">
        <ele>1795.5999755859</ele>
        <time>2012-02-05T09:06:43.000Z</time>
      </trkpt>
      <trkpt lat="45.28112" lon="6.1676">
        <ele>1796.5999755859</ele>
        <time>2012-02-05T09:06:50.000Z</time>
      </trkpt>
      <trkpt lat="45.28111" lon="6.16751">
        <ele>1797.8000488281</ele>
        <time>2012-02-05T09:07:01.000Z</time>
      </trkpt>
      <trkpt lat="45.28111" lon="6.16742">
        <ele>1799.1999511719</ele>
        <time>2012-02-05T09:07:10.000Z</time>
      </trkpt>
      <trkpt lat="45.2811" lon="6.16733">
        <ele>1800.1999511719</ele>
        <time>2012-02-05T09:07:19.000Z</time>
      </trkpt>
      <trkpt lat="45.28108" lon="6.16725">
        <ele>1801.5999755859</ele>
        <time>2012-02-05T09:07:27.000Z</time>
      </trkpt>
      <trkpt lat="45.28106" lon="6.16719">
        <ele>1802.4000244141</ele>
        <time>2012-02-05T09:07:35.000Z</time>
      </trkpt>
      <trkpt lat="45.28105" lon="6.16714">
        <ele>1802.8000488281</ele>
        <time>2012-02-05T09:07:43.000Z</time>
      </trkpt>
      <trkpt lat="45.28104" lon="6.16703">
        <ele>1803.8000488281</ele>
        <time>2012-02-05T09:07:53.000Z</time>
      </trkpt>
      <trkpt lat="45.28103" lon="6.16693">
        <ele>1805</ele>
        <time>2012-02-05T09:08:02.000Z</time>
      </trkpt>
      <trkpt lat="45.28103" lon="6.16685">
        <ele>1806.1999511719</ele>
        <time>2012-02-05T09:08:10.000Z</time>
      </trkpt>
      <trkpt lat="45.28102" lon="6.16676">
        <ele>1807.5999755859</ele>
        <time>2012-02-05T09:08:19.000Z</time>
      </trkpt>
      <trkpt lat="45.28099" lon="6.16666">
        <ele>1808.5999755859</ele>
        <time>2012-02-05T09:08:28.000Z</time>
      </trkpt>
      <trkpt lat="45.28097" lon="6.16659">
        <ele>1809.4000244141</ele>
        <time>2012-02-05T09:08:36.000Z</time>
      </trkpt>
      <trkpt lat="45.28096" lon="6.16649">
        <ele>1810.4000244141</ele>
        <time>2012-02-05T09:08:46.000Z</time>
      </trkpt>
      <trkpt lat="45.28094" lon="6.1664">
        <ele>1812.4000244141</ele>
        <time>2012-02-05T09:08:57.000Z</time>
      </trkpt>
      <trkpt lat="45.28093" lon="6.16632">
        <ele>1813.5999755859</ele>
        <time>2012-02-05T09:09:06.000Z</time>
      </trkpt>
      <trkpt lat="45.28093" lon="6.16624">
        <ele>1814.5999755859</ele>
        <time>2012-02-05T09:09:13.000Z</time>
      </trkpt>
      <trkpt lat="45.28093" lon="6.16623">
        <ele>1814.5999755859</ele>
        <time>2012-02-05T09:09:14.000Z</time>
      </trkpt>
      <trkpt lat="45.28095" lon="6.16608">
        <ele>1815</ele>
        <time>2012-02-05T09:09:25.000Z</time>
      </trkpt>
      <trkpt lat="45.28097" lon="6.16598">
        <ele>1815.4000244141</ele>
        <time>2012-02-05T09:09:34.000Z</time>
      </trkpt>
      <trkpt lat="45.28099" lon="6.16593">
        <ele>1816</ele>
        <time>2012-02-05T09:09:41.000Z</time>
      </trkpt>
      <trkpt lat="45.281" lon="6.16585">
        <ele>1815.5999755859</ele>
        <time>2012-02-05T09:10:14.000Z</time>
      </trkpt>
      <trkpt lat="45.28101" lon="6.16577">
        <ele>1815.8000488281</ele>
        <time>2012-02-05T09:10:21.000Z</time>
      </trkpt>
      <trkpt lat="45.28104" lon="6.16565">
        <ele>1815.8000488281</ele>
        <time>2012-02-05T09:10:30.000Z</time>
      </trkpt>
      <trkpt lat="45.28104" lon="6.16563">
        <ele>1816.1999511719</ele>
        <time>2012-02-05T09:10:37.000Z</time>
      </trkpt>
      <trkpt lat="45.28109" lon="6.16561">
        <ele>1814.5999755859</ele>
        <time>2012-02-05T09:11:24.000Z</time>
      </trkpt>
      <trkpt lat="45.28109" lon="6.16559">
        <ele>1813.4000244141</ele>
        <time>2012-02-05T09:12:41.000Z</time>
      </trkpt>
      <trkpt lat="45.28105" lon="6.16563">
        <ele>1812.8000488281</ele>
        <time>2012-02-05T09:14:16.000Z</time>
      </trkpt>
      <trkpt lat="45.28109" lon="6.16561">
        <ele>1812.1999511719</ele>
        <time>2012-02-05T09:15:59.000Z</time>
      </trkpt>
      <trkpt lat="45.2811" lon="6.16561">
        <ele>1812</ele>
        <time>2012-02-05T09:16:19.000Z</time>
      </trkpt>
      <trkpt lat="45.28106" lon="6.16555">
        <ele>1808.4000244141</ele>
        <time>2012-02-05T09:21:00.000Z</time>
      </trkpt>
      <trkpt lat="45.28109" lon="6.16548">
        <ele>1808.5999755859</ele>
        <time>2012-02-05T09:21:08.000Z</time>
      </trkpt>
      <trkpt lat="45.2811" lon="6.16539">
        <ele>1809</ele>
        <time>2012-02-05T09:21:17.000Z</time>
      </trkpt>
      <trkpt lat="45.28112" lon="6.1653">
        <ele>1809.8000488281</ele>
        <time>2012-02-05T09:21:27.000Z</time>
      </trkpt>
      <trkpt lat="45.28113" lon="6.1652">
        <ele>1810.8000488281</ele>
        <time>2012-02-05T09:21:37.000Z</time>
      </trkpt>
      <trkpt lat="45.28116" lon="6.16513">
        <ele>1811</ele>
        <time>2012-02-05T09:21:43.000Z</time>
      </trkpt>
      <trkpt lat="45.28117" lon="6.16505">
        <ele>1812.1999511719</ele>
        <time>2012-02-05T09:21:51.000Z</time>
      </trkpt>
      <trkpt lat="45.28118" lon="6.16495">
        <ele>1814.1999511719</ele>
        <time>2012-02-05T09:22:02.000Z</time>
      </trkpt>
      <trkpt lat="45.2812" lon="6.16488">
        <ele>1815.8000488281</ele>
        <time>2012-02-05T09:22:11.000Z</time>
      </trkpt>
      <trkpt lat="45.28121" lon="6.16479">
        <ele>1817.5999755859</ele>
        <time>2012-02-05T09:22:20.000Z</time>
      </trkpt>
      <trkpt lat="45.28124" lon="6.1647">
        <ele>1818.8000488281</ele>
        <time>2012-02-05T09:22:29.000Z</time>
      </trkpt>
      <trkpt lat="45.28126" lon="6.16464">
        <ele>1819.5999755859</ele>
        <time>2012-02-05T09:22:38.000Z</time>
      </trkpt>
      <trkpt lat="45.28128" lon="6.16456">
        <ele>1820.8000488281</ele>
        <time>2012-02-05T09:22:47.000Z</time>
      </trkpt>
      <trkpt lat="45.2813" lon="6.16451">
        <ele>1821.8000488281</ele>
        <time>2012-02-05T09:22:55.000Z</time>
      </trkpt>
      <trkpt lat="45.28131" lon="6.1644">
        <ele>1821.8000488281</ele>
        <time>2012-02-05T09:23:03.000Z</time>
      </trkpt>
      <trkpt lat="45.28133" lon="6.1643">
        <ele>1823</ele>
        <time>2012-02-05T09:23:13.000Z</time>
      </trkpt>
      <trkpt lat="45.28137" lon="6.16419">
        <ele>1823.1999511719</ele>
        <time>2012-02-05T09:23:26.000Z</time>
      </trkpt>
      <trkpt lat="45.28139" lon="6.16411">
        <ele>1823.1999511719</ele>
        <time>2012-02-05T09:23:34.000Z</time>
      </trkpt>
      <trkpt lat="45.28141" lon="6.16406">
        <ele>1824</ele>
        <time>2012-02-05T09:23:42.000Z</time>
      </trkpt>
      <trkpt lat="45.28143" lon="6.16402">
        <ele>1824.5999755859</ele>
        <time>2012-02-05T09:23:50.000Z</time>
      </trkpt>
      <trkpt lat="45.28144" lon="6.16398">
        <ele>1825.4000244141</ele>
        <time>2012-02-05T09:23:58.000Z</time>
      </trkpt>
      <trkpt lat="45.28143" lon="6.16394">
        <ele>1825.4000244141</ele>
        <time>2012-02-05T09:24:07.000Z</time>
      </trkpt>
      <trkpt lat="45.28143" lon="6.16401">
        <ele>1825.4000244141</ele>
        <time>2012-02-05T09:24:19.000Z</time>
      </trkpt>
      <trkpt lat="45.28145" lon="6.16405">
        <ele>1825</ele>
        <time>2012-02-05T09:24:45.000Z</time>
      </trkpt>
      <trkpt lat="45.28141" lon="6.16397">
        <ele>1825</ele>
        <time>2012-02-05T09:25:06.000Z</time>
      </trkpt>
      <trkpt lat="45.28136" lon="6.16395">
        <ele>1824.4000244141</ele>
        <time>2012-02-05T09:25:57.000Z</time>
      </trkpt>
      <trkpt lat="45.2814" lon="6.16398">
        <ele>1824.5999755859</ele>
        <time>2012-02-05T09:26:06.000Z</time>
      </trkpt>
      <trkpt lat="45.28148" lon="6.16393">
        <ele>1824.8000488281</ele>
        <time>2012-02-05T09:26:15.000Z</time>
      </trkpt>
      <trkpt lat="45.28153" lon="6.16384">
        <ele>1825.4000244141</ele>
        <time>2012-02-05T09:26:23.000Z</time>
      </trkpt>
      <trkpt lat="45.28156" lon="6.16371">
        <ele>1825.8000488281</ele>
        <time>2012-02-05T09:26:32.000Z</time>
      </trkpt>
      <trkpt lat="45.28156" lon="6.16361">
        <ele>1826</ele>
        <time>2012-02-05T09:26:39.000Z</time>
      </trkpt>
      <trkpt lat="45.28156" lon="6.16356">
        <ele>1826.8000488281</ele>
        <time>2012-02-05T09:26:45.000Z</time>
      </trkpt>
      <trkpt lat="45.28156" lon="6.16348">
        <ele>1827.8000488281</ele>
        <time>2012-02-05T09:26:53.000Z</time>
      </trkpt>
      <trkpt lat="45.28155" lon="6.1634">
        <ele>1829</ele>
        <time>2012-02-05T09:27:00.000Z</time>
      </trkpt>
      <trkpt lat="45.28158" lon="6.16335">
        <ele>1830.1999511719</ele>
        <time>2012-02-05T09:27:08.000Z</time>
      </trkpt>
      <trkpt lat="45.28158" lon="6.16325">
        <ele>1831.1999511719</ele>
        <time>2012-02-05T09:27:15.000Z</time>
      </trkpt>
      <trkpt lat="45.2816" lon="6.16317">
        <ele>1832.1999511719</ele>
        <time>2012-02-05T09:27:23.000Z</time>
      </trkpt>
      <trkpt lat="45.28161" lon="6.16309">
        <ele>1833.4000244141</ele>
        <time>2012-02-05T09:27:31.000Z</time>
      </trkpt>
      <trkpt lat="45.28162" lon="6.16306">
        <ele>1834.4000244141</ele>
        <time>2012-02-05T09:27:37.000Z</time>
      </trkpt>
      <trkpt lat="45.28167" lon="6.16307">
        <ele>1835.4000244141</ele>
        <time>2012-02-05T09:27:45.000Z</time>
      </trkpt>
      <trkpt lat="45.2817" lon="6.16308">
        <ele>1836.4000244141</ele>
        <time>2012-02-05T09:27:51.000Z</time>
      </trkpt>
      <trkpt lat="45.28171" lon="6.16299">
        <ele>1837.8000488281</ele>
        <time>2012-02-05T09:28:03.000Z</time>
      </trkpt>
      <trkpt lat="45.28171" lon="6.16291">
        <ele>1839.1999511719</ele>
        <time>2012-02-05T09:28:10.000Z</time>
      </trkpt>
      <trkpt lat="45.28169" lon="6.16283">
        <ele>1840.4000244141</ele>
        <time>2012-02-05T09:28:17.000Z</time>
      </trkpt>
      <trkpt lat="45.28167" lon="6.16277">
        <ele>1841.1999511719</ele>
        <time>2012-02-05T09:28:23.000Z</time>
      </trkpt>
      <trkpt lat="45.28166" lon="6.16276">
        <ele>1843.4000244141</ele>
        <time>2012-02-05T09:28:32.000Z</time>
      </trkpt>
      <trkpt lat="45.28165" lon="6.16268">
        <ele>1845</ele>
        <time>2012-02-05T09:28:41.000Z</time>
      </trkpt>
      <trkpt lat="45.28164" lon="6.16261">
        <ele>1846.1999511719</ele>
        <time>2012-02-05T09:28:48.000Z</time>
      </trkpt>
      <trkpt lat="45.28163" lon="6.16255">
        <ele>1848</ele>
        <time>2012-02-05T09:28:57.000Z</time>
      </trkpt>
      <trkpt lat="45.28163" lon="6.16249">
        <ele>1849.4000244141</ele>
        <time>2012-02-05T09:29:09.000Z</time>
      </trkpt>
      <trkpt lat="45.28164" lon="6.16249">
        <ele>1849.4000244141</ele>
        <time>2012-02-05T09:29:10.000Z</time>
      </trkpt>
      <trkpt lat="45.28168" lon="6.16253">
        <ele>1850.5999755859</ele>
        <time>2012-02-05T09:29:16.000Z</time>
      </trkpt>
      <trkpt lat="45.28174" lon="6.16254">
        <ele>1851.8000488281</ele>
        <time>2012-02-05T09:29:24.000Z</time>
      </trkpt>
      <trkpt lat="45.28178" lon="6.16253">
        <ele>1853.1999511719</ele>
        <time>2012-02-05T09:29:31.000Z</time>
      </trkpt>
      <trkpt lat="45.28185" lon="6.16253">
        <ele>1855.1999511719</ele>
        <time>2012-02-05T09:29:43.000Z</time>
      </trkpt>
      <trkpt lat="45.28192" lon="6.16253">
        <ele>1856.8000488281</ele>
        <time>2012-02-05T09:29:52.000Z</time>
      </trkpt>
      <trkpt lat="45.28193" lon="6.16254">
        <ele>1858</ele>
        <time>2012-02-05T09:29:58.000Z</time>
      </trkpt>
      <trkpt lat="45.28198" lon="6.16255">
        <ele>1859.1999511719</ele>
        <time>2012-02-05T09:30:06.000Z</time>
      </trkpt>
      <trkpt lat="45.28205" lon="6.16255">
        <ele>1860.5999755859</ele>
        <time>2012-02-05T09:30:14.000Z</time>
      </trkpt>
      <trkpt lat="45.28206" lon="6.16249">
        <ele>1862</ele>
        <time>2012-02-05T09:30:23.000Z</time>
      </trkpt>
      <trkpt lat="45.28203" lon="6.16239">
        <ele>1863.5999755859</ele>
        <time>2012-02-05T09:30:33.000Z</time>
      </trkpt>
      <trkpt lat="45.28202" lon="6.16231">
        <ele>1864.5999755859</ele>
        <time>2012-02-05T09:30:40.000Z</time>
      </trkpt>
      <trkpt lat="45.28203" lon="6.16227">
        <ele>1865.8000488281</ele>
        <time>2012-02-05T09:30:47.000Z</time>
      </trkpt>
      <trkpt lat="45.28205" lon="6.16224">
        <ele>1866.8000488281</ele>
        <time>2012-02-05T09:30:52.000Z</time>
      </trkpt>
      <trkpt lat="45.28205" lon="6.16219">
        <ele>1868</ele>
        <time>2012-02-05T09:30:58.000Z</time>
      </trkpt>
      <trkpt lat="45.28205" lon="6.16211">
        <ele>1870.1999511719</ele>
        <time>2012-02-05T09:31:10.000Z</time>
      </trkpt>
      <trkpt lat="45.28205" lon="6.16205">
        <ele>1871.4000244141</ele>
        <time>2012-02-05T09:31:18.000Z</time>
      </trkpt>
      <trkpt lat="45.28203" lon="6.16197">
        <ele>1872.1999511719</ele>
        <time>2012-02-05T09:31:23.000Z</time>
      </trkpt>
      <trkpt lat="45.28206" lon="6.16193">
        <ele>1873.4000244141</ele>
        <time>2012-02-05T09:31:29.000Z</time>
      </trkpt>
      <trkpt lat="45.2821" lon="6.1619">
        <ele>1874.4000244141</ele>
        <time>2012-02-05T09:31:34.000Z</time>
      </trkpt>
      <trkpt lat="45.28213" lon="6.16188">
        <ele>1875.1999511719</ele>
        <time>2012-02-05T09:31:39.000Z</time>
      </trkpt>
      <trkpt lat="45.28217" lon="6.16186">
        <ele>1876.5999755859</ele>
        <time>2012-02-05T09:31:45.000Z</time>
      </trkpt>
      <trkpt lat="45.2822" lon="6.16183">
        <ele>1877.5999755859</ele>
        <time>2012-02-05T09:31:51.000Z</time>
      </trkpt>
      <trkpt lat="45.28222" lon="6.1618">
        <ele>1878.5999755859</ele>
        <time>2012-02-05T09:31:57.000Z</time>
      </trkpt>
      <trkpt lat="45.28225" lon="6.16178">
        <ele>1879.8000488281</ele>
        <time>2012-02-05T09:32:03.000Z</time>
      </trkpt>
      <trkpt lat="45.28228" lon="6.16175">
        <ele>1881</ele>
        <time>2012-02-05T09:32:09.000Z</time>
      </trkpt>
      <trkpt lat="45.2823" lon="6.16174">
        <ele>1881.8000488281</ele>
        <time>2012-02-05T09:32:14.000Z</time>
      </trkpt>
      <trkpt lat="45.28235" lon="6.16173">
        <ele>1882.8000488281</ele>
        <time>2012-02-05T09:32:19.000Z</time>
      </trkpt>
      <trkpt lat="45.28239" lon="6.1617">
        <ele>1884.4000244141</ele>
        <time>2012-02-05T09:32:27.000Z</time>
      </trkpt>
      <trkpt lat="45.28239" lon="6.16162">
        <ele>1885.5999755859</ele>
        <time>2012-02-05T09:32:34.000Z</time>
      </trkpt>
      <trkpt lat="45.28238" lon="6.16157">
        <ele>1886.4000244141</ele>
        <time>2012-02-05T09:32:39.000Z</time>
      </trkpt>
      <trkpt lat="45.28238" lon="6.16152">
        <ele>1887.5999755859</ele>
        <time>2012-02-05T09:32:45.000Z</time>
      </trkpt>
      <trkpt lat="45.2824" lon="6.16149">
        <ele>1888.5999755859</ele>
        <time>2012-02-05T09:32:51.000Z</time>
      </trkpt>
      <trkpt lat="45.28243" lon="6.16147">
        <ele>1889.4000244141</ele>
        <time>2012-02-05T09:32:57.000Z</time>
      </trkpt>
      <trkpt lat="45.28245" lon="6.16144">
        <ele>1890.4000244141</ele>
        <time>2012-02-05T09:33:03.000Z</time>
      </trkpt>
      <trkpt lat="45.2825" lon="6.16138">
        <ele>1892.1999511719</ele>
        <time>2012-02-05T09:33:13.000Z</time>
      </trkpt>
      <trkpt lat="45.28254" lon="6.16132">
        <ele>1893.5999755859</ele>
        <time>2012-02-05T09:33:22.000Z</time>
      </trkpt>
      <trkpt lat="45.28258" lon="6.16129">
        <ele>1895</ele>
        <time>2012-02-05T09:33:29.000Z</time>
      </trkpt>
      <trkpt lat="45.2826" lon="6.16128">
        <ele>1895.8000488281</ele>
        <time>2012-02-05T09:33:34.000Z</time>
      </trkpt>
      <trkpt lat="45.28266" lon="6.16126">
        <ele>1897.4000244141</ele>
        <time>2012-02-05T09:33:42.000Z</time>
      </trkpt>
      <trkpt lat="45.28273" lon="6.16129">
        <ele>1899.5999755859</ele>
        <time>2012-02-05T09:33:53.000Z</time>
      </trkpt>
      <trkpt lat="45.28278" lon="6.16129">
        <ele>1900.8000488281</ele>
        <time>2012-02-05T09:34:01.000Z</time>
      </trkpt>
      <trkpt lat="45.28275" lon="6.16124">
        <ele>1902.5999755859</ele>
        <time>2012-02-05T09:34:12.000Z</time>
      </trkpt>
      <trkpt lat="45.28282" lon="6.16125">
        <ele>1904.1999511719</ele>
        <time>2012-02-05T09:34:22.000Z</time>
      </trkpt>
      <trkpt lat="45.28284" lon="6.16122">
        <ele>1905</ele>
        <time>2012-02-05T09:34:29.000Z</time>
      </trkpt>
      <trkpt lat="45.28288" lon="6.16113">
        <ele>1907.1999511719</ele>
        <time>2012-02-05T09:34:45.000Z</time>
      </trkpt>
      <trkpt lat="45.28288" lon="6.16109">
        <ele>1908.1999511719</ele>
        <time>2012-02-05T09:34:50.000Z</time>
      </trkpt>
      <trkpt lat="45.28292" lon="6.16108">
        <ele>1909.4000244141</ele>
        <time>2012-02-05T09:34:56.000Z</time>
      </trkpt>
      <trkpt lat="45.28296" lon="6.16107">
        <ele>1910.4000244141</ele>
        <time>2012-02-05T09:35:02.000Z</time>
      </trkpt>
      <trkpt lat="45.283" lon="6.16108">
        <ele>1911.8000488281</ele>
        <time>2012-02-05T09:35:09.000Z</time>
      </trkpt>
      <trkpt lat="45.28302" lon="6.16102">
        <ele>1913.8000488281</ele>
        <time>2012-02-05T09:35:20.000Z</time>
      </trkpt>
      <trkpt lat="45.28303" lon="6.161">
        <ele>1914.5999755859</ele>
        <time>2012-02-05T09:35:25.000Z</time>
      </trkpt>
      <trkpt lat="45.28302" lon="6.16095">
        <ele>1915.4000244141</ele>
        <time>2012-02-05T09:35:32.000Z</time>
      </trkpt>
      <trkpt lat="45.28303" lon="6.1609">
        <ele>1916.5999755859</ele>
        <time>2012-02-05T09:35:38.000Z</time>
      </trkpt>
      <trkpt lat="45.28305" lon="6.16084">
        <ele>1917.5999755859</ele>
        <time>2012-02-05T09:35:45.000Z</time>
      </trkpt>
      <trkpt lat="45.28306" lon="6.1608">
        <ele>1918.8000488281</ele>
        <time>2012-02-05T09:35:51.000Z</time>
      </trkpt>
      <trkpt lat="45.28306" lon="6.16075">
        <ele>1920</ele>
        <time>2012-02-05T09:35:57.000Z</time>
      </trkpt>
      <trkpt lat="45.28307" lon="6.16073">
        <ele>1920.5999755859</ele>
        <time>2012-02-05T09:36:02.000Z</time>
      </trkpt>
      <trkpt lat="45.2831" lon="6.1607">
        <ele>1921.4000244141</ele>
        <time>2012-02-05T09:36:07.000Z</time>
      </trkpt>
      <trkpt lat="45.28318" lon="6.16065">
        <ele>1922.5999755859</ele>
        <time>2012-02-05T09:36:15.000Z</time>
      </trkpt>
      <trkpt lat="45.28321" lon="6.16062">
        <ele>1923.8000488281</ele>
        <time>2012-02-05T09:36:22.000Z</time>
      </trkpt>
      <trkpt lat="45.28322" lon="6.16058">
        <ele>1924.8000488281</ele>
        <time>2012-02-05T09:36:29.000Z</time>
      </trkpt>
      <trkpt lat="45.28324" lon="6.16055">
        <ele>1925.8000488281</ele>
        <time>2012-02-05T09:36:34.000Z</time>
      </trkpt>
      <trkpt lat="45.28327" lon="6.16052">
        <ele>1926.5999755859</ele>
        <time>2012-02-05T09:36:40.000Z</time>
      </trkpt>
      <trkpt lat="45.2833" lon="6.16051">
        <ele>1927.4000244141</ele>
        <time>2012-02-05T09:36:46.000Z</time>
      </trkpt>
      <trkpt lat="45.28332" lon="6.16048">
        <ele>1929</ele>
        <time>2012-02-05T09:36:53.000Z</time>
      </trkpt>
      <trkpt lat="45.28332" lon="6.16042">
        <ele>1930.1999511719</ele>
        <time>2012-02-05T09:37:01.000Z</time>
      </trkpt>
      <trkpt lat="45.28335" lon="6.16042">
        <ele>1931</ele>
        <time>2012-02-05T09:37:07.000Z</time>
      </trkpt>
      <trkpt lat="45.28343" lon="6.1604">
        <ele>1932.1999511719</ele>
        <time>2012-02-05T09:37:16.000Z</time>
      </trkpt>
      <trkpt lat="45.28346" lon="6.16034">
        <ele>1934</ele>
        <time>2012-02-05T09:37:26.000Z</time>
      </trkpt>
      <trkpt lat="45.28344" lon="6.1603">
        <ele>1934.8000488281</ele>
        <time>2012-02-05T09:37:31.000Z</time>
      </trkpt>
      <trkpt lat="45.28342" lon="6.16024">
        <ele>1935.8000488281</ele>
        <time>2012-02-05T09:37:38.000Z</time>
      </trkpt>
      <trkpt lat="45.28342" lon="6.16019">
        <ele>1937</ele>
        <time>2012-02-05T09:37:46.000Z</time>
      </trkpt>
      <trkpt lat="45.28341" lon="6.16012">
        <ele>1938.1999511719</ele>
        <time>2012-02-05T09:37:54.000Z</time>
      </trkpt>
      <trkpt lat="45.2834" lon="6.16007">
        <ele>1939.4000244141</ele>
        <time>2012-02-05T09:38:05.000Z</time>
      </trkpt>
      <trkpt lat="45.28339" lon="6.16002">
        <ele>1941</ele>
        <time>2012-02-05T09:38:16.000Z</time>
      </trkpt>
      <trkpt lat="45.28339" lon="6.15998">
        <ele>1941.8000488281</ele>
        <time>2012-02-05T09:38:21.000Z</time>
      </trkpt>
      <trkpt lat="45.28339" lon="6.15982">
        <ele>1944.8000488281</ele>
        <time>2012-02-05T09:38:43.000Z</time>
      </trkpt>
      <trkpt lat="45.28338" lon="6.15973">
        <ele>1946.4000244141</ele>
        <time>2012-02-05T09:38:55.000Z</time>
      </trkpt>
      <trkpt lat="45.28337" lon="6.15968">
        <ele>1947.4000244141</ele>
        <time>2012-02-05T09:39:01.000Z</time>
      </trkpt>
      <trkpt lat="45.28336" lon="6.15963">
        <ele>1948.1999511719</ele>
        <time>2012-02-05T09:39:07.000Z</time>
      </trkpt>
      <trkpt lat="45.28336" lon="6.15959">
        <ele>1949.4000244141</ele>
        <time>2012-02-05T09:39:14.000Z</time>
      </trkpt>
      <trkpt lat="45.28336" lon="6.1595">
        <ele>1951.5999755859</ele>
        <time>2012-02-05T09:39:27.000Z</time>
      </trkpt>
      <trkpt lat="45.28334" lon="6.15946">
        <ele>1952.5999755859</ele>
        <time>2012-02-05T09:39:37.000Z</time>
      </trkpt>
      <trkpt lat="45.28334" lon="6.15942">
        <ele>1953.5999755859</ele>
        <time>2012-02-05T09:39:42.000Z</time>
      </trkpt>
      <trkpt lat="45.2834" lon="6.15939">
        <ele>1954.4000244141</ele>
        <time>2012-02-05T09:39:48.000Z</time>
      </trkpt>
      <trkpt lat="45.28348" lon="6.15934">
        <ele>1955.5999755859</ele>
        <time>2012-02-05T09:39:57.000Z</time>
      </trkpt>
      <trkpt lat="45.28351" lon="6.15931">
        <ele>1956.4000244141</ele>
        <time>2012-02-05T09:40:04.000Z</time>
      </trkpt>
      <trkpt lat="45.28351" lon="6.15931">
        <ele>1957</ele>
        <time>2012-02-05T09:40:09.000Z</time>
      </trkpt>
      <trkpt lat="45.28355" lon="6.1593">
        <ele>1958</ele>
        <time>2012-02-05T09:40:15.000Z</time>
      </trkpt>
      <trkpt lat="45.28361" lon="6.15932">
        <ele>1959.4000244141</ele>
        <time>2012-02-05T09:40:24.000Z</time>
      </trkpt>
      <trkpt lat="45.28366" lon="6.15931">
        <ele>1960.1999511719</ele>
        <time>2012-02-05T09:40:30.000Z</time>
      </trkpt>
      <trkpt lat="45.2837" lon="6.15931">
        <ele>1961.1999511719</ele>
        <time>2012-02-05T09:40:36.000Z</time>
      </trkpt>
      <trkpt lat="45.28374" lon="6.1593">
        <ele>1962</ele>
        <time>2012-02-05T09:40:42.000Z</time>
      </trkpt>
      <trkpt lat="45.28377" lon="6.15929">
        <ele>1962.5999755859</ele>
        <time>2012-02-05T09:40:48.000Z</time>
      </trkpt>
      <trkpt lat="45.28381" lon="6.15925">
        <ele>1964.1999511719</ele>
        <time>2012-02-05T09:41:00.000Z</time>
      </trkpt>
      <trkpt lat="45.28381" lon="6.15918">
        <ele>1965.1999511719</ele>
        <time>2012-02-05T09:41:08.000Z</time>
      </trkpt>
      <trkpt lat="45.28378" lon="6.15912">
        <ele>1966.8000488281</ele>
        <time>2012-02-05T09:41:17.000Z</time>
      </trkpt>
      <trkpt lat="45.28376" lon="6.15903">
        <ele>1967.8000488281</ele>
        <time>2012-02-05T09:41:28.000Z</time>
      </trkpt>
      <trkpt lat="45.28375" lon="6.159">
        <ele>1968.4000244141</ele>
        <time>2012-02-05T09:41:34.000Z</time>
      </trkpt>
      <trkpt lat="45.28376" lon="6.15892">
        <ele>1969.8000488281</ele>
        <time>2012-02-05T09:41:45.000Z</time>
      </trkpt>
      <trkpt lat="45.28377" lon="6.15879">
        <ele>1972.1999511719</ele>
        <time>2012-02-05T09:42:04.000Z</time>
      </trkpt>
      <trkpt lat="45.28378" lon="6.1587">
        <ele>1974.1999511719</ele>
        <time>2012-02-05T09:42:18.000Z</time>
      </trkpt>
      <trkpt lat="45.28378" lon="6.15865">
        <ele>1975.4000244141</ele>
        <time>2012-02-05T09:42:25.000Z</time>
      </trkpt>
      <trkpt lat="45.28377" lon="6.15857">
        <ele>1976.5999755859</ele>
        <time>2012-02-05T09:42:34.000Z</time>
      </trkpt>
      <trkpt lat="45.28379" lon="6.15853">
        <ele>1977.8000488281</ele>
        <time>2012-02-05T09:42:42.000Z</time>
      </trkpt>
      <trkpt lat="45.28379" lon="6.15848">
        <ele>1978.4000244141</ele>
        <time>2012-02-05T09:42:47.000Z</time>
      </trkpt>
      <trkpt lat="45.2838" lon="6.1584">
        <ele>1980.4000244141</ele>
        <time>2012-02-05T09:42:58.000Z</time>
      </trkpt>
      <trkpt lat="45.28381" lon="6.15837">
        <ele>1981.1999511719</ele>
        <time>2012-02-05T09:43:03.000Z</time>
      </trkpt>
      <trkpt lat="45.28382" lon="6.15835">
        <ele>1981.5999755859</ele>
        <time>2012-02-05T09:43:06.000Z</time>
      </trkpt>
      <trkpt lat="45.28381" lon="6.15825">
        <ele>1982.5999755859</ele>
        <time>2012-02-05T09:43:12.000Z</time>
      </trkpt>
      <trkpt lat="45.28385" lon="6.15819">
        <ele>1983.5999755859</ele>
        <time>2012-02-05T09:43:21.000Z</time>
      </trkpt>
      <trkpt lat="45.28385" lon="6.15812">
        <ele>1984.5999755859</ele>
        <time>2012-02-05T09:43:29.000Z</time>
      </trkpt>
      <trkpt lat="45.28385" lon="6.15806">
        <ele>1985.8000488281</ele>
        <time>2012-02-05T09:43:38.000Z</time>
      </trkpt>
      <trkpt lat="45.28388" lon="6.15803">
        <ele>1987</ele>
        <time>2012-02-05T09:43:45.000Z</time>
      </trkpt>
      <trkpt lat="45.28393" lon="6.15799">
        <ele>1988.1999511719</ele>
        <time>2012-02-05T09:43:52.000Z</time>
      </trkpt>
      <trkpt lat="45.28395" lon="6.15793">
        <ele>1989.1999511719</ele>
        <time>2012-02-05T09:43:59.000Z</time>
      </trkpt>
      <trkpt lat="45.28399" lon="6.15795">
        <ele>1989.4000244141</ele>
        <time>2012-02-05T09:44:11.000Z</time>
      </trkpt>
      <trkpt lat="45.28399" lon="6.15795">
        <ele>1989</ele>
        <time>2012-02-05T09:44:18.000Z</time>
      </trkpt>
      <trkpt lat="45.28399" lon="6.15799">
        <ele>1988.4000244141</ele>
        <time>2012-02-05T09:44:31.000Z</time>
      </trkpt>
      <trkpt lat="45.28396" lon="6.15795">
        <ele>1987.5999755859</ele>
        <time>2012-02-05T09:45:36.000Z</time>
      </trkpt>
      <trkpt lat="45.28396" lon="6.15794">
        <ele>1988.4000244141</ele>
        <time>2012-02-05T09:45:43.000Z</time>
      </trkpt>
      <trkpt lat="45.28393" lon="6.15792">
        <ele>1988.5999755859</ele>
        <time>2012-02-05T09:46:42.000Z</time>
      </trkpt>
      <trkpt lat="45.28392" lon="6.15785">
        <ele>1989.8000488281</ele>
        <time>2012-02-05T09:46:49.000Z</time>
      </trkpt>
      <trkpt lat="45.28397" lon="6.15781">
        <ele>1990.4000244141</ele>
        <time>2012-02-05T09:49:06.000Z</time>
      </trkpt>
      <trkpt lat="45.28399" lon="6.15776">
        <ele>1991.8000488281</ele>
        <time>2012-02-05T09:49:14.000Z</time>
      </trkpt>
      <trkpt lat="45.284" lon="6.15772">
        <ele>1993</ele>
        <time>2012-02-05T09:49:21.000Z</time>
      </trkpt>
      <trkpt lat="45.28402" lon="6.15767">
        <ele>1994.4000244141</ele>
        <time>2012-02-05T09:49:28.000Z</time>
      </trkpt>
      <trkpt lat="45.284" lon="6.15761">
        <ele>1996.1999511719</ele>
        <time>2012-02-05T09:49:37.000Z</time>
      </trkpt>
      <trkpt lat="45.28396" lon="6.15756">
        <ele>1997.4000244141</ele>
        <time>2012-02-05T09:49:45.000Z</time>
      </trkpt>
      <trkpt lat="45.28394" lon="6.15752">
        <ele>1998.4000244141</ele>
        <time>2012-02-05T09:49:51.000Z</time>
      </trkpt>
      <trkpt lat="45.28393" lon="6.15747">
        <ele>1999.5999755859</ele>
        <time>2012-02-05T09:49:58.000Z</time>
      </trkpt>
      <trkpt lat="45.28391" lon="6.15742">
        <ele>2000.1999511719</ele>
        <time>2012-02-05T09:50:03.000Z</time>
      </trkpt>
      <trkpt lat="45.2839" lon="6.15736">
        <ele>2001.1999511719</ele>
        <time>2012-02-05T09:50:10.000Z</time>
      </trkpt>
      <trkpt lat="45.28389" lon="6.15731">
        <ele>2002</ele>
        <time>2012-02-05T09:50:17.000Z</time>
      </trkpt>
      <trkpt lat="45.2839" lon="6.15729">
        <ele>2003</ele>
        <time>2012-02-05T09:50:22.000Z</time>
      </trkpt>
      <trkpt lat="45.28393" lon="6.15726">
        <ele>2003.8000488281</ele>
        <time>2012-02-05T09:50:28.000Z</time>
      </trkpt>
      <trkpt lat="45.28395" lon="6.15723">
        <ele>2005</ele>
        <time>2012-02-05T09:50:34.000Z</time>
      </trkpt>
      <trkpt lat="45.28395" lon="6.15719">
        <ele>2006</ele>
        <time>2012-02-05T09:50:41.000Z</time>
      </trkpt>
      <trkpt lat="45.28394" lon="6.15716">
        <ele>2007</ele>
        <time>2012-02-05T09:50:46.000Z</time>
      </trkpt>
      <trkpt lat="45.28394" lon="6.15711">
        <ele>2008.4000244141</ele>
        <time>2012-02-05T09:50:53.000Z</time>
      </trkpt>
      <trkpt lat="45.28394" lon="6.15704">
        <ele>2009.5999755859</ele>
        <time>2012-02-05T09:51:02.000Z</time>
      </trkpt>
      <trkpt lat="45.28393" lon="6.157">
        <ele>2010.5999755859</ele>
        <time>2012-02-05T09:51:08.000Z</time>
      </trkpt>
      <trkpt lat="45.28392" lon="6.15696">
        <ele>2011.5999755859</ele>
        <time>2012-02-05T09:51:14.000Z</time>
      </trkpt>
      <trkpt lat="45.2839" lon="6.15692">
        <ele>2012.4000244141</ele>
        <time>2012-02-05T09:51:19.000Z</time>
      </trkpt>
      <trkpt lat="45.28391" lon="6.15689">
        <ele>2013.4000244141</ele>
        <time>2012-02-05T09:51:24.000Z</time>
      </trkpt>
      <trkpt lat="45.28393" lon="6.15688">
        <ele>2014.1999511719</ele>
        <time>2012-02-05T09:51:30.000Z</time>
      </trkpt>
      <trkpt lat="45.28396" lon="6.15686">
        <ele>2015.4000244141</ele>
        <time>2012-02-05T09:51:36.000Z</time>
      </trkpt>
      <trkpt lat="45.284" lon="6.15684">
        <ele>2016.5999755859</ele>
        <time>2012-02-05T09:51:44.000Z</time>
      </trkpt>
      <trkpt lat="45.28403" lon="6.15683">
        <ele>2017.4000244141</ele>
        <time>2012-02-05T09:51:49.000Z</time>
      </trkpt>
      <trkpt lat="45.28405" lon="6.15681">
        <ele>2018.5999755859</ele>
        <time>2012-02-05T09:51:55.000Z</time>
      </trkpt>
      <trkpt lat="45.28408" lon="6.15679">
        <ele>2019.8000488281</ele>
        <time>2012-02-05T09:52:01.000Z</time>
      </trkpt>
      <trkpt lat="45.2841" lon="6.15679">
        <ele>2020.5999755859</ele>
        <time>2012-02-05T09:52:08.000Z</time>
      </trkpt>
      <trkpt lat="45.28411" lon="6.15678">
        <ele>2021</ele>
        <time>2012-02-05T09:52:12.000Z</time>
      </trkpt>
      <trkpt lat="45.2841" lon="6.15676">
        <ele>2021.4000244141</ele>
        <time>2012-02-05T09:52:17.000Z</time>
      </trkpt>
      <trkpt lat="45.28409" lon="6.15674">
        <ele>2022.5999755859</ele>
        <time>2012-02-05T09:52:22.000Z</time>
      </trkpt>
      <trkpt lat="45.28409" lon="6.15671">
        <ele>2023.8000488281</ele>
        <time>2012-02-05T09:52:28.000Z</time>
      </trkpt>
      <trkpt lat="45.28406" lon="6.15667">
        <ele>2024.8000488281</ele>
        <time>2012-02-05T09:52:34.000Z</time>
      </trkpt>
      <trkpt lat="45.28403" lon="6.15663">
        <ele>2026.1999511719</ele>
        <time>2012-02-05T09:52:43.000Z</time>
      </trkpt>
      <trkpt lat="45.28401" lon="6.15659">
        <ele>2027.1999511719</ele>
        <time>2012-02-05T09:52:50.000Z</time>
      </trkpt>
      <trkpt lat="45.284" lon="6.15656">
        <ele>2028</ele>
        <time>2012-02-05T09:52:55.000Z</time>
      </trkpt>
      <trkpt lat="45.28398" lon="6.1565">
        <ele>2029.4000244141</ele>
        <time>2012-02-05T09:53:02.000Z</time>
      </trkpt>
      <trkpt lat="45.28397" lon="6.15646">
        <ele>2030.5999755859</ele>
        <time>2012-02-05T09:53:09.000Z</time>
      </trkpt>
      <trkpt lat="45.28396" lon="6.15642">
        <ele>2031.4000244141</ele>
        <time>2012-02-05T09:53:15.000Z</time>
      </trkpt>
      <trkpt lat="45.28395" lon="6.15639">
        <ele>2032.5999755859</ele>
        <time>2012-02-05T09:53:21.000Z</time>
      </trkpt>
      <trkpt lat="45.28395" lon="6.15636">
        <ele>2033.4000244141</ele>
        <time>2012-02-05T09:53:26.000Z</time>
      </trkpt>
      <trkpt lat="45.28393" lon="6.15632">
        <ele>2034.5999755859</ele>
        <time>2012-02-05T09:53:33.000Z</time>
      </trkpt>
      <trkpt lat="45.28389" lon="6.15626">
        <ele>2035.8000488281</ele>
        <time>2012-02-05T09:53:41.000Z</time>
      </trkpt>
      <trkpt lat="45.28385" lon="6.1562">
        <ele>2037.1999511719</ele>
        <time>2012-02-05T09:53:49.000Z</time>
      </trkpt>
      <trkpt lat="45.28385" lon="6.15618">
        <ele>2037.5999755859</ele>
        <time>2012-02-05T09:53:54.000Z</time>
      </trkpt>
      <trkpt lat="45.28387" lon="6.15616">
        <ele>2038</ele>
        <time>2012-02-05T09:53:59.000Z</time>
      </trkpt>
      <trkpt lat="45.2839" lon="6.15613">
        <ele>2039.4000244141</ele>
        <time>2012-02-05T09:54:07.000Z</time>
      </trkpt>
      <trkpt lat="45.28393" lon="6.1561">
        <ele>2040.1999511719</ele>
        <time>2012-02-05T09:54:13.000Z</time>
      </trkpt>
      <trkpt lat="45.28394" lon="6.15607">
        <ele>2041.1999511719</ele>
        <time>2012-02-05T09:54:19.000Z</time>
      </trkpt>
      <trkpt lat="45.28397" lon="6.15602">
        <ele>2042.8000488281</ele>
        <time>2012-02-05T09:54:28.000Z</time>
      </trkpt>
      <trkpt lat="45.284" lon="6.15595">
        <ele>2044</ele>
        <time>2012-02-05T09:54:37.000Z</time>
      </trkpt>
      <trkpt lat="45.28402" lon="6.1559">
        <ele>2044.8000488281</ele>
        <time>2012-02-05T09:54:44.000Z</time>
      </trkpt>
      <trkpt lat="45.28405" lon="6.15586">
        <ele>2046.1999511719</ele>
        <time>2012-02-05T09:54:53.000Z</time>
      </trkpt>
      <trkpt lat="45.28407" lon="6.15585">
        <ele>2047.1999511719</ele>
        <time>2012-02-05T09:54:58.000Z</time>
      </trkpt>
      <trkpt lat="45.28412" lon="6.15584">
        <ele>2048.1999511719</ele>
        <time>2012-02-05T09:55:05.000Z</time>
      </trkpt>
      <trkpt lat="45.28416" lon="6.15584">
        <ele>2049.3999023438</ele>
        <time>2012-02-05T09:55:12.000Z</time>
      </trkpt>
      <trkpt lat="45.28418" lon="6.15584">
        <ele>2050</ele>
        <time>2012-02-05T09:55:17.000Z</time>
      </trkpt>
      <trkpt lat="45.28421" lon="6.15581">
        <ele>2051.6000976562</ele>
        <time>2012-02-05T09:55:26.000Z</time>
      </trkpt>
      <trkpt lat="45.28424" lon="6.15578">
        <ele>2052.8000488281</ele>
        <time>2012-02-05T09:55:33.000Z</time>
      </trkpt>
      <trkpt lat="45.28426" lon="6.15576">
        <ele>2053.6000976562</ele>
        <time>2012-02-05T09:55:39.000Z</time>
      </trkpt>
      <trkpt lat="45.28428" lon="6.15573">
        <ele>2054.8000488281</ele>
        <time>2012-02-05T09:55:45.000Z</time>
      </trkpt>
      <trkpt lat="45.28429" lon="6.15569">
        <ele>2055.8000488281</ele>
        <time>2012-02-05T09:55:51.000Z</time>
      </trkpt>
      <trkpt lat="45.28429" lon="6.15564">
        <ele>2057</ele>
        <time>2012-02-05T09:55:58.000Z</time>
      </trkpt>
      <trkpt lat="45.28425" lon="6.15557">
        <ele>2058.3999023438</ele>
        <time>2012-02-05T09:56:06.000Z</time>
      </trkpt>
      <trkpt lat="45.28423" lon="6.15549">
        <ele>2059.8000488281</ele>
        <time>2012-02-05T09:56:16.000Z</time>
      </trkpt>
      <trkpt lat="45.28423" lon="6.15543">
        <ele>2061</ele>
        <time>2012-02-05T09:56:24.000Z</time>
      </trkpt>
      <trkpt lat="45.28424" lon="6.15539">
        <ele>2062</ele>
        <time>2012-02-05T09:56:30.000Z</time>
      </trkpt>
      <trkpt lat="45.28425" lon="6.15534">
        <ele>2063.1999511719</ele>
        <time>2012-02-05T09:56:38.000Z</time>
      </trkpt>
      <trkpt lat="45.28426" lon="6.15529">
        <ele>2064.1999511719</ele>
        <time>2012-02-05T09:56:45.000Z</time>
      </trkpt>
      <trkpt lat="45.28427" lon="6.15525">
        <ele>2065</ele>
        <time>2012-02-05T09:56:51.000Z</time>
      </trkpt>
      <trkpt lat="45.28426" lon="6.15522">
        <ele>2065.8000488281</ele>
        <time>2012-02-05T09:56:56.000Z</time>
      </trkpt>
      <trkpt lat="45.28422" lon="6.15519">
        <ele>2067.1999511719</ele>
        <time>2012-02-05T09:57:05.000Z</time>
      </trkpt>
      <trkpt lat="45.2842" lon="6.15517">
        <ele>2068.3999023438</ele>
        <time>2012-02-05T09:57:11.000Z</time>
      </trkpt>
      <trkpt lat="45.28418" lon="6.15515">
        <ele>2069.3999023438</ele>
        <time>2012-02-05T09:57:17.000Z</time>
      </trkpt>
      <trkpt lat="45.28415" lon="6.15512">
        <ele>2070.6000976562</ele>
        <time>2012-02-05T09:57:25.000Z</time>
      </trkpt>
      <trkpt lat="45.28413" lon="6.15508">
        <ele>2071.3999023438</ele>
        <time>2012-02-05T09:57:32.000Z</time>
      </trkpt>
      <trkpt lat="45.28411" lon="6.15505">
        <ele>2072.8000488281</ele>
        <time>2012-02-05T09:57:39.000Z</time>
      </trkpt>
      <trkpt lat="45.2841" lon="6.15499">
        <ele>2073.6000976562</ele>
        <time>2012-02-05T09:57:48.000Z</time>
      </trkpt>
      <trkpt lat="45.28413" lon="6.15496">
        <ele>2075</ele>
        <time>2012-02-05T09:57:54.000Z</time>
      </trkpt>
      <trkpt lat="45.28415" lon="6.15492">
        <ele>2076</ele>
        <time>2012-02-05T09:58:01.000Z</time>
      </trkpt>
      <trkpt lat="45.28417" lon="6.15488">
        <ele>2077.1999511719</ele>
        <time>2012-02-05T09:58:08.000Z</time>
      </trkpt>
      <trkpt lat="45.28419" lon="6.15484">
        <ele>2078.3999023438</ele>
        <time>2012-02-05T09:58:15.000Z</time>
      </trkpt>
      <trkpt lat="45.28423" lon="6.15478">
        <ele>2080</ele>
        <time>2012-02-05T09:58:25.000Z</time>
      </trkpt>
      <trkpt lat="45.28425" lon="6.15474">
        <ele>2080.8000488281</ele>
        <time>2012-02-05T09:58:31.000Z</time>
      </trkpt>
      <trkpt lat="45.28426" lon="6.15471">
        <ele>2081.8000488281</ele>
        <time>2012-02-05T09:58:36.000Z</time>
      </trkpt>
      <trkpt lat="45.28428" lon="6.15468">
        <ele>2082.6000976562</ele>
        <time>2012-02-05T09:58:41.000Z</time>
      </trkpt>
      <trkpt lat="45.28429" lon="6.15465">
        <ele>2083.3999023438</ele>
        <time>2012-02-05T09:58:47.000Z</time>
      </trkpt>
      <trkpt lat="45.28431" lon="6.15463">
        <ele>2084.1999511719</ele>
        <time>2012-02-05T09:58:52.000Z</time>
      </trkpt>
      <trkpt lat="45.28435" lon="6.15457">
        <ele>2086</ele>
        <time>2012-02-05T09:59:02.000Z</time>
      </trkpt>
      <trkpt lat="45.28435" lon="6.15454">
        <ele>2087.1999511719</ele>
        <time>2012-02-05T09:59:08.000Z</time>
      </trkpt>
      <trkpt lat="45.28434" lon="6.15451">
        <ele>2088</ele>
        <time>2012-02-05T09:59:13.000Z</time>
      </trkpt>
      <trkpt lat="45.28429" lon="6.15443">
        <ele>2089.6000976562</ele>
        <time>2012-02-05T09:59:22.000Z</time>
      </trkpt>
      <trkpt lat="45.28428" lon="6.15438">
        <ele>2090.8000488281</ele>
        <time>2012-02-05T09:59:29.000Z</time>
      </trkpt>
      <trkpt lat="45.28428" lon="6.15432">
        <ele>2092</ele>
        <time>2012-02-05T09:59:37.000Z</time>
      </trkpt>
      <trkpt lat="45.28429" lon="6.15425">
        <ele>2093.3999023438</ele>
        <time>2012-02-05T09:59:45.000Z</time>
      </trkpt>
      <trkpt lat="45.2843" lon="6.15421">
        <ele>2094.6000976562</ele>
        <time>2012-02-05T09:59:52.000Z</time>
      </trkpt>
      <trkpt lat="45.28433" lon="6.15418">
        <ele>2095.1999511719</ele>
        <time>2012-02-05T09:59:58.000Z</time>
      </trkpt>
      <trkpt lat="45.28438" lon="6.15412">
        <ele>2096.8000488281</ele>
        <time>2012-02-05T10:00:07.000Z</time>
      </trkpt>
      <trkpt lat="45.28441" lon="6.15408">
        <ele>2098</ele>
        <time>2012-02-05T10:00:15.000Z</time>
      </trkpt>
      <trkpt lat="45.28444" lon="6.15402">
        <ele>2099.6000976562</ele>
        <time>2012-02-05T10:00:24.000Z</time>
      </trkpt>
      <trkpt lat="45.28448" lon="6.15397">
        <ele>2101</ele>
        <time>2012-02-05T10:00:34.000Z</time>
      </trkpt>
      <trkpt lat="45.28451" lon="6.15392">
        <ele>2102.3999023438</ele>
        <time>2012-02-05T10:00:42.000Z</time>
      </trkpt>
      <trkpt lat="45.28454" lon="6.15388">
        <ele>2103.6000976562</ele>
        <time>2012-02-05T10:00:50.000Z</time>
      </trkpt>
      <trkpt lat="45.28455" lon="6.15384">
        <ele>2104.8000488281</ele>
        <time>2012-02-05T10:00:57.000Z</time>
      </trkpt>
      <trkpt lat="45.28457" lon="6.1538">
        <ele>2105.6000976562</ele>
        <time>2012-02-05T10:01:03.000Z</time>
      </trkpt>
      <trkpt lat="45.28456" lon="6.15377">
        <ele>2106.8000488281</ele>
        <time>2012-02-05T10:01:10.000Z</time>
      </trkpt>
      <trkpt lat="45.28452" lon="6.15371">
        <ele>2108.8000488281</ele>
        <time>2012-02-05T10:01:20.000Z</time>
      </trkpt>
      <trkpt lat="45.28449" lon="6.15366">
        <ele>2109.8000488281</ele>
        <time>2012-02-05T10:01:28.000Z</time>
      </trkpt>
      <trkpt lat="45.28447" lon="6.1536">
        <ele>2111</ele>
        <time>2012-02-05T10:01:36.000Z</time>
      </trkpt>
      <trkpt lat="45.28445" lon="6.15356">
        <ele>2112</ele>
        <time>2012-02-05T10:01:41.000Z</time>
      </trkpt>
      <trkpt lat="45.28444" lon="6.15349">
        <ele>2113.3999023438</ele>
        <time>2012-02-05T10:01:49.000Z</time>
      </trkpt>
      <trkpt lat="45.28443" lon="6.15345">
        <ele>2114.3999023438</ele>
        <time>2012-02-05T10:01:55.000Z</time>
      </trkpt>
      <trkpt lat="45.28442" lon="6.1534">
        <ele>2115.1999511719</ele>
        <time>2012-02-05T10:02:01.000Z</time>
      </trkpt>
      <trkpt lat="45.28442" lon="6.15336">
        <ele>2116.3999023438</ele>
        <time>2012-02-05T10:02:07.000Z</time>
      </trkpt>
      <trkpt lat="45.28442" lon="6.15329">
        <ele>2117.8000488281</ele>
        <time>2012-02-05T10:02:17.000Z</time>
      </trkpt>
      <trkpt lat="45.28442" lon="6.15325">
        <ele>2119</ele>
        <time>2012-02-05T10:02:23.000Z</time>
      </trkpt>
      <trkpt lat="45.28443" lon="6.15323">
        <ele>2119.6000976562</ele>
        <time>2012-02-05T10:02:29.000Z</time>
      </trkpt>
      <trkpt lat="45.28446" lon="6.15323">
        <ele>2120.1999511719</ele>
        <time>2012-02-05T10:02:34.000Z</time>
      </trkpt>
      <trkpt lat="45.28451" lon="6.15322">
        <ele>2121.3999023438</ele>
        <time>2012-02-05T10:02:42.000Z</time>
      </trkpt>
      <trkpt lat="45.28454" lon="6.15321">
        <ele>2122.3999023438</ele>
        <time>2012-02-05T10:02:47.000Z</time>
      </trkpt>
      <trkpt lat="45.28456" lon="6.15321">
        <ele>2123.1999511719</ele>
        <time>2012-02-05T10:02:52.000Z</time>
      </trkpt>
      <trkpt lat="45.28459" lon="6.1532">
        <ele>2124.1999511719</ele>
        <time>2012-02-05T10:03:11.000Z</time>
      </trkpt>
      <trkpt lat="45.28462" lon="6.15316">
        <ele>2125.6000976562</ele>
        <time>2012-02-05T10:03:18.000Z</time>
      </trkpt>
      <trkpt lat="45.28461" lon="6.15312">
        <ele>2126.8000488281</ele>
        <time>2012-02-05T10:03:24.000Z</time>
      </trkpt>
      <trkpt lat="45.28457" lon="6.15305">
        <ele>2128</ele>
        <time>2012-02-05T10:03:32.000Z</time>
      </trkpt>
      <trkpt lat="45.28455" lon="6.15298">
        <ele>2129.1999511719</ele>
        <time>2012-02-05T10:03:41.000Z</time>
      </trkpt>
      <trkpt lat="45.28455" lon="6.15292">
        <ele>2130.1999511719</ele>
        <time>2012-02-05T10:03:48.000Z</time>
      </trkpt>
      <trkpt lat="45.28456" lon="6.15288">
        <ele>2131.6000976562</ele>
        <time>2012-02-05T10:03:55.000Z</time>
      </trkpt>
      <trkpt lat="45.28459" lon="6.15285">
        <ele>2132.6000976562</ele>
        <time>2012-02-05T10:04:02.000Z</time>
      </trkpt>
      <trkpt lat="45.28462" lon="6.15284">
        <ele>2133.6000976562</ele>
        <time>2012-02-05T10:04:08.000Z</time>
      </trkpt>
      <trkpt lat="45.28466" lon="6.15282">
        <ele>2134.8000488281</ele>
        <time>2012-02-05T10:04:16.000Z</time>
      </trkpt>
      <trkpt lat="45.2847" lon="6.1528">
        <ele>2136.1999511719</ele>
        <time>2012-02-05T10:04:23.000Z</time>
      </trkpt>
      <trkpt lat="45.28475" lon="6.15277">
        <ele>2137.8000488281</ele>
        <time>2012-02-05T10:04:33.000Z</time>
      </trkpt>
      <trkpt lat="45.28477" lon="6.15275">
        <ele>2138.8000488281</ele>
        <time>2012-02-05T10:04:40.000Z</time>
      </trkpt>
      <trkpt lat="45.28477" lon="6.15271">
        <ele>2139.6000976562</ele>
        <time>2012-02-05T10:04:45.000Z</time>
      </trkpt>
      <trkpt lat="45.28476" lon="6.15267">
        <ele>2140.3999023438</ele>
        <time>2012-02-05T10:04:51.000Z</time>
      </trkpt>
      <trkpt lat="45.28476" lon="6.15261">
        <ele>2141.8000488281</ele>
        <time>2012-02-05T10:04:59.000Z</time>
      </trkpt>
      <trkpt lat="45.28476" lon="6.15256">
        <ele>2142.8000488281</ele>
        <time>2012-02-05T10:05:06.000Z</time>
      </trkpt>
      <trkpt lat="45.28477" lon="6.15251">
        <ele>2143.8000488281</ele>
        <time>2012-02-05T10:05:12.000Z</time>
      </trkpt>
      <trkpt lat="45.28479" lon="6.15246">
        <ele>2145.1999511719</ele>
        <time>2012-02-05T10:05:20.000Z</time>
      </trkpt>
      <trkpt lat="45.28481" lon="6.15245">
        <ele>2146</ele>
        <time>2012-02-05T10:05:25.000Z</time>
      </trkpt>
      <trkpt lat="45.28485" lon="6.15244">
        <ele>2146.8000488281</ele>
        <time>2012-02-05T10:05:32.000Z</time>
      </trkpt>
      <trkpt lat="45.2849" lon="6.15243">
        <ele>2147.8000488281</ele>
        <time>2012-02-05T10:05:40.000Z</time>
      </trkpt>
      <trkpt lat="45.28493" lon="6.15242">
        <ele>2148.6000976562</ele>
        <time>2012-02-05T10:05:44.000Z</time>
      </trkpt>
      <trkpt lat="45.28499" lon="6.1524">
        <ele>2149.8000488281</ele>
        <time>2012-02-05T10:05:52.000Z</time>
      </trkpt>
      <trkpt lat="45.28503" lon="6.15239">
        <ele>2150.8000488281</ele>
        <time>2012-02-05T10:05:58.000Z</time>
      </trkpt>
      <trkpt lat="45.28506" lon="6.15238">
        <ele>2151.8000488281</ele>
        <time>2012-02-05T10:06:04.000Z</time>
      </trkpt>
      <trkpt lat="45.28509" lon="6.15239">
        <ele>2152.8000488281</ele>
        <time>2012-02-05T10:06:13.000Z</time>
      </trkpt>
      <trkpt lat="45.28508" lon="6.15237">
        <ele>2153.3999023438</ele>
        <time>2012-02-05T10:06:19.000Z</time>
      </trkpt>
      <trkpt lat="45.28506" lon="6.1523">
        <ele>2154.8000488281</ele>
        <time>2012-02-05T10:06:27.000Z</time>
      </trkpt>
      <trkpt lat="45.28505" lon="6.15225">
        <ele>2156</ele>
        <time>2012-02-05T10:06:35.000Z</time>
      </trkpt>
      <trkpt lat="45.28505" lon="6.15221">
        <ele>2157.1999511719</ele>
        <time>2012-02-05T10:06:42.000Z</time>
      </trkpt>
      <trkpt lat="45.28505" lon="6.1522">
        <ele>2157.3999023438</ele>
        <time>2012-02-05T10:06:44.000Z</time>
      </trkpt>
      <trkpt lat="45.28508" lon="6.1522">
        <ele>2158</ele>
        <time>2012-02-05T10:06:50.000Z</time>
      </trkpt>
      <trkpt lat="45.28512" lon="6.15221">
        <ele>2159.1999511719</ele>
        <time>2012-02-05T10:06:57.000Z</time>
      </trkpt>
      <trkpt lat="45.28516" lon="6.15221">
        <ele>2160.1999511719</ele>
        <time>2012-02-05T10:07:04.000Z</time>
      </trkpt>
      <trkpt lat="45.28519" lon="6.15221">
        <ele>2161.1999511719</ele>
        <time>2012-02-05T10:07:10.000Z</time>
      </trkpt>
      <trkpt lat="45.28523" lon="6.15221">
        <ele>2162.1999511719</ele>
        <time>2012-02-05T10:07:17.000Z</time>
      </trkpt>
      <trkpt lat="45.28522" lon="6.15219">
        <ele>2163</ele>
        <time>2012-02-05T10:07:29.000Z</time>
      </trkpt>
      <trkpt lat="45.2852" lon="6.15215">
        <ele>2164.1999511719</ele>
        <time>2012-02-05T10:07:36.000Z</time>
      </trkpt>
      <trkpt lat="45.28519" lon="6.1521">
        <ele>2165.3999023438</ele>
        <time>2012-02-05T10:07:43.000Z</time>
      </trkpt>
      <trkpt lat="45.28518" lon="6.15205">
        <ele>2166.6000976562</ele>
        <time>2012-02-05T10:07:50.000Z</time>
      </trkpt>
      <trkpt lat="45.28518" lon="6.15201">
        <ele>2168</ele>
        <time>2012-02-05T10:08:00.000Z</time>
      </trkpt>
      <trkpt lat="45.28518" lon="6.15199">
        <ele>2168.1999511719</ele>
        <time>2012-02-05T10:08:29.000Z</time>
      </trkpt>
      <trkpt lat="45.28521" lon="6.152">
        <ele>2168.8000488281</ele>
        <time>2012-02-05T10:08:34.000Z</time>
      </trkpt>
      <trkpt lat="45.28524" lon="6.152">
        <ele>2170.1999511719</ele>
        <time>2012-02-05T10:08:41.000Z</time>
      </trkpt>
      <trkpt lat="45.28529" lon="6.15199">
        <ele>2171.3999023438</ele>
        <time>2012-02-05T10:08:51.000Z</time>
      </trkpt>
      <trkpt lat="45.28531" lon="6.15195">
        <ele>2172.8000488281</ele>
        <time>2012-02-05T10:08:58.000Z</time>
      </trkpt>
      <trkpt lat="45.28533" lon="6.15194">
        <ele>2173.8000488281</ele>
        <time>2012-02-05T10:09:05.000Z</time>
      </trkpt>
      <trkpt lat="45.28535" lon="6.15194">
        <ele>2174.6000976562</ele>
        <time>2012-02-05T10:09:12.000Z</time>
      </trkpt>
      <trkpt lat="45.28538" lon="6.15191">
        <ele>2176.6000976562</ele>
        <time>2012-02-05T10:09:23.000Z</time>
      </trkpt>
      <trkpt lat="45.2854" lon="6.15189">
        <ele>2177.8000488281</ele>
        <time>2012-02-05T10:09:30.000Z</time>
      </trkpt>
      <trkpt lat="45.28542" lon="6.15187">
        <ele>2178.8000488281</ele>
        <time>2012-02-05T10:09:35.000Z</time>
      </trkpt>
      <trkpt lat="45.28544" lon="6.15186">
        <ele>2179.6000976562</ele>
        <time>2012-02-05T10:09:40.000Z</time>
      </trkpt>
      <trkpt lat="45.28546" lon="6.15184">
        <ele>2180.6000976562</ele>
        <time>2012-02-05T10:09:45.000Z</time>
      </trkpt>
      <trkpt lat="45.28547" lon="6.15187">
        <ele>2181.3999023438</ele>
        <time>2012-02-05T10:09:50.000Z</time>
      </trkpt>
      <trkpt lat="45.28551" lon="6.15183">
        <ele>2182.3999023438</ele>
        <time>2012-02-05T10:09:58.000Z</time>
      </trkpt>
      <trkpt lat="45.28554" lon="6.15178">
        <ele>2183.3999023438</ele>
        <time>2012-02-05T10:10:06.000Z</time>
      </trkpt>
      <trkpt lat="45.28558" lon="6.15174">
        <ele>2184</ele>
        <time>2012-02-05T10:10:13.000Z</time>
      </trkpt>
      <trkpt lat="45.28563" lon="6.1517">
        <ele>2185.1999511719</ele>
        <time>2012-02-05T10:10:21.000Z</time>
      </trkpt>
      <trkpt lat="45.28567" lon="6.15175">
        <ele>2186.1999511719</ele>
        <time>2012-02-05T10:10:29.000Z</time>
      </trkpt>
      <trkpt lat="45.28575" lon="6.15165">
        <ele>2187.8000488281</ele>
        <time>2012-02-05T10:10:37.000Z</time>
      </trkpt>
      <trkpt lat="45.28582" lon="6.15161">
        <ele>2189.1999511719</ele>
        <time>2012-02-05T10:10:46.000Z</time>
      </trkpt>
      <trkpt lat="45.28589" lon="6.15159">
        <ele>2190.6000976562</ele>
        <time>2012-02-05T10:10:55.000Z</time>
      </trkpt>
      <trkpt lat="45.28593" lon="6.15155">
        <ele>2191.8000488281</ele>
        <time>2012-02-05T10:11:03.000Z</time>
      </trkpt>
      <trkpt lat="45.28598" lon="6.1515">
        <ele>2192.8000488281</ele>
        <time>2012-02-05T10:11:12.000Z</time>
      </trkpt>
      <trkpt lat="45.28601" lon="6.15146">
        <ele>2194.1999511719</ele>
        <time>2012-02-05T10:11:21.000Z</time>
      </trkpt>
      <trkpt lat="45.28604" lon="6.15142">
        <ele>2195.3999023438</ele>
        <time>2012-02-05T10:11:29.000Z</time>
      </trkpt>
      <trkpt lat="45.28608" lon="6.15137">
        <ele>2197</ele>
        <time>2012-02-05T10:11:38.000Z</time>
      </trkpt>
      <trkpt lat="45.28613" lon="6.15132">
        <ele>2198.6000976562</ele>
        <time>2012-02-05T10:11:48.000Z</time>
      </trkpt>
      <trkpt lat="45.28618" lon="6.15127">
        <ele>2200.1999511719</ele>
        <time>2012-02-05T10:11:58.000Z</time>
      </trkpt>
      <trkpt lat="45.28621" lon="6.15123">
        <ele>2201.6000976562</ele>
        <time>2012-02-05T10:12:06.000Z</time>
      </trkpt>
      <trkpt lat="45.28624" lon="6.1512">
        <ele>2202.6000976562</ele>
        <time>2012-02-05T10:12:12.000Z</time>
      </trkpt>
      <trkpt lat="45.28627" lon="6.15117">
        <ele>2203.3999023438</ele>
        <time>2012-02-05T10:12:19.000Z</time>
      </trkpt>
      <trkpt lat="45.28629" lon="6.15115">
        <ele>2204.3999023438</ele>
        <time>2012-02-05T10:12:26.000Z</time>
      </trkpt>
      <trkpt lat="45.28632" lon="6.1511">
        <ele>2205.1999511719</ele>
        <time>2012-02-05T10:12:34.000Z</time>
      </trkpt>
      <trkpt lat="45.28635" lon="6.15106">
        <ele>2206.8000488281</ele>
        <time>2012-02-05T10:12:42.000Z</time>
      </trkpt>
      <trkpt lat="45.28638" lon="6.15102">
        <ele>2208.1999511719</ele>
        <time>2012-02-05T10:12:51.000Z</time>
      </trkpt>
      <trkpt lat="45.28641" lon="6.15097">
        <ele>2209.6000976562</ele>
        <time>2012-02-05T10:13:00.000Z</time>
      </trkpt>
      <trkpt lat="45.28645" lon="6.15094">
        <ele>2211.1999511719</ele>
        <time>2012-02-05T10:13:09.000Z</time>
      </trkpt>
      <trkpt lat="45.2865" lon="6.15089">
        <ele>2213</ele>
        <time>2012-02-05T10:13:21.000Z</time>
      </trkpt>
      <trkpt lat="45.28654" lon="6.15084">
        <ele>2214.3999023438</ele>
        <time>2012-02-05T10:13:30.000Z</time>
      </trkpt>
      <trkpt lat="45.28656" lon="6.15081">
        <ele>2215.3999023438</ele>
        <time>2012-02-05T10:13:37.000Z</time>
      </trkpt>
      <trkpt lat="45.2866" lon="6.1508">
        <ele>2216.1999511719</ele>
        <time>2012-02-05T10:13:42.000Z</time>
      </trkpt>
      <trkpt lat="45.28665" lon="6.15078">
        <ele>2217.3999023438</ele>
        <time>2012-02-05T10:13:50.000Z</time>
      </trkpt>
      <trkpt lat="45.28667" lon="6.15078">
        <ele>2218.1999511719</ele>
        <time>2012-02-05T10:13:55.000Z</time>
      </trkpt>
      <trkpt lat="45.2867" lon="6.15077">
        <ele>2219.3999023438</ele>
        <time>2012-02-05T10:14:01.000Z</time>
      </trkpt>
      <trkpt lat="45.28675" lon="6.15076">
        <ele>2220.8000488281</ele>
        <time>2012-02-05T10:14:10.000Z</time>
      </trkpt>
      <trkpt lat="45.28679" lon="6.15074">
        <ele>2221.8000488281</ele>
        <time>2012-02-05T10:14:17.000Z</time>
      </trkpt>
      <trkpt lat="45.28681" lon="6.15074">
        <ele>2222.6000976562</ele>
        <time>2012-02-05T10:14:25.000Z</time>
      </trkpt>
      <trkpt lat="45.28679" lon="6.1507">
        <ele>2223.3999023438</ele>
        <time>2012-02-05T10:14:32.000Z</time>
      </trkpt>
      <trkpt lat="45.28677" lon="6.15066">
        <ele>2224.6000976562</ele>
        <time>2012-02-05T10:14:38.000Z</time>
      </trkpt>
      <trkpt lat="45.28675" lon="6.15061">
        <ele>2225.8000488281</ele>
        <time>2012-02-05T10:14:45.000Z</time>
      </trkpt>
      <trkpt lat="45.28672" lon="6.15055">
        <ele>2227.3999023438</ele>
        <time>2012-02-05T10:14:55.000Z</time>
      </trkpt>
      <trkpt lat="45.28671" lon="6.1505">
        <ele>2228.3999023438</ele>
        <time>2012-02-05T10:15:02.000Z</time>
      </trkpt>
      <trkpt lat="45.2867" lon="6.15047">
        <ele>2229.1999511719</ele>
        <time>2012-02-05T10:15:07.000Z</time>
      </trkpt>
      <trkpt lat="45.28669" lon="6.15044">
        <ele>2230</ele>
        <time>2012-02-05T10:15:12.000Z</time>
      </trkpt>
      <trkpt lat="45.28669" lon="6.1504">
        <ele>2231.1999511719</ele>
        <time>2012-02-05T10:15:18.000Z</time>
      </trkpt>
      <trkpt lat="45.28668" lon="6.15033">
        <ele>2232.6000976562</ele>
        <time>2012-02-05T10:15:27.000Z</time>
      </trkpt>
      <trkpt lat="45.28668" lon="6.1503">
        <ele>2233.6000976562</ele>
        <time>2012-02-05T10:15:32.000Z</time>
      </trkpt>
      <trkpt lat="45.28668" lon="6.15026">
        <ele>2234.3999023438</ele>
        <time>2012-02-05T10:15:38.000Z</time>
      </trkpt>
      <trkpt lat="45.28668" lon="6.15022">
        <ele>2235.3999023438</ele>
        <time>2012-02-05T10:15:44.000Z</time>
      </trkpt>
      <trkpt lat="45.28668" lon="6.1502">
        <ele>2236.1999511719</ele>
        <time>2012-02-05T10:15:52.000Z</time>
      </trkpt>
      <trkpt lat="45.28669" lon="6.15018">
        <ele>2236.6000976562</ele>
        <time>2012-02-05T10:15:57.000Z</time>
      </trkpt>
      <trkpt lat="45.28672" lon="6.15021">
        <ele>2237.6000976562</ele>
        <time>2012-02-05T10:16:04.000Z</time>
      </trkpt>
      <trkpt lat="45.28675" lon="6.15024">
        <ele>2238.8000488281</ele>
        <time>2012-02-05T10:16:11.000Z</time>
      </trkpt>
      <trkpt lat="45.2868" lon="6.15027">
        <ele>2240.1999511719</ele>
        <time>2012-02-05T10:16:20.000Z</time>
      </trkpt>
      <trkpt lat="45.28685" lon="6.1503">
        <ele>2241.6000976562</ele>
        <time>2012-02-05T10:16:29.000Z</time>
      </trkpt>
      <trkpt lat="45.28691" lon="6.15032">
        <ele>2243.1999511719</ele>
        <time>2012-02-05T10:16:39.000Z</time>
      </trkpt>
      <trkpt lat="45.28695" lon="6.15034">
        <ele>2244.1999511719</ele>
        <time>2012-02-05T10:16:46.000Z</time>
      </trkpt>
      <trkpt lat="45.28697" lon="6.15035">
        <ele>2245</ele>
        <time>2012-02-05T10:16:52.000Z</time>
      </trkpt>
      <trkpt lat="45.287" lon="6.15037">
        <ele>2245.3999023438</ele>
        <time>2012-02-05T10:16:59.000Z</time>
      </trkpt>
      <trkpt lat="45.28699" lon="6.15034">
        <ele>2246</ele>
        <time>2012-02-05T10:17:05.000Z</time>
      </trkpt>
      <trkpt lat="45.28697" lon="6.15029">
        <ele>2247.1999511719</ele>
        <time>2012-02-05T10:17:12.000Z</time>
      </trkpt>
      <trkpt lat="45.28694" lon="6.15023">
        <ele>2248.1999511719</ele>
        <time>2012-02-05T10:17:18.000Z</time>
      </trkpt>
      <trkpt lat="45.28692" lon="6.15019">
        <ele>2249.6000976562</ele>
        <time>2012-02-05T10:17:25.000Z</time>
      </trkpt>
      <trkpt lat="45.28691" lon="6.15015">
        <ele>2250.1999511719</ele>
        <time>2012-02-05T10:17:31.000Z</time>
      </trkpt>
      <trkpt lat="45.28691" lon="6.15012">
        <ele>2251.3999023438</ele>
        <time>2012-02-05T10:17:45.000Z</time>
      </trkpt>
      <trkpt lat="45.28693" lon="6.15014">
        <ele>2252.6000976562</ele>
        <time>2012-02-05T10:17:52.000Z</time>
      </trkpt>
      <trkpt lat="45.28698" lon="6.15015">
        <ele>2253.1999511719</ele>
        <time>2012-02-05T10:18:07.000Z</time>
      </trkpt>
      <trkpt lat="45.28702" lon="6.15016">
        <ele>2254.3999023438</ele>
        <time>2012-02-05T10:18:13.000Z</time>
      </trkpt>
      <trkpt lat="45.28707" lon="6.15018">
        <ele>2256</ele>
        <time>2012-02-05T10:18:21.000Z</time>
      </trkpt>
      <trkpt lat="45.28712" lon="6.15019">
        <ele>2257.3999023438</ele>
        <time>2012-02-05T10:18:29.000Z</time>
      </trkpt>
      <trkpt lat="45.28716" lon="6.1502">
        <ele>2258.8000488281</ele>
        <time>2012-02-05T10:18:36.000Z</time>
      </trkpt>
      <trkpt lat="45.2872" lon="6.1502">
        <ele>2260.1999511719</ele>
        <time>2012-02-05T10:18:44.000Z</time>
      </trkpt>
      <trkpt lat="45.28723" lon="6.1502">
        <ele>2261.1999511719</ele>
        <time>2012-02-05T10:18:50.000Z</time>
      </trkpt>
      <trkpt lat="45.28723" lon="6.15019">
        <ele>2261.6000976562</ele>
        <time>2012-02-05T10:18:55.000Z</time>
      </trkpt>
      <trkpt lat="45.28721" lon="6.15015">
        <ele>2262</ele>
        <time>2012-02-05T10:19:01.000Z</time>
      </trkpt>
      <trkpt lat="45.28718" lon="6.15009">
        <ele>2263.6000976562</ele>
        <time>2012-02-05T10:19:10.000Z</time>
      </trkpt>
      <trkpt lat="45.28716" lon="6.15004">
        <ele>2264.8000488281</ele>
        <time>2012-02-05T10:19:17.000Z</time>
      </trkpt>
      <trkpt lat="45.28715" lon="6.14998">
        <ele>2266</ele>
        <time>2012-02-05T10:19:25.000Z</time>
      </trkpt>
      <trkpt lat="45.28713" lon="6.14992">
        <ele>2267.8000488281</ele>
        <time>2012-02-05T10:19:34.000Z</time>
      </trkpt>
      <trkpt lat="45.28711" lon="6.14988">
        <ele>2269.1999511719</ele>
        <time>2012-02-05T10:19:42.000Z</time>
      </trkpt>
      <trkpt lat="45.28712" lon="6.14987">
        <ele>2269.6000976562</ele>
        <time>2012-02-05T10:19:46.000Z</time>
      </trkpt>
      <trkpt lat="45.28716" lon="6.14987">
        <ele>2270.3999023438</ele>
        <time>2012-02-05T10:19:52.000Z</time>
      </trkpt>
      <trkpt lat="45.28721" lon="6.14987">
        <ele>2271.6000976562</ele>
        <time>2012-02-05T10:20:00.000Z</time>
      </trkpt>
      <trkpt lat="45.28721" lon="6.14986">
        <ele>2272.3999023438</ele>
        <time>2012-02-05T10:20:05.000Z</time>
      </trkpt>
      <trkpt lat="45.2872" lon="6.14982">
        <ele>2273.3999023438</ele>
        <time>2012-02-05T10:20:12.000Z</time>
      </trkpt>
      <trkpt lat="45.28719" lon="6.14978">
        <ele>2274.8000488281</ele>
        <time>2012-02-05T10:20:19.000Z</time>
      </trkpt>
      <trkpt lat="45.28718" lon="6.14974">
        <ele>2275.8000488281</ele>
        <time>2012-02-05T10:20:25.000Z</time>
      </trkpt>
      <trkpt lat="45.28717" lon="6.14972">
        <ele>2276.8000488281</ele>
        <time>2012-02-05T10:20:32.000Z</time>
      </trkpt>
      <trkpt lat="45.28717" lon="6.1497">
        <ele>2276.1999511719</ele>
        <time>2012-02-05T10:20:42.000Z</time>
      </trkpt>
      <trkpt lat="45.28717" lon="6.14979">
        <ele>2275.3999023438</ele>
        <time>2012-02-05T10:21:31.000Z</time>
      </trkpt>
      <trkpt lat="45.28718" lon="6.14969">
        <ele>2276</ele>
        <time>2012-02-05T10:22:03.000Z</time>
      </trkpt>
      <trkpt lat="45.28715" lon="6.14973">
        <ele>2275.8000488281</ele>
        <time>2012-02-05T10:22:44.000Z</time>
      </trkpt>
      <trkpt lat="45.28717" lon="6.14974">
        <ele>2276.3999023438</ele>
        <time>2012-02-05T10:24:00.000Z</time>
      </trkpt>
      <trkpt lat="45.28718" lon="6.14973">
        <ele>2275.8000488281</ele>
        <time>2012-02-05T10:25:29.000Z</time>
      </trkpt>
      <trkpt lat="45.28722" lon="6.14972">
        <ele>2276.8000488281</ele>
        <time>2012-02-05T10:25:36.000Z</time>
      </trkpt>
      <trkpt lat="45.28726" lon="6.14971">
        <ele>2278.3999023438</ele>
        <time>2012-02-05T10:25:43.000Z</time>
      </trkpt>
      <trkpt lat="45.2873" lon="6.14971">
        <ele>2279.6000976562</ele>
        <time>2012-02-05T10:25:50.000Z</time>
      </trkpt>
      <trkpt lat="45.28733" lon="6.14972">
        <ele>2280.8000488281</ele>
        <time>2012-02-05T10:25:57.000Z</time>
      </trkpt>
      <trkpt lat="45.28737" lon="6.14974">
        <ele>2282</ele>
        <time>2012-02-05T10:26:04.000Z</time>
      </trkpt>
      <trkpt lat="45.2874" lon="6.14976">
        <ele>2283.1999511719</ele>
        <time>2012-02-05T10:26:13.000Z</time>
      </trkpt>
      <trkpt lat="45.28741" lon="6.14975">
        <ele>2283.8000488281</ele>
        <time>2012-02-05T10:26:20.000Z</time>
      </trkpt>
      <trkpt lat="45.28741" lon="6.14972">
        <ele>2284.6000976562</ele>
        <time>2012-02-05T10:26:26.000Z</time>
      </trkpt>
      <trkpt lat="45.2874" lon="6.14966">
        <ele>2285.6000976562</ele>
        <time>2012-02-05T10:26:33.000Z</time>
      </trkpt>
      <trkpt lat="45.28739" lon="6.14962">
        <ele>2287.1999511719</ele>
        <time>2012-02-05T10:26:41.000Z</time>
      </trkpt>
      <trkpt lat="45.28741" lon="6.14962">
        <ele>2287.6000976562</ele>
        <time>2012-02-05T10:26:46.000Z</time>
      </trkpt>
      <trkpt lat="45.28745" lon="6.14964">
        <ele>2288.8000488281</ele>
        <time>2012-02-05T10:26:53.000Z</time>
      </trkpt>
      <trkpt lat="45.2875" lon="6.14963">
        <ele>2290.3999023438</ele>
        <time>2012-02-05T10:27:04.000Z</time>
      </trkpt>
      <trkpt lat="45.28751" lon="6.14962">
        <ele>2291.1999511719</ele>
        <time>2012-02-05T10:27:25.000Z</time>
      </trkpt>
      <trkpt lat="45.2875" lon="6.14959">
        <ele>2291.6000976562</ele>
        <time>2012-02-05T10:27:30.000Z</time>
      </trkpt>
      <trkpt lat="45.28747" lon="6.14952">
        <ele>2293.1999511719</ele>
        <time>2012-02-05T10:27:39.000Z</time>
      </trkpt>
      <trkpt lat="45.28744" lon="6.14945">
        <ele>2295.1999511719</ele>
        <time>2012-02-05T10:27:49.000Z</time>
      </trkpt>
      <trkpt lat="45.28745" lon="6.14944">
        <ele>2296</ele>
        <time>2012-02-05T10:27:55.000Z</time>
      </trkpt>
      <trkpt lat="45.28751" lon="6.14943">
        <ele>2297.8000488281</ele>
        <time>2012-02-05T10:28:05.000Z</time>
      </trkpt>
      <trkpt lat="45.28755" lon="6.14943">
        <ele>2299.1999511719</ele>
        <time>2012-02-05T10:28:14.000Z</time>
      </trkpt>
      <trkpt lat="45.28758" lon="6.14942">
        <ele>2300.3999023438</ele>
        <time>2012-02-05T10:28:20.000Z</time>
      </trkpt>
      <trkpt lat="45.28761" lon="6.14941">
        <ele>2301.3999023438</ele>
        <time>2012-02-05T10:29:44.000Z</time>
      </trkpt>
      <trkpt lat="45.28761" lon="6.1494">
        <ele>2301.8000488281</ele>
        <time>2012-02-05T10:29:52.000Z</time>
      </trkpt>
      <trkpt lat="45.28759" lon="6.14936">
        <ele>2302.8000488281</ele>
        <time>2012-02-05T10:30:00.000Z</time>
      </trkpt>
      <trkpt lat="45.28757" lon="6.1493">
        <ele>2304.3999023438</ele>
        <time>2012-02-05T10:30:09.000Z</time>
      </trkpt>
      <trkpt lat="45.28755" lon="6.14924">
        <ele>2306.1999511719</ele>
        <time>2012-02-05T10:30:17.000Z</time>
      </trkpt>
      <trkpt lat="45.28753" lon="6.14919">
        <ele>2307.3999023438</ele>
        <time>2012-02-05T10:30:24.000Z</time>
      </trkpt>
      <trkpt lat="45.28753" lon="6.14917">
        <ele>2308.3999023438</ele>
        <time>2012-02-05T10:30:32.000Z</time>
      </trkpt>
      <trkpt lat="45.28755" lon="6.14916">
        <ele>2308.6000976562</ele>
        <time>2012-02-05T10:30:36.000Z</time>
      </trkpt>
      <trkpt lat="45.28759" lon="6.14916">
        <ele>2309.8000488281</ele>
        <time>2012-02-05T10:30:43.000Z</time>
      </trkpt>
      <trkpt lat="45.28764" lon="6.14916">
        <ele>2311.3999023438</ele>
        <time>2012-02-05T10:30:53.000Z</time>
      </trkpt>
      <trkpt lat="45.28768" lon="6.14916">
        <ele>2312.6000976562</ele>
        <time>2012-02-05T10:31:00.000Z</time>
      </trkpt>
      <trkpt lat="45.28773" lon="6.14917">
        <ele>2314.1999511719</ele>
        <time>2012-02-05T10:31:09.000Z</time>
      </trkpt>
      <trkpt lat="45.28774" lon="6.14916">
        <ele>2315</ele>
        <time>2012-02-05T10:31:15.000Z</time>
      </trkpt>
      <trkpt lat="45.28773" lon="6.14912">
        <ele>2315.8000488281</ele>
        <time>2012-02-05T10:31:21.000Z</time>
      </trkpt>
      <trkpt lat="45.28772" lon="6.14907">
        <ele>2317</ele>
        <time>2012-02-05T10:31:28.000Z</time>
      </trkpt>
      <trkpt lat="45.2877" lon="6.14901">
        <ele>2318.8000488281</ele>
        <time>2012-02-05T10:31:37.000Z</time>
      </trkpt>
      <trkpt lat="45.28769" lon="6.14895">
        <ele>2320.1999511719</ele>
        <time>2012-02-05T10:31:46.000Z</time>
      </trkpt>
      <trkpt lat="45.28768" lon="6.14893">
        <ele>2321</ele>
        <time>2012-02-05T10:31:50.000Z</time>
      </trkpt>
      <trkpt lat="45.2877" lon="6.14893">
        <ele>2321.6000976562</ele>
        <time>2012-02-05T10:31:57.000Z</time>
      </trkpt>
      <trkpt lat="45.28774" lon="6.14893">
        <ele>2322.8000488281</ele>
        <time>2012-02-05T10:32:05.000Z</time>
      </trkpt>
      <trkpt lat="45.28778" lon="6.14892">
        <ele>2324</ele>
        <time>2012-02-05T10:32:12.000Z</time>
      </trkpt>
      <trkpt lat="45.28784" lon="6.14891">
        <ele>2325.8000488281</ele>
        <time>2012-02-05T10:32:22.000Z</time>
      </trkpt>
      <trkpt lat="45.28786" lon="6.14891">
        <ele>2327</ele>
        <time>2012-02-05T10:32:28.000Z</time>
      </trkpt>
      <trkpt lat="45.28789" lon="6.14891">
        <ele>2328.1999511719</ele>
        <time>2012-02-05T10:32:35.000Z</time>
      </trkpt>
      <trkpt lat="45.28788" lon="6.14887">
        <ele>2329</ele>
        <time>2012-02-05T10:32:41.000Z</time>
      </trkpt>
      <trkpt lat="45.28788" lon="6.14881">
        <ele>2330</ele>
        <time>2012-02-05T10:32:48.000Z</time>
      </trkpt>
      <trkpt lat="45.28789" lon="6.14875">
        <ele>2331.3999023438</ele>
        <time>2012-02-05T10:32:56.000Z</time>
      </trkpt>
      <trkpt lat="45.28789" lon="6.14869">
        <ele>2333.1999511719</ele>
        <time>2012-02-05T10:33:04.000Z</time>
      </trkpt>
      <trkpt lat="45.2879" lon="6.14863">
        <ele>2334.6000976562</ele>
        <time>2012-02-05T10:33:12.000Z</time>
      </trkpt>
      <trkpt lat="45.2879" lon="6.14858">
        <ele>2336</ele>
        <time>2012-02-05T10:33:19.000Z</time>
      </trkpt>
      <trkpt lat="45.28791" lon="6.14857">
        <ele>2336.6000976562</ele>
        <time>2012-02-05T10:33:24.000Z</time>
      </trkpt>
      <trkpt lat="45.28796" lon="6.1486">
        <ele>2337.8000488281</ele>
        <time>2012-02-05T10:33:33.000Z</time>
      </trkpt>
      <trkpt lat="45.28799" lon="6.14862">
        <ele>2339</ele>
        <time>2012-02-05T10:33:40.000Z</time>
      </trkpt>
      <trkpt lat="45.28804" lon="6.14866">
        <ele>2341.1999511719</ele>
        <time>2012-02-05T10:33:51.000Z</time>
      </trkpt>
      <trkpt lat="45.28806" lon="6.14868">
        <ele>2341.8000488281</ele>
        <time>2012-02-05T10:33:57.000Z</time>
      </trkpt>
      <trkpt lat="45.28811" lon="6.14871">
        <ele>2343.6000976562</ele>
        <time>2012-02-05T10:34:07.000Z</time>
      </trkpt>
      <trkpt lat="45.28811" lon="6.14872">
        <ele>2344.1999511719</ele>
        <time>2012-02-05T10:34:14.000Z</time>
      </trkpt>
      <trkpt lat="45.28813" lon="6.14872">
        <ele>2344.8000488281</ele>
        <time>2012-02-05T10:34:42.000Z</time>
      </trkpt>
      <trkpt lat="45.28813" lon="6.14867">
        <ele>2345.3999023438</ele>
        <time>2012-02-05T10:34:47.000Z</time>
      </trkpt>
      <trkpt lat="45.28813" lon="6.1486">
        <ele>2346.8000488281</ele>
        <time>2012-02-05T10:34:55.000Z</time>
      </trkpt>
      <trkpt lat="45.28813" lon="6.14854">
        <ele>2348.3999023438</ele>
        <time>2012-02-05T10:35:04.000Z</time>
      </trkpt>
      <trkpt lat="45.28814" lon="6.14855">
        <ele>2348.8000488281</ele>
        <time>2012-02-05T10:35:08.000Z</time>
      </trkpt>
      <trkpt lat="45.28818" lon="6.14856">
        <ele>2350</ele>
        <time>2012-02-05T10:35:15.000Z</time>
      </trkpt>
      <trkpt lat="45.28822" lon="6.14858">
        <ele>2351.6000976562</ele>
        <time>2012-02-05T10:35:24.000Z</time>
      </trkpt>
      <trkpt lat="45.28823" lon="6.14858">
        <ele>2352.1999511719</ele>
        <time>2012-02-05T10:35:29.000Z</time>
      </trkpt>
      <trkpt lat="45.28823" lon="6.14854">
        <ele>2353</ele>
        <time>2012-02-05T10:35:34.000Z</time>
      </trkpt>
      <trkpt lat="45.28822" lon="6.14847">
        <ele>2354.6000976562</ele>
        <time>2012-02-05T10:35:44.000Z</time>
      </trkpt>
      <trkpt lat="45.28822" lon="6.14842">
        <ele>2355.8000488281</ele>
        <time>2012-02-05T10:35:52.000Z</time>
      </trkpt>
      <trkpt lat="45.28823" lon="6.14843">
        <ele>2356.1999511719</ele>
        <time>2012-02-05T10:35:58.000Z</time>
      </trkpt>
      <trkpt lat="45.28826" lon="6.14845">
        <ele>2357.1999511719</ele>
        <time>2012-02-05T10:36:04.000Z</time>
      </trkpt>
      <trkpt lat="45.2883" lon="6.14848">
        <ele>2358.6000976562</ele>
        <time>2012-02-05T10:36:13.000Z</time>
      </trkpt>
      <trkpt lat="45.2883" lon="6.14845">
        <ele>2359.6000976562</ele>
        <time>2012-02-05T10:36:19.000Z</time>
      </trkpt>
      <trkpt lat="45.2883" lon="6.1484">
        <ele>2360.8000488281</ele>
        <time>2012-02-05T10:36:25.000Z</time>
      </trkpt>
      <trkpt lat="45.2883" lon="6.14832">
        <ele>2363.1999511719</ele>
        <time>2012-02-05T10:36:38.000Z</time>
      </trkpt>
      <trkpt lat="45.28831" lon="6.14832">
        <ele>2363.6000976562</ele>
        <time>2012-02-05T10:36:44.000Z</time>
      </trkpt>
      <trkpt lat="45.28835" lon="6.14835">
        <ele>2365</ele>
        <time>2012-02-05T10:36:54.000Z</time>
      </trkpt>
      <trkpt lat="45.28839" lon="6.14838">
        <ele>2366.6000976562</ele>
        <time>2012-02-05T10:37:03.000Z</time>
      </trkpt>
      <trkpt lat="45.28839" lon="6.14838">
        <ele>2367.1999511719</ele>
        <time>2012-02-05T10:37:08.000Z</time>
      </trkpt>
      <trkpt lat="45.28839" lon="6.14834">
        <ele>2368.1999511719</ele>
        <time>2012-02-05T10:37:15.000Z</time>
      </trkpt>
      <trkpt lat="45.28839" lon="6.14827">
        <ele>2370.1999511719</ele>
        <time>2012-02-05T10:37:24.000Z</time>
      </trkpt>
      <trkpt lat="45.28838" lon="6.14822">
        <ele>2371</ele>
        <time>2012-02-05T10:37:31.000Z</time>
      </trkpt>
      <trkpt lat="45.28838" lon="6.14818">
        <ele>2372</ele>
        <time>2012-02-05T10:37:37.000Z</time>
      </trkpt>
      <trkpt lat="45.28838" lon="6.14812">
        <ele>2373.1999511719</ele>
        <time>2012-02-05T10:37:45.000Z</time>
      </trkpt>
      <trkpt lat="45.28839" lon="6.14809">
        <ele>2374.3999023438</ele>
        <time>2012-02-05T10:37:54.000Z</time>
      </trkpt>
      <trkpt lat="45.28841" lon="6.14812">
        <ele>2375</ele>
        <time>2012-02-05T10:38:02.000Z</time>
      </trkpt>
      <trkpt lat="45.28844" lon="6.14814">
        <ele>2376.1999511719</ele>
        <time>2012-02-05T10:38:09.000Z</time>
      </trkpt>
      <trkpt lat="45.28849" lon="6.14817">
        <ele>2377.8000488281</ele>
        <time>2012-02-05T10:38:18.000Z</time>
      </trkpt>
      <trkpt lat="45.28851" lon="6.14815">
        <ele>2379.1999511719</ele>
        <time>2012-02-05T10:38:25.000Z</time>
      </trkpt>
      <trkpt lat="45.28853" lon="6.14808">
        <ele>2380.6000976562</ele>
        <time>2012-02-05T10:38:33.000Z</time>
      </trkpt>
      <trkpt lat="45.28854" lon="6.14802">
        <ele>2381.8000488281</ele>
        <time>2012-02-05T10:38:41.000Z</time>
      </trkpt>
      <trkpt lat="45.28854" lon="6.14795">
        <ele>2383.3999023438</ele>
        <time>2012-02-05T10:38:50.000Z</time>
      </trkpt>
      <trkpt lat="45.28855" lon="6.1479">
        <ele>2384.8000488281</ele>
        <time>2012-02-05T10:38:57.000Z</time>
      </trkpt>
      <trkpt lat="45.28856" lon="6.14787">
        <ele>2386</ele>
        <time>2012-02-05T10:39:05.000Z</time>
      </trkpt>
      <trkpt lat="45.28861" lon="6.14788">
        <ele>2387.6000976562</ele>
        <time>2012-02-05T10:39:15.000Z</time>
      </trkpt>
      <trkpt lat="45.28865" lon="6.1479">
        <ele>2389.1999511719</ele>
        <time>2012-02-05T10:39:24.000Z</time>
      </trkpt>
      <trkpt lat="45.28868" lon="6.14792">
        <ele>2390.1999511719</ele>
        <time>2012-02-05T10:39:31.000Z</time>
      </trkpt>
      <trkpt lat="45.28869" lon="6.14791">
        <ele>2391</ele>
        <time>2012-02-05T10:39:36.000Z</time>
      </trkpt>
      <trkpt lat="45.28869" lon="6.14785">
        <ele>2392.1999511719</ele>
        <time>2012-02-05T10:39:44.000Z</time>
      </trkpt>
      <trkpt lat="45.28869" lon="6.14779">
        <ele>2393.8000488281</ele>
        <time>2012-02-05T10:39:53.000Z</time>
      </trkpt>
      <trkpt lat="45.2887" lon="6.14774">
        <ele>2395</ele>
        <time>2012-02-05T10:40:00.000Z</time>
      </trkpt>
      <trkpt lat="45.28871" lon="6.14771">
        <ele>2396.6000976562</ele>
        <time>2012-02-05T10:40:08.000Z</time>
      </trkpt>
      <trkpt lat="45.28875" lon="6.14773">
        <ele>2397.3999023438</ele>
        <time>2012-02-05T10:40:15.000Z</time>
      </trkpt>
      <trkpt lat="45.2888" lon="6.14773">
        <ele>2399</ele>
        <time>2012-02-05T10:40:24.000Z</time>
      </trkpt>
      <trkpt lat="45.28883" lon="6.14772">
        <ele>2400.1999511719</ele>
        <time>2012-02-05T10:40:31.000Z</time>
      </trkpt>
      <trkpt lat="45.28888" lon="6.14769">
        <ele>2402.1999511719</ele>
        <time>2012-02-05T10:40:42.000Z</time>
      </trkpt>
      <trkpt lat="45.28891" lon="6.14766">
        <ele>2403.1999511719</ele>
        <time>2012-02-05T10:40:49.000Z</time>
      </trkpt>
      <trkpt lat="45.28894" lon="6.14762">
        <ele>2404.8000488281</ele>
        <time>2012-02-05T10:40:58.000Z</time>
      </trkpt>
      <trkpt lat="45.28898" lon="6.14758">
        <ele>2406.1999511719</ele>
        <time>2012-02-05T10:41:06.000Z</time>
      </trkpt>
      <trkpt lat="45.28901" lon="6.14754">
        <ele>2407.6000976562</ele>
        <time>2012-02-05T10:41:15.000Z</time>
      </trkpt>
      <trkpt lat="45.28904" lon="6.14751">
        <ele>2408.6000976562</ele>
        <time>2012-02-05T10:41:22.000Z</time>
      </trkpt>
      <trkpt lat="45.28906" lon="6.14749">
        <ele>2409.8000488281</ele>
        <time>2012-02-05T10:41:28.000Z</time>
      </trkpt>
      <trkpt lat="45.28907" lon="6.14746">
        <ele>2410.6000976562</ele>
        <time>2012-02-05T10:41:33.000Z</time>
      </trkpt>
      <trkpt lat="45.28906" lon="6.14743">
        <ele>2411.6000976562</ele>
        <time>2012-02-05T10:41:39.000Z</time>
      </trkpt>
      <trkpt lat="45.28906" lon="6.1474">
        <ele>2412.3999023438</ele>
        <time>2012-02-05T10:41:44.000Z</time>
      </trkpt>
      <trkpt lat="45.28904" lon="6.14737">
        <ele>2413.1999511719</ele>
        <time>2012-02-05T10:41:50.000Z</time>
      </trkpt>
      <trkpt lat="45.28902" lon="6.14732">
        <ele>2414.3999023438</ele>
        <time>2012-02-05T10:41:57.000Z</time>
      </trkpt>
      <trkpt lat="45.289" lon="6.14728">
        <ele>2415.6000976562</ele>
        <time>2012-02-05T10:42:04.000Z</time>
      </trkpt>
      <trkpt lat="45.28898" lon="6.14722">
        <ele>2417</ele>
        <time>2012-02-05T10:42:14.000Z</time>
      </trkpt>
      <trkpt lat="45.28899" lon="6.14722">
        <ele>2417.1999511719</ele>
        <time>2012-02-05T10:42:18.000Z</time>
      </trkpt>
      <trkpt lat="45.28902" lon="6.14721">
        <ele>2418.3999023438</ele>
        <time>2012-02-05T10:42:24.000Z</time>
      </trkpt>
      <trkpt lat="45.28905" lon="6.1472">
        <ele>2419.6000976562</ele>
        <time>2012-02-05T10:42:31.000Z</time>
      </trkpt>
      <trkpt lat="45.28908" lon="6.14719">
        <ele>2420.6000976562</ele>
        <time>2012-02-05T10:42:37.000Z</time>
      </trkpt>
      <trkpt lat="45.2891" lon="6.14718">
        <ele>2421.3999023438</ele>
        <time>2012-02-05T10:42:43.000Z</time>
      </trkpt>
      <trkpt lat="45.28912" lon="6.14718">
        <ele>2422</ele>
        <time>2012-02-05T10:42:48.000Z</time>
      </trkpt>
      <trkpt lat="45.28912" lon="6.14716">
        <ele>2422.3999023438</ele>
        <time>2012-02-05T10:42:54.000Z</time>
      </trkpt>
      <trkpt lat="45.2891" lon="6.14709">
        <ele>2423.8000488281</ele>
        <time>2012-02-05T10:43:04.000Z</time>
      </trkpt>
      <trkpt lat="45.28909" lon="6.14704">
        <ele>2425</ele>
        <time>2012-02-05T10:43:11.000Z</time>
      </trkpt>
      <trkpt lat="45.28908" lon="6.14701">
        <ele>2425.8000488281</ele>
        <time>2012-02-05T10:43:17.000Z</time>
      </trkpt>
      <trkpt lat="45.28906" lon="6.14697">
        <ele>2427</ele>
        <time>2012-02-05T10:43:23.000Z</time>
      </trkpt>
      <trkpt lat="45.28905" lon="6.14694">
        <ele>2427.8000488281</ele>
        <time>2012-02-05T10:43:29.000Z</time>
      </trkpt>
      <trkpt lat="45.28903" lon="6.1469">
        <ele>2428.8000488281</ele>
        <time>2012-02-05T10:43:35.000Z</time>
      </trkpt>
      <trkpt lat="45.28901" lon="6.14684">
        <ele>2430.3999023438</ele>
        <time>2012-02-05T10:43:45.000Z</time>
      </trkpt>
      <trkpt lat="45.289" lon="6.14678">
        <ele>2432</ele>
        <time>2012-02-05T10:43:55.000Z</time>
      </trkpt>
      <trkpt lat="45.28899" lon="6.14675">
        <ele>2434</ele>
        <time>2012-02-05T10:44:02.000Z</time>
      </trkpt>
      <trkpt lat="45.28899" lon="6.14672">
        <ele>2434.6000976562</ele>
        <time>2012-02-05T10:44:08.000Z</time>
      </trkpt>
      <trkpt lat="45.28901" lon="6.1467">
        <ele>2435.3999023438</ele>
        <time>2012-02-05T10:44:13.000Z</time>
      </trkpt>
      <trkpt lat="45.28903" lon="6.14668">
        <ele>2436</ele>
        <time>2012-02-05T10:44:20.000Z</time>
      </trkpt>
      <trkpt lat="45.28906" lon="6.14667">
        <ele>2436.8000488281</ele>
        <time>2012-02-05T10:44:26.000Z</time>
      </trkpt>
      <trkpt lat="45.28908" lon="6.14666">
        <ele>2438</ele>
        <time>2012-02-05T10:44:32.000Z</time>
      </trkpt>
      <trkpt lat="45.28912" lon="6.14666">
        <ele>2439</ele>
        <time>2012-02-05T10:44:41.000Z</time>
      </trkpt>
      <trkpt lat="45.28915" lon="6.14666">
        <ele>2440</ele>
        <time>2012-02-05T10:44:47.000Z</time>
      </trkpt>
      <trkpt lat="45.28918" lon="6.14665">
        <ele>2441.3999023438</ele>
        <time>2012-02-05T10:44:53.000Z</time>
      </trkpt>
      <trkpt lat="45.2892" lon="6.14664">
        <ele>2442.3999023438</ele>
        <time>2012-02-05T10:44:59.000Z</time>
      </trkpt>
      <trkpt lat="45.28923" lon="6.14663">
        <ele>2443.6000976562</ele>
        <time>2012-02-05T10:45:05.000Z</time>
      </trkpt>
      <trkpt lat="45.28925" lon="6.14661">
        <ele>2444.6000976562</ele>
        <time>2012-02-05T10:45:12.000Z</time>
      </trkpt>
      <trkpt lat="45.28926" lon="6.14659">
        <ele>2445.6000976562</ele>
        <time>2012-02-05T10:45:17.000Z</time>
      </trkpt>
      <trkpt lat="45.28927" lon="6.14656">
        <ele>2446.3999023438</ele>
        <time>2012-02-05T10:45:22.000Z</time>
      </trkpt>
      <trkpt lat="45.28929" lon="6.1465">
        <ele>2448.1999511719</ele>
        <time>2012-02-05T10:45:32.000Z</time>
      </trkpt>
      <trkpt lat="45.2893" lon="6.14645">
        <ele>2449.3999023438</ele>
        <time>2012-02-05T10:45:40.000Z</time>
      </trkpt>
      <trkpt lat="45.28931" lon="6.14641">
        <ele>2450.6000976562</ele>
        <time>2012-02-05T10:45:46.000Z</time>
      </trkpt>
      <trkpt lat="45.28933" lon="6.14637">
        <ele>2451.6000976562</ele>
        <time>2012-02-05T10:45:53.000Z</time>
      </trkpt>
      <trkpt lat="45.28935" lon="6.14633">
        <ele>2453</ele>
        <time>2012-02-05T10:46:00.000Z</time>
      </trkpt>
      <trkpt lat="45.28939" lon="6.14628">
        <ele>2455</ele>
        <time>2012-02-05T10:46:11.000Z</time>
      </trkpt>
      <trkpt lat="45.28941" lon="6.14626">
        <ele>2456.1999511719</ele>
        <time>2012-02-05T10:46:18.000Z</time>
      </trkpt>
      <trkpt lat="45.28945" lon="6.14623">
        <ele>2457.6000976562</ele>
        <time>2012-02-05T10:46:26.000Z</time>
      </trkpt>
      <trkpt lat="45.28947" lon="6.1462">
        <ele>2458.8000488281</ele>
        <time>2012-02-05T10:46:33.000Z</time>
      </trkpt>
      <trkpt lat="45.28948" lon="6.14617">
        <ele>2459.8000488281</ele>
        <time>2012-02-05T10:46:39.000Z</time>
      </trkpt>
      <trkpt lat="45.2895" lon="6.14614">
        <ele>2460.8000488281</ele>
        <time>2012-02-05T10:46:45.000Z</time>
      </trkpt>
      <trkpt lat="45.28952" lon="6.14612">
        <ele>2461.6000976562</ele>
        <time>2012-02-05T10:46:51.000Z</time>
      </trkpt>
      <trkpt lat="45.28953" lon="6.14609">
        <ele>2462.6000976562</ele>
        <time>2012-02-05T10:46:56.000Z</time>
      </trkpt>
      <trkpt lat="45.28955" lon="6.14607">
        <ele>2463.6000976562</ele>
        <time>2012-02-05T10:47:02.000Z</time>
      </trkpt>
      <trkpt lat="45.28957" lon="6.14604">
        <ele>2464.6000976562</ele>
        <time>2012-02-05T10:47:08.000Z</time>
      </trkpt>
      <trkpt lat="45.28959" lon="6.14602">
        <ele>2465.6000976562</ele>
        <time>2012-02-05T10:47:14.000Z</time>
      </trkpt>
      <trkpt lat="45.28961" lon="6.14598">
        <ele>2466.8000488281</ele>
        <time>2012-02-05T10:47:21.000Z</time>
      </trkpt>
      <trkpt lat="45.28963" lon="6.14597">
        <ele>2467.8000488281</ele>
        <time>2012-02-05T10:47:26.000Z</time>
      </trkpt>
      <trkpt lat="45.28965" lon="6.14596">
        <ele>2468.6000976562</ele>
        <time>2012-02-05T10:47:31.000Z</time>
      </trkpt>
      <trkpt lat="45.28967" lon="6.14595">
        <ele>2469.6000976562</ele>
        <time>2012-02-05T10:47:36.000Z</time>
      </trkpt>
      <trkpt lat="45.28968" lon="6.14595">
        <ele>2470.3999023438</ele>
        <time>2012-02-05T10:47:41.000Z</time>
      </trkpt>
      <trkpt lat="45.28971" lon="6.14595">
        <ele>2471.6000976562</ele>
        <time>2012-02-05T10:47:48.000Z</time>
      </trkpt>
      <trkpt lat="45.28974" lon="6.14594">
        <ele>2472.6000976562</ele>
        <time>2012-02-05T10:47:55.000Z</time>
      </trkpt>
      <trkpt lat="45.28976" lon="6.14592">
        <ele>2473.8000488281</ele>
        <time>2012-02-05T10:48:01.000Z</time>
      </trkpt>
      <trkpt lat="45.28978" lon="6.14587">
        <ele>2475</ele>
        <time>2012-02-05T10:48:10.000Z</time>
      </trkpt>
      <trkpt lat="45.28978" lon="6.14584">
        <ele>2476.1999511719</ele>
        <time>2012-02-05T10:48:16.000Z</time>
      </trkpt>
      <trkpt lat="45.28979" lon="6.1458">
        <ele>2477.3999023438</ele>
        <time>2012-02-05T10:48:23.000Z</time>
      </trkpt>
      <trkpt lat="45.28981" lon="6.14574">
        <ele>2479</ele>
        <time>2012-02-05T10:48:32.000Z</time>
      </trkpt>
      <trkpt lat="45.28982" lon="6.14571">
        <ele>2480</ele>
        <time>2012-02-05T10:48:38.000Z</time>
      </trkpt>
      <trkpt lat="45.28984" lon="6.14567">
        <ele>2481.3999023438</ele>
        <time>2012-02-05T10:48:45.000Z</time>
      </trkpt>
      <trkpt lat="45.28986" lon="6.14563">
        <ele>2482.3999023438</ele>
        <time>2012-02-05T10:48:52.000Z</time>
      </trkpt>
      <trkpt lat="45.28988" lon="6.14559">
        <ele>2484</ele>
        <time>2012-02-05T10:49:00.000Z</time>
      </trkpt>
      <trkpt lat="45.2899" lon="6.14555">
        <ele>2485.1999511719</ele>
        <time>2012-02-05T10:49:07.000Z</time>
      </trkpt>
      <trkpt lat="45.28993" lon="6.14551">
        <ele>2486.8000488281</ele>
        <time>2012-02-05T10:49:17.000Z</time>
      </trkpt>
      <trkpt lat="45.29001" lon="6.14553">
        <ele>2487.6000976562</ele>
        <time>2012-02-05T10:49:26.000Z</time>
      </trkpt>
      <trkpt lat="45.29004" lon="6.14555">
        <ele>2487.3999023438</ele>
        <time>2012-02-05T10:50:08.000Z</time>
      </trkpt>
      <trkpt lat="45.28993" lon="6.14552">
        <ele>2487.1999511719</ele>
        <time>2012-02-05T10:51:53.000Z</time>
      </trkpt>
      <trkpt lat="45.28993" lon="6.14552">
        <ele>2486.6000976562</ele>
        <time>2012-02-05T10:52:10.000Z</time>
      </trkpt>
      <trkpt lat="45.28995" lon="6.1455">
        <ele>2487</ele>
        <time>2012-02-05T10:52:36.000Z</time>
      </trkpt>
      <trkpt lat="45.28996" lon="6.14549">
        <ele>2487.6000976562</ele>
        <time>2012-02-05T10:52:44.000Z</time>
      </trkpt>
      <trkpt lat="45.28996" lon="6.14549">
        <ele>2486.6000976562</ele>
        <time>2012-02-05T10:53:19.000Z</time>
      </trkpt>
      <trkpt lat="45.28988" lon="6.14521">
        <ele>2485.6000976562</ele>
        <time>2012-02-05T10:53:45.000Z</time>
      </trkpt>
      <trkpt lat="45.28995" lon="6.14544">
        <ele>2485.6000976562</ele>
        <time>2012-02-05T10:54:00.000Z</time>
      </trkpt>
      <trkpt lat="45.28995" lon="6.14543">
        <ele>2485.1999511719</ele>
        <time>2012-02-05T10:55:46.000Z</time>
      </trkpt>
      <trkpt lat="45.29" lon="6.1455">
        <ele>2485.1999511719</ele>
        <time>2012-02-05T10:56:04.000Z</time>
      </trkpt>
      <trkpt lat="45.29002" lon="6.14552">
        <ele>2486</ele>
        <time>2012-02-05T10:56:09.000Z</time>
      </trkpt>
      <trkpt lat="45.29008" lon="6.1456">
        <ele>2486.8000488281</ele>
        <time>2012-02-05T10:56:16.000Z</time>
      </trkpt>
      <trkpt lat="45.29011" lon="6.14563">
        <ele>2488</ele>
        <time>2012-02-05T10:56:22.000Z</time>
      </trkpt>
      <trkpt lat="45.29011" lon="6.14561">
        <ele>2488.8000488281</ele>
        <time>2012-02-05T10:56:27.000Z</time>
      </trkpt>
      <trkpt lat="45.29007" lon="6.14553">
        <ele>2492.3999023438</ele>
        <time>2012-02-05T10:56:46.000Z</time>
      </trkpt>
      <trkpt lat="45.29008" lon="6.14541">
        <ele>2494</ele>
        <time>2012-02-05T10:56:59.000Z</time>
      </trkpt>
      <trkpt lat="45.29008" lon="6.14536">
        <ele>2496</ele>
        <time>2012-02-05T10:57:11.000Z</time>
      </trkpt>
      <trkpt lat="45.29016" lon="6.14535">
        <ele>2497.6000976562</ele>
        <time>2012-02-05T10:57:19.000Z</time>
      </trkpt>
      <trkpt lat="45.29021" lon="6.14535">
        <ele>2498.3999023438</ele>
        <time>2012-02-05T10:57:24.000Z</time>
      </trkpt>
      <trkpt lat="45.29026" lon="6.14532">
        <ele>2500</ele>
        <time>2012-02-05T10:57:32.000Z</time>
      </trkpt>
      <trkpt lat="45.29025" lon="6.14535">
        <ele>2501.1999511719</ele>
        <time>2012-02-05T10:57:38.000Z</time>
      </trkpt>
      <trkpt lat="45.29031" lon="6.14531">
        <ele>2504.8000488281</ele>
        <time>2012-02-05T10:57:55.000Z</time>
      </trkpt>
      <trkpt lat="45.29037" lon="6.14528">
        <ele>2506.3999023438</ele>
        <time>2012-02-05T10:58:03.000Z</time>
      </trkpt>
      <trkpt lat="45.29043" lon="6.14525">
        <ele>2507</ele>
        <time>2012-02-05T10:58:08.000Z</time>
      </trkpt>
      <trkpt lat="45.29044" lon="6.14523">
        <ele>2507.8000488281</ele>
        <time>2012-02-05T10:58:12.000Z</time>
      </trkpt>
      <trkpt lat="45.2905" lon="6.14525">
        <ele>2508.8000488281</ele>
        <time>2012-02-05T10:58:19.000Z</time>
      </trkpt>
      <trkpt lat="45.29056" lon="6.14528">
        <ele>2509.8000488281</ele>
        <time>2012-02-05T10:58:26.000Z</time>
      </trkpt>
      <trkpt lat="45.29062" lon="6.14528">
        <ele>2510.8000488281</ele>
        <time>2012-02-05T10:58:32.000Z</time>
      </trkpt>
      <trkpt lat="45.29068" lon="6.14527">
        <ele>2511.3999023438</ele>
        <time>2012-02-05T10:58:38.000Z</time>
      </trkpt>
      <trkpt lat="45.29073" lon="6.14526">
        <ele>2512.6000976562</ele>
        <time>2012-02-05T10:58:45.000Z</time>
      </trkpt>
      <trkpt lat="45.29078" lon="6.14523">
        <ele>2513.6000976562</ele>
        <time>2012-02-05T10:58:51.000Z</time>
      </trkpt>
      <trkpt lat="45.29085" lon="6.14523">
        <ele>2515</ele>
        <time>2012-02-05T10:58:59.000Z</time>
      </trkpt>
      <trkpt lat="45.29087" lon="6.14519">
        <ele>2516</ele>
        <time>2012-02-05T10:59:05.000Z</time>
      </trkpt>
      <trkpt lat="45.29088" lon="6.14514">
        <ele>2517.3999023438</ele>
        <time>2012-02-05T10:59:13.000Z</time>
      </trkpt>
      <trkpt lat="45.29092" lon="6.14506">
        <ele>2520.1999511719</ele>
        <time>2012-02-05T10:59:26.000Z</time>
      </trkpt>
      <trkpt lat="45.29095" lon="6.14505">
        <ele>2520.6000976562</ele>
        <time>2012-02-05T10:59:31.000Z</time>
      </trkpt>
      <trkpt lat="45.29097" lon="6.14503">
        <ele>2521.3999023438</ele>
        <time>2012-02-05T10:59:36.000Z</time>
      </trkpt>
      <trkpt lat="45.29103" lon="6.14506">
        <ele>2521.8000488281</ele>
        <time>2012-02-05T10:59:42.000Z</time>
      </trkpt>
      <trkpt lat="45.29107" lon="6.14509">
        <ele>2522.3999023438</ele>
        <time>2012-02-05T10:59:49.000Z</time>
      </trkpt>
      <trkpt lat="45.29113" lon="6.14509">
        <ele>2523.3999023438</ele>
        <time>2012-02-05T10:59:58.000Z</time>
      </trkpt>
      <trkpt lat="45.29116" lon="6.14506">
        <ele>2524.8000488281</ele>
        <time>2012-02-05T11:00:05.000Z</time>
      </trkpt>
      <trkpt lat="45.29117" lon="6.14499">
        <ele>2526.6000976562</ele>
        <time>2012-02-05T11:00:12.000Z</time>
      </trkpt>
      <trkpt lat="45.29121" lon="6.14497">
        <ele>2527.8000488281</ele>
        <time>2012-02-05T11:00:19.000Z</time>
      </trkpt>
      <trkpt lat="45.29126" lon="6.14494">
        <ele>2529.1999511719</ele>
        <time>2012-02-05T11:00:29.000Z</time>
      </trkpt>
      <trkpt lat="45.29131" lon="6.14493">
        <ele>2530.1999511719</ele>
        <time>2012-02-05T11:00:35.000Z</time>
      </trkpt>
      <trkpt lat="45.29137" lon="6.1449">
        <ele>2531.6000976562</ele>
        <time>2012-02-05T11:00:43.000Z</time>
      </trkpt>
      <trkpt lat="45.29138" lon="6.14484">
        <ele>2532.6000976562</ele>
        <time>2012-02-05T11:00:51.000Z</time>
      </trkpt>
      <trkpt lat="45.29144" lon="6.14487">
        <ele>2533.3999023438</ele>
        <time>2012-02-05T11:00:58.000Z</time>
      </trkpt>
      <trkpt lat="45.2915" lon="6.14491">
        <ele>2534.3999023438</ele>
        <time>2012-02-05T11:01:06.000Z</time>
      </trkpt>
      <trkpt lat="45.29155" lon="6.14491">
        <ele>2535.6000976562</ele>
        <time>2012-02-05T11:01:13.000Z</time>
      </trkpt>
      <trkpt lat="45.2916" lon="6.14487">
        <ele>2537</ele>
        <time>2012-02-05T11:01:23.000Z</time>
      </trkpt>
      <trkpt lat="45.29161" lon="6.14484">
        <ele>2538</ele>
        <time>2012-02-05T11:01:29.000Z</time>
      </trkpt>
      <trkpt lat="45.29165" lon="6.14483">
        <ele>2538.8000488281</ele>
        <time>2012-02-05T11:01:35.000Z</time>
      </trkpt>
      <trkpt lat="45.29167" lon="6.14482">
        <ele>2539.6000976562</ele>
        <time>2012-02-05T11:01:40.000Z</time>
      </trkpt>
      <trkpt lat="45.29171" lon="6.14483">
        <ele>2540.1999511719</ele>
        <time>2012-02-05T11:01:45.000Z</time>
      </trkpt>
      <trkpt lat="45.29176" lon="6.14487">
        <ele>2541.1999511719</ele>
        <time>2012-02-05T11:01:52.000Z</time>
      </trkpt>
      <trkpt lat="45.29178" lon="6.14487">
        <ele>2541.8000488281</ele>
        <time>2012-02-05T11:01:56.000Z</time>
      </trkpt>
      <trkpt lat="45.29181" lon="6.14486">
        <ele>2543</ele>
        <time>2012-02-05T11:02:02.000Z</time>
      </trkpt>
      <trkpt lat="45.29182" lon="6.14484">
        <ele>2543.6000976562</ele>
        <time>2012-02-05T11:02:07.000Z</time>
      </trkpt>
      <trkpt lat="45.29186" lon="6.14484">
        <ele>2545</ele>
        <time>2012-02-05T11:02:16.000Z</time>
      </trkpt>
      <trkpt lat="45.29188" lon="6.14485">
        <ele>2545.6000976562</ele>
        <time>2012-02-05T11:02:21.000Z</time>
      </trkpt>
      <trkpt lat="45.29192" lon="6.14484">
        <ele>2546.6000976562</ele>
        <time>2012-02-05T11:02:27.000Z</time>
      </trkpt>
      <trkpt lat="45.29199" lon="6.14483">
        <ele>2547.8000488281</ele>
        <time>2012-02-05T11:02:36.000Z</time>
      </trkpt>
      <trkpt lat="45.29204" lon="6.14483">
        <ele>2549.3999023438</ele>
        <time>2012-02-05T11:02:45.000Z</time>
      </trkpt>
      <trkpt lat="45.29206" lon="6.14481">
        <ele>2550.8000488281</ele>
        <time>2012-02-05T11:02:55.000Z</time>
      </trkpt>
      <trkpt lat="45.29213" lon="6.14486">
        <ele>2552.3999023438</ele>
        <time>2012-02-05T11:03:04.000Z</time>
      </trkpt>
      <trkpt lat="45.29217" lon="6.14488">
        <ele>2553.6000976562</ele>
        <time>2012-02-05T11:03:11.000Z</time>
      </trkpt>
      <trkpt lat="45.29221" lon="6.14485">
        <ele>2554.6000976562</ele>
        <time>2012-02-05T11:03:18.000Z</time>
      </trkpt>
      <trkpt lat="45.29222" lon="6.14486">
        <ele>2555</ele>
        <time>2012-02-05T11:03:24.000Z</time>
      </trkpt>
      <trkpt lat="45.29224" lon="6.14488">
        <ele>2556.1999511719</ele>
        <time>2012-02-05T11:03:32.000Z</time>
      </trkpt>
      <trkpt lat="45.29225" lon="6.14489">
        <ele>2557</ele>
        <time>2012-02-05T11:03:38.000Z</time>
      </trkpt>
      <trkpt lat="45.29226" lon="6.14491">
        <ele>2557.8000488281</ele>
        <time>2012-02-05T11:03:44.000Z</time>
      </trkpt>
      <trkpt lat="45.29227" lon="6.14491">
        <ele>2558.1999511719</ele>
        <time>2012-02-05T11:03:51.000Z</time>
      </trkpt>
      <trkpt lat="45.29228" lon="6.1449">
        <ele>2558.6000976562</ele>
        <time>2012-02-05T11:04:15.000Z</time>
      </trkpt>
      <trkpt lat="45.29222" lon="6.14483">
        <ele>2560.3999023438</ele>
        <time>2012-02-05T11:04:27.000Z</time>
      </trkpt>
      <trkpt lat="45.29223" lon="6.14465">
        <ele>2563.1999511719</ele>
        <time>2012-02-05T11:04:43.000Z</time>
      </trkpt>
      <trkpt lat="45.29224" lon="6.14457">
        <ele>2564</ele>
        <time>2012-02-05T11:04:48.000Z</time>
      </trkpt>
      <trkpt lat="45.29226" lon="6.14452">
        <ele>2565</ele>
        <time>2012-02-05T11:04:54.000Z</time>
      </trkpt>
      <trkpt lat="45.29228" lon="6.14453">
        <ele>2565.8000488281</ele>
        <time>2012-02-05T11:05:00.000Z</time>
      </trkpt>
      <trkpt lat="45.29232" lon="6.14458">
        <ele>2567</ele>
        <time>2012-02-05T11:05:06.000Z</time>
      </trkpt>
      <trkpt lat="45.29237" lon="6.14463">
        <ele>2568.1999511719</ele>
        <time>2012-02-05T11:05:13.000Z</time>
      </trkpt>
      <trkpt lat="45.2924" lon="6.14467">
        <ele>2569.1999511719</ele>
        <time>2012-02-05T11:05:20.000Z</time>
      </trkpt>
      <trkpt lat="45.29242" lon="6.1447">
        <ele>2570</ele>
        <time>2012-02-05T11:05:25.000Z</time>
      </trkpt>
      <trkpt lat="45.29243" lon="6.14472">
        <ele>2570.8000488281</ele>
        <time>2012-02-05T11:05:31.000Z</time>
      </trkpt>
      <trkpt lat="45.29242" lon="6.14469">
        <ele>2571.3999023438</ele>
        <time>2012-02-05T11:05:39.000Z</time>
      </trkpt>
      <trkpt lat="45.29243" lon="6.14466">
        <ele>2572.3999023438</ele>
        <time>2012-02-05T11:05:44.000Z</time>
      </trkpt>
      <trkpt lat="45.29244" lon="6.14464">
        <ele>2573</ele>
        <time>2012-02-05T11:05:52.000Z</time>
      </trkpt>
      <trkpt lat="45.29247" lon="6.14454">
        <ele>2574.8000488281</ele>
        <time>2012-02-05T11:06:00.000Z</time>
      </trkpt>
      <trkpt lat="45.2925" lon="6.14445">
        <ele>2576</ele>
        <time>2012-02-05T11:06:08.000Z</time>
      </trkpt>
      <trkpt lat="45.29252" lon="6.1444">
        <ele>2576.8000488281</ele>
        <time>2012-02-05T11:06:15.000Z</time>
      </trkpt>
      <trkpt lat="45.29252" lon="6.14442">
        <ele>2578</ele>
        <time>2012-02-05T11:07:24.000Z</time>
      </trkpt>
      <trkpt lat="45.29255" lon="6.14446">
        <ele>2579.6000976562</ele>
        <time>2012-02-05T11:07:33.000Z</time>
      </trkpt>
      <trkpt lat="45.29257" lon="6.14449">
        <ele>2581</ele>
        <time>2012-02-05T11:07:40.000Z</time>
      </trkpt>
      <trkpt lat="45.29261" lon="6.14445">
        <ele>2582.3999023438</ele>
        <time>2012-02-05T11:07:49.000Z</time>
      </trkpt>
      <trkpt lat="45.29262" lon="6.14437">
        <ele>2584</ele>
        <time>2012-02-05T11:07:57.000Z</time>
      </trkpt>
      <trkpt lat="45.29263" lon="6.14433">
        <ele>2584.6000976562</ele>
        <time>2012-02-05T11:08:02.000Z</time>
      </trkpt>
      <trkpt lat="45.29263" lon="6.14428">
        <ele>2585.6000976562</ele>
        <time>2012-02-05T11:08:08.000Z</time>
      </trkpt>
      <trkpt lat="45.29268" lon="6.14425">
        <ele>2588</ele>
        <time>2012-02-05T11:08:23.000Z</time>
      </trkpt>
      <trkpt lat="45.29269" lon="6.14425">
        <ele>2589</ele>
        <time>2012-02-05T11:08:28.000Z</time>
      </trkpt>
      <trkpt lat="45.29276" lon="6.14424">
        <ele>2590.8000488281</ele>
        <time>2012-02-05T11:08:38.000Z</time>
      </trkpt>
      <trkpt lat="45.29282" lon="6.14425">
        <ele>2592.3999023438</ele>
        <time>2012-02-05T11:08:46.000Z</time>
      </trkpt>
      <trkpt lat="45.29285" lon="6.14428">
        <ele>2593.6000976562</ele>
        <time>2012-02-05T11:08:53.000Z</time>
      </trkpt>
      <trkpt lat="45.29287" lon="6.14431">
        <ele>2594.6000976562</ele>
        <time>2012-02-05T11:08:59.000Z</time>
      </trkpt>
      <trkpt lat="45.29289" lon="6.14434">
        <ele>2595.8000488281</ele>
        <time>2012-02-05T11:09:06.000Z</time>
      </trkpt>
      <trkpt lat="45.2929" lon="6.14434">
        <ele>2596.8000488281</ele>
        <time>2012-02-05T11:09:14.000Z</time>
      </trkpt>
      <trkpt lat="45.29294" lon="6.14437">
        <ele>2597.6000976562</ele>
        <time>2012-02-05T11:09:19.000Z</time>
      </trkpt>
      <trkpt lat="45.29299" lon="6.14441">
        <ele>2598.8000488281</ele>
        <time>2012-02-05T11:09:26.000Z</time>
      </trkpt>
      <trkpt lat="45.29305" lon="6.14444">
        <ele>2600.1999511719</ele>
        <time>2012-02-05T11:09:34.000Z</time>
      </trkpt>
      <trkpt lat="45.29308" lon="6.14445">
        <ele>2601.3999023438</ele>
        <time>2012-02-05T11:09:41.000Z</time>
      </trkpt>
      <trkpt lat="45.2931" lon="6.14445">
        <ele>2602.3999023438</ele>
        <time>2012-02-05T11:09:47.000Z</time>
      </trkpt>
      <trkpt lat="45.29322" lon="6.14436">
        <ele>2608.8000488281</ele>
        <time>2012-02-05T11:10:29.000Z</time>
      </trkpt>
      <trkpt lat="45.29329" lon="6.14435">
        <ele>2610.1999511719</ele>
        <time>2012-02-05T11:10:36.000Z</time>
      </trkpt>
      <trkpt lat="45.29333" lon="6.14437">
        <ele>2611.6000976562</ele>
        <time>2012-02-05T11:10:45.000Z</time>
      </trkpt>
      <trkpt lat="45.29337" lon="6.1444">
        <ele>2613</ele>
        <time>2012-02-05T11:10:53.000Z</time>
      </trkpt>
      <trkpt lat="45.29338" lon="6.14441">
        <ele>2613.8000488281</ele>
        <time>2012-02-05T11:10:59.000Z</time>
      </trkpt>
      <trkpt lat="45.29338" lon="6.14441">
        <ele>2614.3999023438</ele>
        <time>2012-02-05T11:11:04.000Z</time>
      </trkpt>
      <trkpt lat="45.29339" lon="6.14439">
        <ele>2615.1999511719</ele>
        <time>2012-02-05T11:11:16.000Z</time>
      </trkpt>
      <trkpt lat="45.29337" lon="6.14438">
        <ele>2616.1999511719</ele>
        <time>2012-02-05T11:11:23.000Z</time>
      </trkpt>
      <trkpt lat="45.29345" lon="6.14431">
        <ele>2623.1999511719</ele>
        <time>2012-02-05T11:12:02.000Z</time>
      </trkpt>
      <trkpt lat="45.29347" lon="6.14424">
        <ele>2624.3999023438</ele>
        <time>2012-02-05T11:12:09.000Z</time>
      </trkpt>
      <trkpt lat="45.2936" lon="6.14416">
        <ele>2628.8000488281</ele>
        <time>2012-02-05T11:12:36.000Z</time>
      </trkpt>
      <trkpt lat="45.29366" lon="6.14415">
        <ele>2629.8000488281</ele>
        <time>2012-02-05T11:12:41.000Z</time>
      </trkpt>
      <trkpt lat="45.29369" lon="6.14416">
        <ele>2630.3999023438</ele>
        <time>2012-02-05T11:12:47.000Z</time>
      </trkpt>
      <trkpt lat="45.29371" lon="6.1442">
        <ele>2631.3999023438</ele>
        <time>2012-02-05T11:12:53.000Z</time>
      </trkpt>
      <trkpt lat="45.29372" lon="6.14425">
        <ele>2632.8000488281</ele>
        <time>2012-02-05T11:13:04.000Z</time>
      </trkpt>
      <trkpt lat="45.29384" lon="6.14444">
        <ele>2636.8000488281</ele>
        <time>2012-02-05T11:13:33.000Z</time>
      </trkpt>
      <trkpt lat="45.29387" lon="6.14444">
        <ele>2637.3999023438</ele>
        <time>2012-02-05T11:13:38.000Z</time>
      </trkpt>
      <trkpt lat="45.29388" lon="6.14442">
        <ele>2638.3999023438</ele>
        <time>2012-02-05T11:13:43.000Z</time>
      </trkpt>
      <trkpt lat="45.29393" lon="6.14441">
        <ele>2639.8000488281</ele>
        <time>2012-02-05T11:13:53.000Z</time>
      </trkpt>
      <trkpt lat="45.29398" lon="6.14435">
        <ele>2641.6000976562</ele>
        <time>2012-02-05T11:14:05.000Z</time>
      </trkpt>
      <trkpt lat="45.29401" lon="6.14432">
        <ele>2643</ele>
        <time>2012-02-05T11:14:13.000Z</time>
      </trkpt>
      <trkpt lat="45.29407" lon="6.14425">
        <ele>2644.6000976562</ele>
        <time>2012-02-05T11:14:23.000Z</time>
      </trkpt>
      <trkpt lat="45.29411" lon="6.14423">
        <ele>2645.3999023438</ele>
        <time>2012-02-05T11:14:28.000Z</time>
      </trkpt>
      <trkpt lat="45.29413" lon="6.14423">
        <ele>2646.3999023438</ele>
        <time>2012-02-05T11:14:33.000Z</time>
      </trkpt>
      <trkpt lat="45.29417" lon="6.14422">
        <ele>2647.3999023438</ele>
        <time>2012-02-05T11:14:39.000Z</time>
      </trkpt>
      <trkpt lat="45.29418" lon="6.1442">
        <ele>2648.3999023438</ele>
        <time>2012-02-05T11:14:46.000Z</time>
      </trkpt>
      <trkpt lat="45.29422" lon="6.1442">
        <ele>2649.1999511719</ele>
        <time>2012-02-05T11:14:56.000Z</time>
      </trkpt>
      <trkpt lat="45.29421" lon="6.14418">
        <ele>2649.8000488281</ele>
        <time>2012-02-05T11:15:01.000Z</time>
      </trkpt>
      <trkpt lat="45.29419" lon="6.14417">
        <ele>2650.6000976562</ele>
        <time>2012-02-05T11:15:07.000Z</time>
      </trkpt>
      <trkpt lat="45.29417" lon="6.1442">
        <ele>2652.3999023438</ele>
        <time>2012-02-05T11:15:18.000Z</time>
      </trkpt>
      <trkpt lat="45.29413" lon="6.14419">
        <ele>2653.3999023438</ele>
        <time>2012-02-05T11:15:28.000Z</time>
      </trkpt>
      <trkpt lat="45.29419" lon="6.14413">
        <ele>2654.1999511719</ele>
        <time>2012-02-05T11:16:06.000Z</time>
      </trkpt>
      <trkpt lat="45.29422" lon="6.14415">
        <ele>2655</ele>
        <time>2012-02-05T11:16:11.000Z</time>
      </trkpt>
      <trkpt lat="45.29428" lon="6.14422">
        <ele>2656.6000976562</ele>
        <time>2012-02-05T11:16:20.000Z</time>
      </trkpt>
      <trkpt lat="45.29432" lon="6.14423">
        <ele>2657.8000488281</ele>
        <time>2012-02-05T11:16:26.000Z</time>
      </trkpt>
      <trkpt lat="45.29435" lon="6.14421">
        <ele>2659</ele>
        <time>2012-02-05T11:16:32.000Z</time>
      </trkpt>
      <trkpt lat="45.29437" lon="6.14419">
        <ele>2660</ele>
        <time>2012-02-05T11:16:39.000Z</time>
      </trkpt>
      <trkpt lat="45.29438" lon="6.1442">
        <ele>2660.8000488281</ele>
        <time>2012-02-05T11:16:44.000Z</time>
      </trkpt>
      <trkpt lat="45.2944" lon="6.14407">
        <ele>2664</ele>
        <time>2012-02-05T11:17:01.000Z</time>
      </trkpt>
      <trkpt lat="45.29443" lon="6.14403">
        <ele>2664.8000488281</ele>
        <time>2012-02-05T11:17:08.000Z</time>
      </trkpt>
      <trkpt lat="45.29452" lon="6.14392">
        <ele>2666.8000488281</ele>
        <time>2012-02-05T11:17:32.000Z</time>
      </trkpt>
      <trkpt lat="45.29451" lon="6.14392">
        <ele>2667.6000976562</ele>
        <time>2012-02-05T11:17:37.000Z</time>
      </trkpt>
      <trkpt lat="45.29451" lon="6.14396">
        <ele>2668.8000488281</ele>
        <time>2012-02-05T11:17:44.000Z</time>
      </trkpt>
      <trkpt lat="45.29452" lon="6.14402">
        <ele>2670.1999511719</ele>
        <time>2012-02-05T11:17:53.000Z</time>
      </trkpt>
      <trkpt lat="45.29453" lon="6.14406">
        <ele>2671.3999023438</ele>
        <time>2012-02-05T11:17:59.000Z</time>
      </trkpt>
      <trkpt lat="45.29452" lon="6.14412">
        <ele>2672.6000976562</ele>
        <time>2012-02-05T11:18:07.000Z</time>
      </trkpt>
      <trkpt lat="45.29455" lon="6.14415">
        <ele>2673.6000976562</ele>
        <time>2012-02-05T11:18:15.000Z</time>
      </trkpt>
      <trkpt lat="45.29455" lon="6.14418">
        <ele>2674.1999511719</ele>
        <time>2012-02-05T11:18:20.000Z</time>
      </trkpt>
      <trkpt lat="45.29457" lon="6.14417">
        <ele>2675</ele>
        <time>2012-02-05T11:18:27.000Z</time>
      </trkpt>
      <trkpt lat="45.29464" lon="6.14413">
        <ele>2679.1999511719</ele>
        <time>2012-02-05T11:18:54.000Z</time>
      </trkpt>
      <trkpt lat="45.29468" lon="6.14412">
        <ele>2680.1999511719</ele>
        <time>2012-02-05T11:19:01.000Z</time>
      </trkpt>
      <trkpt lat="45.29472" lon="6.14408">
        <ele>2680.8000488281</ele>
        <time>2012-02-05T11:19:07.000Z</time>
      </trkpt>
      <trkpt lat="45.29477" lon="6.14407">
        <ele>2682.8000488281</ele>
        <time>2012-02-05T11:19:19.000Z</time>
      </trkpt>
      <trkpt lat="45.29477" lon="6.1441">
        <ele>2683.6000976562</ele>
        <time>2012-02-05T11:19:26.000Z</time>
      </trkpt>
      <trkpt lat="45.29478" lon="6.14411">
        <ele>2684.8000488281</ele>
        <time>2012-02-05T11:19:34.000Z</time>
      </trkpt>
      <trkpt lat="45.29477" lon="6.14412">
        <ele>2685.6000976562</ele>
        <time>2012-02-05T11:19:39.000Z</time>
      </trkpt>
      <trkpt lat="45.29474" lon="6.14412">
        <ele>2687</ele>
        <time>2012-02-05T11:19:51.000Z</time>
      </trkpt>
      <trkpt lat="45.2948" lon="6.14416">
        <ele>2688.8000488281</ele>
        <time>2012-02-05T11:20:04.000Z</time>
      </trkpt>
      <trkpt lat="45.29485" lon="6.14419">
        <ele>2690.6000976562</ele>
        <time>2012-02-05T11:20:14.000Z</time>
      </trkpt>
      <trkpt lat="45.29488" lon="6.14417">
        <ele>2691.1999511719</ele>
        <time>2012-02-05T11:20:19.000Z</time>
      </trkpt>
      <trkpt lat="45.29492" lon="6.14419">
        <ele>2692.6000976562</ele>
        <time>2012-02-05T11:20:28.000Z</time>
      </trkpt>
      <trkpt lat="45.29496" lon="6.14418">
        <ele>2693.3999023438</ele>
        <time>2012-02-05T11:20:34.000Z</time>
      </trkpt>
      <trkpt lat="45.29498" lon="6.1441">
        <ele>2695</ele>
        <time>2012-02-05T11:20:44.000Z</time>
      </trkpt>
      <trkpt lat="45.295" lon="6.14404">
        <ele>2695.8000488281</ele>
        <time>2012-02-05T11:20:51.000Z</time>
      </trkpt>
      <trkpt lat="45.29502" lon="6.14401">
        <ele>2696.8000488281</ele>
        <time>2012-02-05T11:20:57.000Z</time>
      </trkpt>
      <trkpt lat="45.29503" lon="6.14402">
        <ele>2697.8000488281</ele>
        <time>2012-02-05T11:21:25.000Z</time>
      </trkpt>
      <trkpt lat="45.29504" lon="6.14404">
        <ele>2699.3999023438</ele>
        <time>2012-02-05T11:21:33.000Z</time>
      </trkpt>
      <trkpt lat="45.29501" lon="6.14403">
        <ele>2700.1999511719</ele>
        <time>2012-02-05T11:21:39.000Z</time>
      </trkpt>
      <trkpt lat="45.29503" lon="6.14409">
        <ele>2701.1999511719</ele>
        <time>2012-02-05T11:21:46.000Z</time>
      </trkpt>
      <trkpt lat="45.29507" lon="6.14416">
        <ele>2701.6000976562</ele>
        <time>2012-02-05T11:22:06.000Z</time>
      </trkpt>
      <trkpt lat="45.2951" lon="6.14417">
        <ele>2702.3999023438</ele>
        <time>2012-02-05T11:22:12.000Z</time>
      </trkpt>
      <trkpt lat="45.29513" lon="6.14418">
        <ele>2703.3999023438</ele>
        <time>2012-02-05T11:22:18.000Z</time>
      </trkpt>
      <trkpt lat="45.29513" lon="6.14413">
        <ele>2704.8000488281</ele>
        <time>2012-02-05T11:22:27.000Z</time>
      </trkpt>
      <trkpt lat="45.29514" lon="6.14412">
        <ele>2706</ele>
        <time>2012-02-05T11:22:35.000Z</time>
      </trkpt>
      <trkpt lat="45.29517" lon="6.1441">
        <ele>2707.1999511719</ele>
        <time>2012-02-05T11:22:43.000Z</time>
      </trkpt>
      <trkpt lat="45.29526" lon="6.14399">
        <ele>2711.6000976562</ele>
        <time>2012-02-05T11:23:15.000Z</time>
      </trkpt>
      <trkpt lat="45.29526" lon="6.14398">
        <ele>2712.6000976562</ele>
        <time>2012-02-05T11:23:22.000Z</time>
      </trkpt>
      <trkpt lat="45.29524" lon="6.14398">
        <ele>2713.3999023438</ele>
        <time>2012-02-05T11:23:27.000Z</time>
      </trkpt>
      <trkpt lat="45.29524" lon="6.144">
        <ele>2714</ele>
        <time>2012-02-05T11:23:34.000Z</time>
      </trkpt>
      <trkpt lat="45.29526" lon="6.14399">
        <ele>2714.6000976562</ele>
        <time>2012-02-05T11:23:49.000Z</time>
      </trkpt>
      <trkpt lat="45.2953" lon="6.14402">
        <ele>2715.1999511719</ele>
        <time>2012-02-05T11:23:56.000Z</time>
      </trkpt>
      <trkpt lat="45.29535" lon="6.14402">
        <ele>2716.6000976562</ele>
        <time>2012-02-05T11:24:52.000Z</time>
      </trkpt>
      <trkpt lat="45.29537" lon="6.144">
        <ele>2717.3999023438</ele>
        <time>2012-02-05T11:24:59.000Z</time>
      </trkpt>
      <trkpt lat="45.29536" lon="6.14394">
        <ele>2717.8000488281</ele>
        <time>2012-02-05T11:25:07.000Z</time>
      </trkpt>
      <trkpt lat="45.29537" lon="6.14389">
        <ele>2718.3999023438</ele>
        <time>2012-02-05T11:25:15.000Z</time>
      </trkpt>
      <trkpt lat="45.29537" lon="6.14383">
        <ele>2718.8000488281</ele>
        <time>2012-02-05T11:25:22.000Z</time>
      </trkpt>
      <trkpt lat="45.29538" lon="6.14378">
        <ele>2719.6000976562</ele>
        <time>2012-02-05T11:25:29.000Z</time>
      </trkpt>
      <trkpt lat="45.29537" lon="6.14371">
        <ele>2721</ele>
        <time>2012-02-05T11:25:39.000Z</time>
      </trkpt>
      <trkpt lat="45.29538" lon="6.14369">
        <ele>2721.3999023438</ele>
        <time>2012-02-05T11:25:44.000Z</time>
      </trkpt>
      <trkpt lat="45.29542" lon="6.14362">
        <ele>2722.6000976562</ele>
        <time>2012-02-05T11:25:53.000Z</time>
      </trkpt>
      <trkpt lat="45.29546" lon="6.14358">
        <ele>2723.6000976562</ele>
        <time>2012-02-05T11:26:00.000Z</time>
      </trkpt>
      <trkpt lat="45.29549" lon="6.14356">
        <ele>2724.1999511719</ele>
        <time>2012-02-05T11:26:06.000Z</time>
      </trkpt>
      <trkpt lat="45.29552" lon="6.14343">
        <ele>2726.8000488281</ele>
        <time>2012-02-05T11:26:39.000Z</time>
      </trkpt>
      <trkpt lat="45.29554" lon="6.14341">
        <ele>2727.6000976562</ele>
        <time>2012-02-05T11:26:46.000Z</time>
      </trkpt>
      <trkpt lat="45.29556" lon="6.14337">
        <ele>2728.3999023438</ele>
        <time>2012-02-05T11:26:52.000Z</time>
      </trkpt>
      <trkpt lat="45.29556" lon="6.14341">
        <ele>2728.3999023438</ele>
        <time>2012-02-05T11:27:03.000Z</time>
      </trkpt>
      <trkpt lat="45.29556" lon="6.14342">
        <ele>2729.1999511719</ele>
        <time>2012-02-05T11:27:13.000Z</time>
      </trkpt>
      <trkpt lat="45.29557" lon="6.14346">
        <ele>2731.1999511719</ele>
        <time>2012-02-05T11:27:29.000Z</time>
      </trkpt>
      <trkpt lat="45.29557" lon="6.14353">
        <ele>2731.8000488281</ele>
        <time>2012-02-05T11:27:43.000Z</time>
      </trkpt>
      <trkpt lat="45.2956" lon="6.14354">
        <ele>2733.3999023438</ele>
        <time>2012-02-05T11:28:10.000Z</time>
      </trkpt>
      <trkpt lat="45.29562" lon="6.14356">
        <ele>2733.3999023438</ele>
        <time>2012-02-05T11:28:16.000Z</time>
      </trkpt>
      <trkpt lat="45.29561" lon="6.14355">
        <ele>2733.3999023438</ele>
        <time>2012-02-05T11:28:29.000Z</time>
      </trkpt>
      <trkpt lat="45.29567" lon="6.14362">
        <ele>2734.6000976562</ele>
        <time>2012-02-05T11:28:53.000Z</time>
      </trkpt>
      <trkpt lat="45.29567" lon="6.14355">
        <ele>2736</ele>
        <time>2012-02-05T11:29:10.000Z</time>
      </trkpt>
      <trkpt lat="45.29567" lon="6.1435">
        <ele>2736.3999023438</ele>
        <time>2012-02-05T11:29:15.000Z</time>
      </trkpt>
      <trkpt lat="45.29566" lon="6.14345">
        <ele>2737.1999511719</ele>
        <time>2012-02-05T11:29:21.000Z</time>
      </trkpt>
      <trkpt lat="45.29566" lon="6.14343">
        <ele>2737.6000976562</ele>
        <time>2012-02-05T11:29:28.000Z</time>
      </trkpt>
      <trkpt lat="45.29568" lon="6.14346">
        <ele>2737.3999023438</ele>
        <time>2012-02-05T11:29:48.000Z</time>
      </trkpt>
      <trkpt lat="45.29566" lon="6.14343">
        <ele>2738</ele>
        <time>2012-02-05T11:29:54.000Z</time>
      </trkpt>
      <trkpt lat="45.29568" lon="6.14345">
        <ele>2738.1999511719</ele>
        <time>2012-02-05T11:30:02.000Z</time>
      </trkpt>
      <trkpt lat="45.29569" lon="6.14349">
        <ele>2738.6000976562</ele>
        <time>2012-02-05T11:30:08.000Z</time>
      </trkpt>
      <trkpt lat="45.29568" lon="6.14347">
        <ele>2739.1999511719</ele>
        <time>2012-02-05T11:30:20.000Z</time>
      </trkpt>
      <trkpt lat="45.29565" lon="6.14349">
        <ele>2740.6000976562</ele>
        <time>2012-02-05T11:30:30.000Z</time>
      </trkpt>
      <trkpt lat="45.29564" lon="6.14355">
        <ele>2741.8000488281</ele>
        <time>2012-02-05T11:31:05.000Z</time>
      </trkpt>
      <trkpt lat="45.29571" lon="6.14362">
        <ele>2743</ele>
        <time>2012-02-05T11:31:24.000Z</time>
      </trkpt>
      <trkpt lat="45.29574" lon="6.14365">
        <ele>2743.1999511719</ele>
        <time>2012-02-05T11:31:35.000Z</time>
      </trkpt>
      <trkpt lat="45.29575" lon="6.14364">
        <ele>2744.1999511719</ele>
        <time>2012-02-05T11:31:45.000Z</time>
      </trkpt>
      <trkpt lat="45.29576" lon="6.1436">
        <ele>2745.6000976562</ele>
        <time>2012-02-05T11:31:56.000Z</time>
      </trkpt>
      <trkpt lat="45.29579" lon="6.14358">
        <ele>2746</ele>
        <time>2012-02-05T11:32:09.000Z</time>
      </trkpt>
      <trkpt lat="45.29584" lon="6.14366">
        <ele>2746</ele>
        <time>2012-02-05T11:32:39.000Z</time>
      </trkpt>
      <trkpt lat="45.29588" lon="6.14367">
        <ele>2745.8000488281</ele>
        <time>2012-02-05T11:32:46.000Z</time>
      </trkpt>
      <trkpt lat="45.29581" lon="6.1436">
        <ele>2745.1999511719</ele>
        <time>2012-02-05T11:33:19.000Z</time>
      </trkpt>
      <trkpt lat="45.29581" lon="6.14359">
        <ele>2745.1999511719</ele>
        <time>2012-02-05T11:33:23.000Z</time>
      </trkpt>
      <trkpt lat="45.2958" lon="6.14356">
        <ele>2743.1999511719</ele>
        <time>2012-02-05T11:33:28.000Z</time>
      </trkpt>
      <trkpt lat="45.29591" lon="6.14363">
        <ele>2743</ele>
        <time>2012-02-05T11:33:57.000Z</time>
      </trkpt>
      <trkpt lat="45.29596" lon="6.14368">
        <ele>2809.6000976562</ele>
        <time>2012-02-05T11:34:02.000Z</time>
      </trkpt>
      <trkpt lat="45.29583" lon="6.14357">
        <ele>2807.3999023438</ele>
        <time>2012-02-05T11:34:39.000Z</time>
      </trkpt>
      <trkpt lat="45.29577" lon="6.14353">
        <ele>2806.1999511719</ele>
        <time>2012-02-05T11:34:45.000Z</time>
      </trkpt>
      <trkpt lat="45.29576" lon="6.14349">
        <ele>2804.8000488281</ele>
        <time>2012-02-05T11:34:49.000Z</time>
      </trkpt>
      <trkpt lat="45.29574" lon="6.14347">
        <ele>2803.1999511719</ele>
        <time>2012-02-05T11:34:53.000Z</time>
      </trkpt>
      <trkpt lat="45.29572" lon="6.14346">
        <ele>2800</ele>
        <time>2012-02-05T11:34:59.000Z</time>
      </trkpt>
      <trkpt lat="45.29569" lon="6.14347">
        <ele>2800.6000976562</ele>
        <time>2012-02-05T11:35:12.000Z</time>
      </trkpt>
      <trkpt lat="45.29572" lon="6.14346">
        <ele>2803.8000488281</ele>
        <time>2012-02-05T11:35:28.000Z</time>
      </trkpt>
      <trkpt lat="45.29574" lon="6.14348">
        <ele>2804.8000488281</ele>
        <time>2012-02-05T11:35:45.000Z</time>
      </trkpt>
      <trkpt lat="45.29576" lon="6.1435">
        <ele>2805.8000488281</ele>
        <time>2012-02-05T11:35:50.000Z</time>
      </trkpt>
      <trkpt lat="45.29577" lon="6.14351">
        <ele>2806</ele>
        <time>2012-02-05T11:35:55.000Z</time>
      </trkpt>
      <trkpt lat="45.29583" lon="6.14357">
        <ele>2805.8000488281</ele>
        <time>2012-02-05T11:36:07.000Z</time>
      </trkpt>
      <trkpt lat="45.29584" lon="6.14357">
        <ele>2805</ele>
        <time>2012-02-05T11:36:17.000Z</time>
      </trkpt>
      <trkpt lat="45.29593" lon="6.14363">
        <ele>2803.6000976562</ele>
        <time>2012-02-05T11:36:31.000Z</time>
      </trkpt>
      <trkpt lat="45.29607" lon="6.1437">
        <ele>2802.8000488281</ele>
        <time>2012-02-05T11:36:47.000Z</time>
      </trkpt>
      <trkpt lat="45.29611" lon="6.14378">
        <ele>2809.1999511719</ele>
        <time>2012-02-05T11:36:54.000Z</time>
      </trkpt>
      <trkpt lat="45.29602" lon="6.14377">
        <ele>2810</ele>
        <time>2012-02-05T11:37:04.000Z</time>
      </trkpt>
      <trkpt lat="45.29599" lon="6.14373">
        <ele>2809.6000976562</ele>
        <time>2012-02-05T11:37:07.000Z</time>
      </trkpt>
      <trkpt lat="45.29594" lon="6.14366">
        <ele>2808.6000976562</ele>
        <time>2012-02-05T11:37:14.000Z</time>
      </trkpt>
      <trkpt lat="45.29584" lon="6.14357">
        <ele>2806.6000976562</ele>
        <time>2012-02-05T11:38:13.000Z</time>
      </trkpt>
      <trkpt lat="45.29578" lon="6.14353">
        <ele>2807.3999023438</ele>
        <time>2012-02-05T11:38:33.000Z</time>
      </trkpt>
      <trkpt lat="45.29578" lon="6.14355">
        <ele>2808</ele>
        <time>2012-02-05T11:38:40.000Z</time>
      </trkpt>
      <trkpt lat="45.29579" lon="6.14359">
        <ele>2808.3999023438</ele>
        <time>2012-02-05T11:38:47.000Z</time>
      </trkpt>
      <trkpt lat="45.29579" lon="6.14359">
        <ele>2809.1999511719</ele>
        <time>2012-02-05T11:38:52.000Z</time>
      </trkpt>
      <trkpt lat="45.2958" lon="6.1436">
        <ele>2810.3999023438</ele>
        <time>2012-02-05T11:38:59.000Z</time>
      </trkpt>
      <trkpt lat="45.29582" lon="6.14362">
        <ele>2811.1999511719</ele>
        <time>2012-02-05T11:39:18.000Z</time>
      </trkpt>
      <trkpt lat="45.29583" lon="6.14363">
        <ele>2813.3999023438</ele>
        <time>2012-02-05T11:39:39.000Z</time>
      </trkpt>
      <trkpt lat="45.29584" lon="6.14362">
        <ele>2813.6000976562</ele>
        <time>2012-02-05T11:39:45.000Z</time>
      </trkpt>
      <trkpt lat="45.29585" lon="6.14363">
        <ele>2814.3999023438</ele>
        <time>2012-02-05T11:39:51.000Z</time>
      </trkpt>
      <trkpt lat="45.29585" lon="6.14364">
        <ele>2812</ele>
        <time>2012-02-05T11:40:29.000Z</time>
      </trkpt>
      <trkpt lat="45.29586" lon="6.14364">
        <ele>2813.1999511719</ele>
        <time>2012-02-05T11:40:36.000Z</time>
      </trkpt>
      <trkpt lat="45.29588" lon="6.14361">
        <ele>2812.8000488281</ele>
        <time>2012-02-05T11:40:42.000Z</time>
      </trkpt>
      <trkpt lat="45.29591" lon="6.14358">
        <ele>2812.1999511719</ele>
        <time>2012-02-05T11:40:47.000Z</time>
      </trkpt>
      <trkpt lat="45.29597" lon="6.1435">
        <ele>2806.6000976562</ele>
        <time>2012-02-05T11:40:57.000Z</time>
      </trkpt>
      <trkpt lat="45.29597" lon="6.14347">
        <ele>2806.1999511719</ele>
        <time>2012-02-05T11:41:03.000Z</time>
      </trkpt>
      <trkpt lat="45.29596" lon="6.14348">
        <ele>2806.6000976562</ele>
        <time>2012-02-05T11:41:22.000Z</time>
      </trkpt>
      <trkpt lat="45.29597" lon="6.14347">
        <ele>2805.3999023438</ele>
        <time>2012-02-05T11:41:31.000Z</time>
      </trkpt>
      <trkpt lat="45.29599" lon="6.14347">
        <ele>2805.1999511719</ele>
        <time>2012-02-05T11:41:40.000Z</time>
      </trkpt>
      <trkpt lat="45.29599" lon="6.14347">
        <ele>2805.6000976562</ele>
        <time>2012-02-05T11:41:51.000Z</time>
      </trkpt>
      <trkpt lat="45.29596" lon="6.14352">
        <ele>2805</ele>
        <time>2012-02-05T11:42:06.000Z</time>
      </trkpt>
      <trkpt lat="45.29597" lon="6.14345">
        <ele>2806.3999023438</ele>
        <time>2012-02-05T11:42:29.000Z</time>
      </trkpt>
      <trkpt lat="45.29599" lon="6.14344">
        <ele>2805.8000488281</ele>
        <time>2012-02-05T11:42:39.000Z</time>
      </trkpt>
      <trkpt lat="45.29587" lon="6.14348">
        <ele>2806</ele>
        <time>2012-02-05T11:43:47.000Z</time>
      </trkpt>
      <trkpt lat="45.29586" lon="6.1435">
        <ele>2806.1999511719</ele>
        <time>2012-02-05T11:43:52.000Z</time>
      </trkpt>
      <trkpt lat="45.29587" lon="6.14356">
        <ele>2806.6000976562</ele>
        <time>2012-02-05T11:43:59.000Z</time>
      </trkpt>
      <trkpt lat="45.29587" lon="6.14358">
        <ele>2806.8000488281</ele>
        <time>2012-02-05T11:44:08.000Z</time>
      </trkpt>
      <trkpt lat="45.29587" lon="6.14363">
        <ele>2806.3999023438</ele>
        <time>2012-02-05T11:44:16.000Z</time>
      </trkpt>
      <trkpt lat="45.29586" lon="6.14365">
        <ele>2806.3999023438</ele>
        <time>2012-02-05T11:44:22.000Z</time>
      </trkpt>
      <trkpt lat="45.29585" lon="6.14368">
        <ele>2808.1999511719</ele>
        <time>2012-02-05T11:44:28.000Z</time>
      </trkpt>
      <trkpt lat="45.29583" lon="6.14364">
        <ele>2803.3999023438</ele>
        <time>2012-02-05T11:48:09.000Z</time>
      </trkpt>
      <trkpt lat="45.29583" lon="6.14359">
        <ele>2802.1999511719</ele>
        <time>2012-02-05T11:48:20.000Z</time>
      </trkpt>
      <trkpt lat="45.29585" lon="6.14354">
        <ele>2801.1999511719</ele>
        <time>2012-02-05T11:48:24.000Z</time>
      </trkpt>
      <trkpt lat="45.29587" lon="6.14352">
        <ele>2800.8000488281</ele>
        <time>2012-02-05T11:48:27.000Z</time>
      </trkpt>
      <trkpt lat="45.29592" lon="6.14344">
        <ele>2799.1999511719</ele>
        <time>2012-02-05T11:48:35.000Z</time>
      </trkpt>
      <trkpt lat="45.29592" lon="6.14342">
        <ele>2798.8000488281</ele>
        <time>2012-02-05T11:48:41.000Z</time>
      </trkpt>
      <trkpt lat="45.29597" lon="6.14346">
        <ele>2796</ele>
        <time>2012-02-05T11:49:40.000Z</time>
      </trkpt>
      <trkpt lat="45.29596" lon="6.14346">
        <ele>2796.1999511719</ele>
        <time>2012-02-05T11:49:48.000Z</time>
      </trkpt>
      <trkpt lat="45.296" lon="6.14339">
        <ele>2797</ele>
        <time>2012-02-05T11:50:16.000Z</time>
      </trkpt>
      <trkpt lat="45.29597" lon="6.14348">
        <ele>2792.6000976562</ele>
        <time>2012-02-05T11:52:07.000Z</time>
      </trkpt>
      <trkpt lat="45.29587" lon="6.14348">
        <ele>2790</ele>
        <time>2012-02-05T11:53:45.000Z</time>
      </trkpt>
      <trkpt lat="45.29596" lon="6.14347">
        <ele>2792</ele>
        <time>2012-02-05T11:54:21.000Z</time>
      </trkpt>
      <trkpt lat="45.29594" lon="6.14347">
        <ele>2789.8000488281</ele>
        <time>2012-02-05T11:57:23.000Z</time>
      </trkpt>
      <trkpt lat="45.29599" lon="6.14348">
        <ele>2785.1999511719</ele>
        <time>2012-02-05T11:58:23.000Z</time>
      </trkpt>
      <trkpt lat="45.29608" lon="6.14355">
        <ele>2782.8000488281</ele>
        <time>2012-02-05T11:58:28.000Z</time>
      </trkpt>
      <trkpt lat="45.29614" lon="6.14363">
        <ele>2778.3999023438</ele>
        <time>2012-02-05T11:58:32.000Z</time>
      </trkpt>
      <trkpt lat="45.29615" lon="6.14362">
        <ele>2777.3999023438</ele>
        <time>2012-02-05T11:58:34.000Z</time>
      </trkpt>
      <trkpt lat="45.29622" lon="6.14367">
        <ele>2772</ele>
        <time>2012-02-05T11:58:39.000Z</time>
      </trkpt>
      <trkpt lat="45.29624" lon="6.14371">
        <ele>2768.1999511719</ele>
        <time>2012-02-05T11:58:41.000Z</time>
      </trkpt>
      <trkpt lat="45.29628" lon="6.1437">
        <ele>2765.3999023438</ele>
        <time>2012-02-05T11:58:43.000Z</time>
      </trkpt>
      <trkpt lat="45.2964" lon="6.14368">
        <ele>2758.8000488281</ele>
        <time>2012-02-05T11:58:48.000Z</time>
      </trkpt>
      <trkpt lat="45.29645" lon="6.14365">
        <ele>2755.3999023438</ele>
        <time>2012-02-05T11:58:50.000Z</time>
      </trkpt>
      <trkpt lat="45.29649" lon="6.14349">
        <ele>2752.3999023438</ele>
        <time>2012-02-05T11:58:56.000Z</time>
      </trkpt>
      <trkpt lat="45.29653" lon="6.14337">
        <ele>2752.6000976562</ele>
        <time>2012-02-05T11:59:00.000Z</time>
      </trkpt>
      <trkpt lat="45.29664" lon="6.14349">
        <ele>2748.1999511719</ele>
        <time>2012-02-05T11:59:05.000Z</time>
      </trkpt>
      <trkpt lat="45.29667" lon="6.14351">
        <ele>2745.8000488281</ele>
        <time>2012-02-05T11:59:06.000Z</time>
      </trkpt>
      <trkpt lat="45.29676" lon="6.14354">
        <ele>2735.1999511719</ele>
        <time>2012-02-05T11:59:12.000Z</time>
      </trkpt>
      <trkpt lat="45.29675" lon="6.14354">
        <ele>2733.8000488281</ele>
        <time>2012-02-05T11:59:13.000Z</time>
      </trkpt>
      <trkpt lat="45.2968" lon="6.14343">
        <ele>2732.1999511719</ele>
        <time>2012-02-05T11:59:16.000Z</time>
      </trkpt>
      <trkpt lat="45.29691" lon="6.14342">
        <ele>2732.1999511719</ele>
        <time>2012-02-05T11:59:23.000Z</time>
      </trkpt>
      <trkpt lat="45.29693" lon="6.14345">
        <ele>2732</ele>
        <time>2012-02-05T11:59:28.000Z</time>
      </trkpt>
      <trkpt lat="45.29692" lon="6.14345">
        <ele>2730.8000488281</ele>
        <time>2012-02-05T11:59:31.000Z</time>
      </trkpt>
      <trkpt lat="45.29694" lon="6.14351">
        <ele>2729</ele>
        <time>2012-02-05T11:59:36.000Z</time>
      </trkpt>
      <trkpt lat="45.29694" lon="6.14365">
        <ele>2727.3999023438</ele>
        <time>2012-02-05T11:59:40.000Z</time>
      </trkpt>
      <trkpt lat="45.29695" lon="6.14368">
        <ele>2726.8000488281</ele>
        <time>2012-02-05T11:59:42.000Z</time>
      </trkpt>
      <trkpt lat="45.29701" lon="6.1437">
        <ele>2725.1999511719</ele>
        <time>2012-02-05T11:59:47.000Z</time>
      </trkpt>
      <trkpt lat="45.29708" lon="6.14371">
        <ele>2724.1999511719</ele>
        <time>2012-02-05T11:59:53.000Z</time>
      </trkpt>
      <trkpt lat="45.29716" lon="6.1437">
        <ele>2722.8000488281</ele>
        <time>2012-02-05T12:00:18.000Z</time>
      </trkpt>
      <trkpt lat="45.29728" lon="6.14373">
        <ele>2719.6000976562</ele>
        <time>2012-02-05T12:00:23.000Z</time>
      </trkpt>
      <trkpt lat="45.29742" lon="6.14375">
        <ele>2715.8000488281</ele>
        <time>2012-02-05T12:00:28.000Z</time>
      </trkpt>
      <trkpt lat="45.29745" lon="6.14379">
        <ele>2713.6000976562</ele>
        <time>2012-02-05T12:00:32.000Z</time>
      </trkpt>
      <trkpt lat="45.29749" lon="6.14389">
        <ele>2708</ele>
        <time>2012-02-05T12:00:35.000Z</time>
      </trkpt>
      <trkpt lat="45.29752" lon="6.14418">
        <ele>2694.3999023438</ele>
        <time>2012-02-05T12:00:40.000Z</time>
      </trkpt>
      <trkpt lat="45.29751" lon="6.14441">
        <ele>2686.6000976562</ele>
        <time>2012-02-05T12:00:44.000Z</time>
      </trkpt>
      <trkpt lat="45.29747" lon="6.14447">
        <ele>2683</ele>
        <time>2012-02-05T12:00:47.000Z</time>
      </trkpt>
      <trkpt lat="45.29746" lon="6.14449">
        <ele>2683</ele>
        <time>2012-02-05T12:00:54.000Z</time>
      </trkpt>
      <trkpt lat="45.29746" lon="6.14452">
        <ele>2683.3999023438</ele>
        <time>2012-02-05T12:01:07.000Z</time>
      </trkpt>
      <trkpt lat="45.29755" lon="6.1446">
        <ele>2680.6000976562</ele>
        <time>2012-02-05T12:01:12.000Z</time>
      </trkpt>
      <trkpt lat="45.29758" lon="6.14464">
        <ele>2679.1999511719</ele>
        <time>2012-02-05T12:01:13.000Z</time>
      </trkpt>
      <trkpt lat="45.2977" lon="6.14485">
        <ele>2669</ele>
        <time>2012-02-05T12:01:19.000Z</time>
      </trkpt>
      <trkpt lat="45.29767" lon="6.14486">
        <ele>2665.3999023438</ele>
        <time>2012-02-05T12:01:23.000Z</time>
      </trkpt>
      <trkpt lat="45.29775" lon="6.14482">
        <ele>2665.6000976562</ele>
        <time>2012-02-05T12:01:39.000Z</time>
      </trkpt>
      <trkpt lat="45.29781" lon="6.14482">
        <ele>2665</ele>
        <time>2012-02-05T12:02:02.000Z</time>
      </trkpt>
      <trkpt lat="45.2978" lon="6.14486">
        <ele>2663.8000488281</ele>
        <time>2012-02-05T12:02:06.000Z</time>
      </trkpt>
      <trkpt lat="45.29785" lon="6.14497">
        <ele>2661.1999511719</ele>
        <time>2012-02-05T12:02:12.000Z</time>
      </trkpt>
      <trkpt lat="45.29789" lon="6.14501">
        <ele>2659.1999511719</ele>
        <time>2012-02-05T12:02:16.000Z</time>
      </trkpt>
      <trkpt lat="45.29797" lon="6.14505">
        <ele>2657.3999023438</ele>
        <time>2012-02-05T12:02:29.000Z</time>
      </trkpt>
      <trkpt lat="45.29801" lon="6.14509">
        <ele>2655.6000976562</ele>
        <time>2012-02-05T12:02:40.000Z</time>
      </trkpt>
      <trkpt lat="45.29805" lon="6.14513">
        <ele>2655</ele>
        <time>2012-02-05T12:02:46.000Z</time>
      </trkpt>
      <trkpt lat="45.29807" lon="6.14521">
        <ele>2654</ele>
        <time>2012-02-05T12:02:54.000Z</time>
      </trkpt>
      <trkpt lat="45.29807" lon="6.14528">
        <ele>2653.3999023438</ele>
        <time>2012-02-05T12:03:01.000Z</time>
      </trkpt>
      <trkpt lat="45.29805" lon="6.14531">
        <ele>2653.3999023438</ele>
        <time>2012-02-05T12:03:07.000Z</time>
      </trkpt>
      <trkpt lat="45.29802" lon="6.14536">
        <ele>2653.8000488281</ele>
        <time>2012-02-05T12:03:20.000Z</time>
      </trkpt>
      <trkpt lat="45.298" lon="6.14543">
        <ele>2653.6000976562</ele>
        <time>2012-02-05T12:03:23.000Z</time>
      </trkpt>
      <trkpt lat="45.29803" lon="6.14565">
        <ele>2648.6000976562</ele>
        <time>2012-02-05T12:03:29.000Z</time>
      </trkpt>
      <trkpt lat="45.29802" lon="6.14593">
        <ele>2642.8000488281</ele>
        <time>2012-02-05T12:03:34.000Z</time>
      </trkpt>
      <trkpt lat="45.29799" lon="6.14608">
        <ele>2638.1999511719</ele>
        <time>2012-02-05T12:03:38.000Z</time>
      </trkpt>
      <trkpt lat="45.29796" lon="6.1461">
        <ele>2636.1999511719</ele>
        <time>2012-02-05T12:03:42.000Z</time>
      </trkpt>
      <trkpt lat="45.29795" lon="6.14614">
        <ele>2633.8000488281</ele>
        <time>2012-02-05T12:03:54.000Z</time>
      </trkpt>
      <trkpt lat="45.29796" lon="6.14621">
        <ele>2632.1999511719</ele>
        <time>2012-02-05T12:04:06.000Z</time>
      </trkpt>
      <trkpt lat="45.29797" lon="6.14634">
        <ele>2627.8000488281</ele>
        <time>2012-02-05T12:04:11.000Z</time>
      </trkpt>
      <trkpt lat="45.29791" lon="6.14659">
        <ele>2622.1999511719</ele>
        <time>2012-02-05T12:04:17.000Z</time>
      </trkpt>
      <trkpt lat="45.29785" lon="6.14693">
        <ele>2612.8000488281</ele>
        <time>2012-02-05T12:04:23.000Z</time>
      </trkpt>
      <trkpt lat="45.29783" lon="6.14718">
        <ele>2605</ele>
        <time>2012-02-05T12:04:27.000Z</time>
      </trkpt>
      <trkpt lat="45.2977" lon="6.14763">
        <ele>2592.6000976562</ele>
        <time>2012-02-05T12:04:33.000Z</time>
      </trkpt>
      <trkpt lat="45.29766" lon="6.14793">
        <ele>2586</ele>
        <time>2012-02-05T12:04:38.000Z</time>
      </trkpt>
      <trkpt lat="45.29761" lon="6.14819">
        <ele>2580.3999023438</ele>
        <time>2012-02-05T12:04:43.000Z</time>
      </trkpt>
      <trkpt lat="45.29764" lon="6.14829">
        <ele>2576.6000976562</ele>
        <time>2012-02-05T12:04:47.000Z</time>
      </trkpt>
      <trkpt lat="45.29782" lon="6.14828">
        <ele>2576.3999023438</ele>
        <time>2012-02-05T12:05:18.000Z</time>
      </trkpt>
      <trkpt lat="45.29773" lon="6.14845">
        <ele>2574.8000488281</ele>
        <time>2012-02-05T12:05:36.000Z</time>
      </trkpt>
      <trkpt lat="45.29765" lon="6.1487">
        <ele>2569.8000488281</ele>
        <time>2012-02-05T12:05:41.000Z</time>
      </trkpt>
      <trkpt lat="45.29758" lon="6.1491">
        <ele>2560.8000488281</ele>
        <time>2012-02-05T12:05:46.000Z</time>
      </trkpt>
      <trkpt lat="45.29756" lon="6.14918">
        <ele>2558.6000976562</ele>
        <time>2012-02-05T12:05:47.000Z</time>
      </trkpt>
      <trkpt lat="45.29754" lon="6.14937">
        <ele>2553.6000976562</ele>
        <time>2012-02-05T12:05:49.000Z</time>
      </trkpt>
      <trkpt lat="45.29753" lon="6.1496">
        <ele>2548.1999511719</ele>
        <time>2012-02-05T12:05:52.000Z</time>
      </trkpt>
      <trkpt lat="45.29753" lon="6.14992">
        <ele>2541.3999023438</ele>
        <time>2012-02-05T12:05:57.000Z</time>
      </trkpt>
      <trkpt lat="45.29752" lon="6.15006">
        <ele>2538.6000976562</ele>
        <time>2012-02-05T12:06:00.000Z</time>
      </trkpt>
      <trkpt lat="45.29748" lon="6.15028">
        <ele>2534</ele>
        <time>2012-02-05T12:06:08.000Z</time>
      </trkpt>
      <trkpt lat="45.29747" lon="6.15033">
        <ele>2533.1999511719</ele>
        <time>2012-02-05T12:06:10.000Z</time>
      </trkpt>
      <trkpt lat="45.29744" lon="6.15046">
        <ele>2530.8000488281</ele>
        <time>2012-02-05T12:06:16.000Z</time>
      </trkpt>
      <trkpt lat="45.29739" lon="6.15071">
        <ele>2525.6000976562</ele>
        <time>2012-02-05T12:06:22.000Z</time>
      </trkpt>
      <trkpt lat="45.29733" lon="6.15089">
        <ele>2521.6000976562</ele>
        <time>2012-02-05T12:06:27.000Z</time>
      </trkpt>
      <trkpt lat="45.29732" lon="6.15102">
        <ele>2518.6000976562</ele>
        <time>2012-02-05T12:06:31.000Z</time>
      </trkpt>
      <trkpt lat="45.29729" lon="6.15129">
        <ele>2513.8000488281</ele>
        <time>2012-02-05T12:06:38.000Z</time>
      </trkpt>
      <trkpt lat="45.29725" lon="6.15161">
        <ele>2507.6000976562</ele>
        <time>2012-02-05T12:06:45.000Z</time>
      </trkpt>
      <trkpt lat="45.29722" lon="6.15176">
        <ele>2504.6000976562</ele>
        <time>2012-02-05T12:06:51.000Z</time>
      </trkpt>
      <trkpt lat="45.29724" lon="6.1519">
        <ele>2502.3999023438</ele>
        <time>2012-02-05T12:07:02.000Z</time>
      </trkpt>
      <trkpt lat="45.29722" lon="6.15206">
        <ele>2499.6000976562</ele>
        <time>2012-02-05T12:07:14.000Z</time>
      </trkpt>
      <trkpt lat="45.29721" lon="6.15214">
        <ele>2498</ele>
        <time>2012-02-05T12:07:19.000Z</time>
      </trkpt>
      <trkpt lat="45.2972" lon="6.15227">
        <ele>2495</ele>
        <time>2012-02-05T12:07:25.000Z</time>
      </trkpt>
      <trkpt lat="45.29719" lon="6.1525">
        <ele>2491.3999023438</ele>
        <time>2012-02-05T12:07:32.000Z</time>
      </trkpt>
      <trkpt lat="45.2971" lon="6.15285">
        <ele>2486.3999023438</ele>
        <time>2012-02-05T12:07:37.000Z</time>
      </trkpt>
      <trkpt lat="45.29692" lon="6.15322">
        <ele>2478.8000488281</ele>
        <time>2012-02-05T12:07:43.000Z</time>
      </trkpt>
      <trkpt lat="45.2969" lon="6.15336">
        <ele>2477.1999511719</ele>
        <time>2012-02-05T12:07:46.000Z</time>
      </trkpt>
      <trkpt lat="45.29685" lon="6.15342">
        <ele>2475.3999023438</ele>
        <time>2012-02-05T12:07:50.000Z</time>
      </trkpt>
      <trkpt lat="45.29686" lon="6.15349">
        <ele>2474.6000976562</ele>
        <time>2012-02-05T12:08:24.000Z</time>
      </trkpt>
      <trkpt lat="45.29686" lon="6.15366">
        <ele>2473.1999511719</ele>
        <time>2012-02-05T12:08:33.000Z</time>
      </trkpt>
      <trkpt lat="45.29683" lon="6.15373">
        <ele>2471.3999023438</ele>
        <time>2012-02-05T12:08:39.000Z</time>
      </trkpt>
      <trkpt lat="45.29681" lon="6.15379">
        <ele>2471</ele>
        <time>2012-02-05T12:08:47.000Z</time>
      </trkpt>
      <trkpt lat="45.29678" lon="6.15383">
        <ele>2470.8000488281</ele>
        <time>2012-02-05T12:08:52.000Z</time>
      </trkpt>
      <trkpt lat="45.29675" lon="6.15388">
        <ele>2470.3999023438</ele>
        <time>2012-02-05T12:08:59.000Z</time>
      </trkpt>
      <trkpt lat="45.29673" lon="6.15391">
        <ele>2470</ele>
        <time>2012-02-05T12:09:07.000Z</time>
      </trkpt>
      <trkpt lat="45.2967" lon="6.15401">
        <ele>2468.6000976562</ele>
        <time>2012-02-05T12:09:15.000Z</time>
      </trkpt>
      <trkpt lat="45.29667" lon="6.15409">
        <ele>2467.3999023438</ele>
        <time>2012-02-05T12:09:22.000Z</time>
      </trkpt>
      <trkpt lat="45.29663" lon="6.1542">
        <ele>2466</ele>
        <time>2012-02-05T12:09:35.000Z</time>
      </trkpt>
      <trkpt lat="45.29662" lon="6.15424">
        <ele>2465</ele>
        <time>2012-02-05T12:09:42.000Z</time>
      </trkpt>
      <trkpt lat="45.29658" lon="6.15429">
        <ele>2463.8000488281</ele>
        <time>2012-02-05T12:09:50.000Z</time>
      </trkpt>
      <trkpt lat="45.29653" lon="6.15434">
        <ele>2463</ele>
        <time>2012-02-05T12:09:58.000Z</time>
      </trkpt>
      <trkpt lat="45.29649" lon="6.15436">
        <ele>2462.1999511719</ele>
        <time>2012-02-05T12:10:05.000Z</time>
      </trkpt>
      <trkpt lat="45.29647" lon="6.15439">
        <ele>2461.8000488281</ele>
        <time>2012-02-05T12:10:11.000Z</time>
      </trkpt>
      <trkpt lat="45.29644" lon="6.15443">
        <ele>2461</ele>
        <time>2012-02-05T12:10:17.000Z</time>
      </trkpt>
      <trkpt lat="45.29642" lon="6.15446">
        <ele>2460.6000976562</ele>
        <time>2012-02-05T12:10:24.000Z</time>
      </trkpt>
      <trkpt lat="45.29639" lon="6.1545">
        <ele>2459.6000976562</ele>
        <time>2012-02-05T12:10:30.000Z</time>
      </trkpt>
      <trkpt lat="45.29632" lon="6.15456">
        <ele>2458.8000488281</ele>
        <time>2012-02-05T12:10:38.000Z</time>
      </trkpt>
      <trkpt lat="45.29627" lon="6.15462">
        <ele>2457.6000976562</ele>
        <time>2012-02-05T12:10:46.000Z</time>
      </trkpt>
      <trkpt lat="45.29622" lon="6.15467">
        <ele>2456.3999023438</ele>
        <time>2012-02-05T12:10:53.000Z</time>
      </trkpt>
      <trkpt lat="45.2962" lon="6.15477">
        <ele>2455.3999023438</ele>
        <time>2012-02-05T12:10:59.000Z</time>
      </trkpt>
      <trkpt lat="45.29619" lon="6.15484">
        <ele>2454.1999511719</ele>
        <time>2012-02-05T12:11:05.000Z</time>
      </trkpt>
      <trkpt lat="45.29617" lon="6.15499">
        <ele>2452.3999023438</ele>
        <time>2012-02-05T12:11:11.000Z</time>
      </trkpt>
      <trkpt lat="45.29618" lon="6.15505">
        <ele>2451.1999511719</ele>
        <time>2012-02-05T12:11:16.000Z</time>
      </trkpt>
      <trkpt lat="45.29622" lon="6.1551">
        <ele>2450.3999023438</ele>
        <time>2012-02-05T12:11:32.000Z</time>
      </trkpt>
      <trkpt lat="45.29624" lon="6.15528">
        <ele>2448.1999511719</ele>
        <time>2012-02-05T12:11:40.000Z</time>
      </trkpt>
      <trkpt lat="45.29626" lon="6.15537">
        <ele>2446.1999511719</ele>
        <time>2012-02-05T12:11:42.000Z</time>
      </trkpt>
      <trkpt lat="45.29625" lon="6.15573">
        <ele>2437.8000488281</ele>
        <time>2012-02-05T12:11:48.000Z</time>
      </trkpt>
      <trkpt lat="45.29627" lon="6.15569">
        <ele>2435.1999511719</ele>
        <time>2012-02-05T12:11:51.000Z</time>
      </trkpt>
      <trkpt lat="45.29628" lon="6.15569">
        <ele>2435</ele>
        <time>2012-02-05T12:11:52.000Z</time>
      </trkpt>
      <trkpt lat="45.29627" lon="6.15586">
        <ele>2433.8000488281</ele>
        <time>2012-02-05T12:12:01.000Z</time>
      </trkpt>
      <trkpt lat="45.29622" lon="6.15612">
        <ele>2430.1999511719</ele>
        <time>2012-02-05T12:12:07.000Z</time>
      </trkpt>
      <trkpt lat="45.2962" lon="6.15619">
        <ele>2429.3999023438</ele>
        <time>2012-02-05T12:12:09.000Z</time>
      </trkpt>
      <trkpt lat="45.29618" lon="6.15634">
        <ele>2427</ele>
        <time>2012-02-05T12:12:14.000Z</time>
      </trkpt>
      <trkpt lat="45.29625" lon="6.15656">
        <ele>2420.8000488281</ele>
        <time>2012-02-05T12:12:20.000Z</time>
      </trkpt>
      <trkpt lat="45.29627" lon="6.1566">
        <ele>2419</ele>
        <time>2012-02-05T12:12:21.000Z</time>
      </trkpt>
      <trkpt lat="45.29631" lon="6.15708">
        <ele>2411</ele>
        <time>2012-02-05T12:12:26.000Z</time>
      </trkpt>
      <trkpt lat="45.2963" lon="6.15733">
        <ele>2408.3999023438</ele>
        <time>2012-02-05T12:12:30.000Z</time>
      </trkpt>
      <trkpt lat="45.2963" lon="6.15737">
        <ele>2407.1999511719</ele>
        <time>2012-02-05T12:12:34.000Z</time>
      </trkpt>
      <trkpt lat="45.29633" lon="6.15749">
        <ele>2406.1999511719</ele>
        <time>2012-02-05T12:12:41.000Z</time>
      </trkpt>
      <trkpt lat="45.29635" lon="6.15753">
        <ele>2405.6000976562</ele>
        <time>2012-02-05T12:12:47.000Z</time>
      </trkpt>
      <trkpt lat="45.29635" lon="6.15757">
        <ele>2404.8000488281</ele>
        <time>2012-02-05T12:12:54.000Z</time>
      </trkpt>
      <trkpt lat="45.29637" lon="6.15764">
        <ele>2404.1999511719</ele>
        <time>2012-02-05T12:13:04.000Z</time>
      </trkpt>
      <trkpt lat="45.2964" lon="6.1577">
        <ele>2403.1999511719</ele>
        <time>2012-02-05T12:13:10.000Z</time>
      </trkpt>
      <trkpt lat="45.29647" lon="6.15778">
        <ele>2401.3999023438</ele>
        <time>2012-02-05T12:13:18.000Z</time>
      </trkpt>
      <trkpt lat="45.29648" lon="6.15787">
        <ele>2400</ele>
        <time>2012-02-05T12:13:24.000Z</time>
      </trkpt>
      <trkpt lat="45.29648" lon="6.15788">
        <ele>2399</ele>
        <time>2012-02-05T12:13:29.000Z</time>
      </trkpt>
      <trkpt lat="45.29652" lon="6.15792">
        <ele>2397.6000976562</ele>
        <time>2012-02-05T12:13:35.000Z</time>
      </trkpt>
      <trkpt lat="45.29656" lon="6.15793">
        <ele>2396.3999023438</ele>
        <time>2012-02-05T12:13:41.000Z</time>
      </trkpt>
      <trkpt lat="45.29666" lon="6.15802">
        <ele>2394.8000488281</ele>
        <time>2012-02-05T12:14:32.000Z</time>
      </trkpt>
      <trkpt lat="45.29683" lon="6.15823">
        <ele>2390</ele>
        <time>2012-02-05T12:14:38.000Z</time>
      </trkpt>
      <trkpt lat="45.29687" lon="6.15854">
        <ele>2385.1999511719</ele>
        <time>2012-02-05T12:14:43.000Z</time>
      </trkpt>
      <trkpt lat="45.29679" lon="6.15889">
        <ele>2382.3999023438</ele>
        <time>2012-02-05T12:14:48.000Z</time>
      </trkpt>
      <trkpt lat="45.29678" lon="6.15899">
        <ele>2381.8000488281</ele>
        <time>2012-02-05T12:14:52.000Z</time>
      </trkpt>
      <trkpt lat="45.29675" lon="6.15912">
        <ele>2381</ele>
        <time>2012-02-05T12:15:01.000Z</time>
      </trkpt>
      <trkpt lat="45.29674" lon="6.15924">
        <ele>2380</ele>
        <time>2012-02-05T12:15:09.000Z</time>
      </trkpt>
      <trkpt lat="45.29674" lon="6.15928">
        <ele>2380</ele>
        <time>2012-02-05T12:15:15.000Z</time>
      </trkpt>
      <trkpt lat="45.29672" lon="6.15934">
        <ele>2379.8000488281</ele>
        <time>2012-02-05T12:15:20.000Z</time>
      </trkpt>
      <trkpt lat="45.29669" lon="6.1594">
        <ele>2379.1999511719</ele>
        <time>2012-02-05T12:15:26.000Z</time>
      </trkpt>
      <trkpt lat="45.29668" lon="6.15946">
        <ele>2378.3999023438</ele>
        <time>2012-02-05T12:15:34.000Z</time>
      </trkpt>
      <trkpt lat="45.29665" lon="6.15958">
        <ele>2377.3999023438</ele>
        <time>2012-02-05T12:15:43.000Z</time>
      </trkpt>
      <trkpt lat="45.29661" lon="6.15971">
        <ele>2376</ele>
        <time>2012-02-05T12:15:52.000Z</time>
      </trkpt>
      <trkpt lat="45.29659" lon="6.15976">
        <ele>2375.1999511719</ele>
        <time>2012-02-05T12:15:58.000Z</time>
      </trkpt>
      <trkpt lat="45.29656" lon="6.15987">
        <ele>2374.1999511719</ele>
        <time>2012-02-05T12:16:05.000Z</time>
      </trkpt>
      <trkpt lat="45.29655" lon="6.1599">
        <ele>2373.6000976562</ele>
        <time>2012-02-05T12:16:10.000Z</time>
      </trkpt>
      <trkpt lat="45.29653" lon="6.15998">
        <ele>2373</ele>
        <time>2012-02-05T12:16:14.000Z</time>
      </trkpt>
      <trkpt lat="45.29649" lon="6.16014">
        <ele>2371.1999511719</ele>
        <time>2012-02-05T12:16:25.000Z</time>
      </trkpt>
      <trkpt lat="45.29648" lon="6.16017">
        <ele>2371.1999511719</ele>
        <time>2012-02-05T12:16:29.000Z</time>
      </trkpt>
      <trkpt lat="45.29647" lon="6.16016">
        <ele>2370.6000976562</ele>
        <time>2012-02-05T12:16:39.000Z</time>
      </trkpt>
      <trkpt lat="45.29646" lon="6.1602">
        <ele>2370.6000976562</ele>
        <time>2012-02-05T12:16:45.000Z</time>
      </trkpt>
      <trkpt lat="45.29645" lon="6.16026">
        <ele>2370</ele>
        <time>2012-02-05T12:16:53.000Z</time>
      </trkpt>
      <trkpt lat="45.29645" lon="6.16034">
        <ele>2369.3999023438</ele>
        <time>2012-02-05T12:16:59.000Z</time>
      </trkpt>
      <trkpt lat="45.29643" lon="6.1604">
        <ele>2368.6000976562</ele>
        <time>2012-02-05T12:17:07.000Z</time>
      </trkpt>
      <trkpt lat="45.29643" lon="6.16048">
        <ele>2367.8000488281</ele>
        <time>2012-02-05T12:17:14.000Z</time>
      </trkpt>
      <trkpt lat="45.29645" lon="6.16054">
        <ele>2367.1999511719</ele>
        <time>2012-02-05T12:17:21.000Z</time>
      </trkpt>
      <trkpt lat="45.29646" lon="6.16062">
        <ele>2366.1999511719</ele>
        <time>2012-02-05T12:17:27.000Z</time>
      </trkpt>
      <trkpt lat="45.29646" lon="6.16064">
        <ele>2365.8000488281</ele>
        <time>2012-02-05T12:17:30.000Z</time>
      </trkpt>
      <trkpt lat="45.29652" lon="6.16084">
        <ele>2363.1999511719</ele>
        <time>2012-02-05T12:17:38.000Z</time>
      </trkpt>
      <trkpt lat="45.29655" lon="6.16089">
        <ele>2362.1999511719</ele>
        <time>2012-02-05T12:17:39.000Z</time>
      </trkpt>
      <trkpt lat="45.2967" lon="6.16123">
        <ele>2355</ele>
        <time>2012-02-05T12:17:44.000Z</time>
      </trkpt>
      <trkpt lat="45.29672" lon="6.16154">
        <ele>2349.1999511719</ele>
        <time>2012-02-05T12:17:47.000Z</time>
      </trkpt>
      <trkpt lat="45.2967" lon="6.16176">
        <ele>2345.1999511719</ele>
        <time>2012-02-05T12:17:50.000Z</time>
      </trkpt>
      <trkpt lat="45.29666" lon="6.16215">
        <ele>2338.6000976562</ele>
        <time>2012-02-05T12:17:56.000Z</time>
      </trkpt>
      <trkpt lat="45.29664" lon="6.16225">
        <ele>2337.3999023438</ele>
        <time>2012-02-05T12:17:58.000Z</time>
      </trkpt>
      <trkpt lat="45.29659" lon="6.16241">
        <ele>2334.6000976562</ele>
        <time>2012-02-05T12:18:03.000Z</time>
      </trkpt>
      <trkpt lat="45.29653" lon="6.16259">
        <ele>2331.6000976562</ele>
        <time>2012-02-05T12:18:10.000Z</time>
      </trkpt>
      <trkpt lat="45.29652" lon="6.16262">
        <ele>2330.6000976562</ele>
        <time>2012-02-05T12:18:11.000Z</time>
      </trkpt>
      <trkpt lat="45.29655" lon="6.16271">
        <ele>2327.6000976562</ele>
        <time>2012-02-05T12:18:15.000Z</time>
      </trkpt>
      <trkpt lat="45.29655" lon="6.16276">
        <ele>2327</ele>
        <time>2012-02-05T12:18:40.000Z</time>
      </trkpt>
      <trkpt lat="45.2966" lon="6.16294">
        <ele>2323.3999023438</ele>
        <time>2012-02-05T12:18:46.000Z</time>
      </trkpt>
      <trkpt lat="45.29661" lon="6.16299">
        <ele>2322.3999023438</ele>
        <time>2012-02-05T12:18:47.000Z</time>
      </trkpt>
      <trkpt lat="45.29661" lon="6.16311">
        <ele>2320</ele>
        <time>2012-02-05T12:18:49.000Z</time>
      </trkpt>
      <trkpt lat="45.2966" lon="6.16349">
        <ele>2308.3999023438</ele>
        <time>2012-02-05T12:18:54.000Z</time>
      </trkpt>
      <trkpt lat="45.29657" lon="6.16382">
        <ele>2296.6000976562</ele>
        <time>2012-02-05T12:18:59.000Z</time>
      </trkpt>
      <trkpt lat="45.29662" lon="6.16384">
        <ele>2293.6000976562</ele>
        <time>2012-02-05T12:19:02.000Z</time>
      </trkpt>
      <trkpt lat="45.29663" lon="6.16385">
        <ele>2293.3999023438</ele>
        <time>2012-02-05T12:19:03.000Z</time>
      </trkpt>
      <trkpt lat="45.29672" lon="6.16388">
        <ele>2293.6000976562</ele>
        <time>2012-02-05T12:19:31.000Z</time>
      </trkpt>
      <trkpt lat="45.29662" lon="6.164">
        <ele>2290.3999023438</ele>
        <time>2012-02-05T12:19:37.000Z</time>
      </trkpt>
      <trkpt lat="45.2966" lon="6.16402">
        <ele>2290.1999511719</ele>
        <time>2012-02-05T12:19:38.000Z</time>
      </trkpt>
      <trkpt lat="45.29646" lon="6.16419">
        <ele>2286.8000488281</ele>
        <time>2012-02-05T12:19:44.000Z</time>
      </trkpt>
      <trkpt lat="45.29639" lon="6.16427">
        <ele>2284.3999023438</ele>
        <time>2012-02-05T12:19:48.000Z</time>
      </trkpt>
      <trkpt lat="45.2963" lon="6.16432">
        <ele>2282.6000976562</ele>
        <time>2012-02-05T12:19:54.000Z</time>
      </trkpt>
      <trkpt lat="45.29619" lon="6.16442">
        <ele>2278.6000976562</ele>
        <time>2012-02-05T12:19:59.000Z</time>
      </trkpt>
      <trkpt lat="45.29609" lon="6.1647">
        <ele>2269.6000976562</ele>
        <time>2012-02-05T12:20:03.000Z</time>
      </trkpt>
      <trkpt lat="45.29603" lon="6.16507">
        <ele>2261.8000488281</ele>
        <time>2012-02-05T12:20:09.000Z</time>
      </trkpt>
      <trkpt lat="45.29601" lon="6.16519">
        <ele>2259.8000488281</ele>
        <time>2012-02-05T12:20:13.000Z</time>
      </trkpt>
      <trkpt lat="45.29601" lon="6.16535">
        <ele>2257.3999023438</ele>
        <time>2012-02-05T12:20:21.000Z</time>
      </trkpt>
      <trkpt lat="45.29604" lon="6.16541">
        <ele>2257</ele>
        <time>2012-02-05T12:20:37.000Z</time>
      </trkpt>
      <trkpt lat="45.29607" lon="6.16552">
        <ele>2255</ele>
        <time>2012-02-05T12:20:43.000Z</time>
      </trkpt>
      <trkpt lat="45.29609" lon="6.16556">
        <ele>2254.3999023438</ele>
        <time>2012-02-05T12:20:49.000Z</time>
      </trkpt>
      <trkpt lat="45.29608" lon="6.16559">
        <ele>2254</ele>
        <time>2012-02-05T12:20:54.000Z</time>
      </trkpt>
      <trkpt lat="45.29607" lon="6.16566">
        <ele>2253.6000976562</ele>
        <time>2012-02-05T12:21:01.000Z</time>
      </trkpt>
      <trkpt lat="45.29607" lon="6.16574">
        <ele>2253.6000976562</ele>
        <time>2012-02-05T12:21:07.000Z</time>
      </trkpt>
      <trkpt lat="45.29607" lon="6.16589">
        <ele>2252.6000976562</ele>
        <time>2012-02-05T12:21:22.000Z</time>
      </trkpt>
      <trkpt lat="45.29609" lon="6.16597">
        <ele>2252</ele>
        <time>2012-02-05T12:21:37.000Z</time>
      </trkpt>
      <trkpt lat="45.2961" lon="6.16605">
        <ele>2251.8000488281</ele>
        <time>2012-02-05T12:21:44.000Z</time>
      </trkpt>
      <trkpt lat="45.2961" lon="6.16612">
        <ele>2251.6000976562</ele>
        <time>2012-02-05T12:21:49.000Z</time>
      </trkpt>
      <trkpt lat="45.29612" lon="6.16622">
        <ele>2250.3999023438</ele>
        <time>2012-02-05T12:21:56.000Z</time>
      </trkpt>
      <trkpt lat="45.29616" lon="6.16634">
        <ele>2247.3999023438</ele>
        <time>2012-02-05T12:22:02.000Z</time>
      </trkpt>
      <trkpt lat="45.29622" lon="6.16655">
        <ele>2243</ele>
        <time>2012-02-05T12:22:10.000Z</time>
      </trkpt>
      <trkpt lat="45.29624" lon="6.16659">
        <ele>2242</ele>
        <time>2012-02-05T12:22:12.000Z</time>
      </trkpt>
      <trkpt lat="45.29627" lon="6.16674">
        <ele>2239.6000976562</ele>
        <time>2012-02-05T12:22:17.000Z</time>
      </trkpt>
      <trkpt lat="45.2963" lon="6.16682">
        <ele>2238.6000976562</ele>
        <time>2012-02-05T12:22:22.000Z</time>
      </trkpt>
      <trkpt lat="45.29631" lon="6.16692">
        <ele>2238</ele>
        <time>2012-02-05T12:22:33.000Z</time>
      </trkpt>
      <trkpt lat="45.29637" lon="6.16711">
        <ele>2235.1999511719</ele>
        <time>2012-02-05T12:22:59.000Z</time>
      </trkpt>
      <trkpt lat="45.29639" lon="6.16716">
        <ele>2235</ele>
        <time>2012-02-05T12:23:04.000Z</time>
      </trkpt>
      <trkpt lat="45.29645" lon="6.16719">
        <ele>2235</ele>
        <time>2012-02-05T12:23:10.000Z</time>
      </trkpt>
      <trkpt lat="45.29651" lon="6.16714">
        <ele>2234.8000488281</ele>
        <time>2012-02-05T12:23:18.000Z</time>
      </trkpt>
      <trkpt lat="45.29652" lon="6.16711">
        <ele>2234.8000488281</ele>
        <time>2012-02-05T12:23:31.000Z</time>
      </trkpt>
      <trkpt lat="45.29651" lon="6.16719">
        <ele>2233.3999023438</ele>
        <time>2012-02-05T12:23:36.000Z</time>
      </trkpt>
      <trkpt lat="45.29657" lon="6.16743">
        <ele>2228</ele>
        <time>2012-02-05T12:23:42.000Z</time>
      </trkpt>
      <trkpt lat="45.29658" lon="6.16749">
        <ele>2226</ele>
        <time>2012-02-05T12:23:43.000Z</time>
      </trkpt>
      <trkpt lat="45.29668" lon="6.16783">
        <ele>2217.6000976562</ele>
        <time>2012-02-05T12:23:47.000Z</time>
      </trkpt>
      <trkpt lat="45.29675" lon="6.16827">
        <ele>2209.6000976562</ele>
        <time>2012-02-05T12:23:50.000Z</time>
      </trkpt>
      <trkpt lat="45.29681" lon="6.16838">
        <ele>2207</ele>
        <time>2012-02-05T12:23:52.000Z</time>
      </trkpt>
      <trkpt lat="45.297" lon="6.16856">
        <ele>2200.6000976562</ele>
        <time>2012-02-05T12:23:58.000Z</time>
      </trkpt>
      <trkpt lat="45.29712" lon="6.16862">
        <ele>2197.1999511719</ele>
        <time>2012-02-05T12:24:03.000Z</time>
      </trkpt>
      <trkpt lat="45.29717" lon="6.16863">
        <ele>2196.6000976562</ele>
        <time>2012-02-05T12:24:12.000Z</time>
      </trkpt>
      <trkpt lat="45.29721" lon="6.16863">
        <ele>2196.1999511719</ele>
        <time>2012-02-05T12:24:21.000Z</time>
      </trkpt>
      <trkpt lat="45.2973" lon="6.16865">
        <ele>2194.1999511719</ele>
        <time>2012-02-05T12:24:29.000Z</time>
      </trkpt>
      <trkpt lat="45.29735" lon="6.16863">
        <ele>2192.8000488281</ele>
        <time>2012-02-05T12:24:32.000Z</time>
      </trkpt>
      <trkpt lat="45.29743" lon="6.16859">
        <ele>2190.1999511719</ele>
        <time>2012-02-05T12:24:38.000Z</time>
      </trkpt>
      <trkpt lat="45.29744" lon="6.16859">
        <ele>2189.8000488281</ele>
        <time>2012-02-05T12:24:39.000Z</time>
      </trkpt>
      <trkpt lat="45.29756" lon="6.16857">
        <ele>2186.3999023438</ele>
        <time>2012-02-05T12:24:45.000Z</time>
      </trkpt>
      <trkpt lat="45.29763" lon="6.16861">
        <ele>2183.8000488281</ele>
        <time>2012-02-05T12:24:47.000Z</time>
      </trkpt>
      <trkpt lat="45.29782" lon="6.1687">
        <ele>2170.8000488281</ele>
        <time>2012-02-05T12:24:52.000Z</time>
      </trkpt>
      <trkpt lat="45.29786" lon="6.16868">
        <ele>2165.3999023438</ele>
        <time>2012-02-05T12:24:55.000Z</time>
      </trkpt>
      <trkpt lat="45.29785" lon="6.16867">
        <ele>2165.1999511719</ele>
        <time>2012-02-05T12:24:56.000Z</time>
      </trkpt>
      <trkpt lat="45.29782" lon="6.16868">
        <ele>2164.8000488281</ele>
        <time>2012-02-05T12:25:03.000Z</time>
      </trkpt>
      <trkpt lat="45.29795" lon="6.16874">
        <ele>2161.8000488281</ele>
        <time>2012-02-05T12:25:07.000Z</time>
      </trkpt>
      <trkpt lat="45.29805" lon="6.16877">
        <ele>2156.3999023438</ele>
        <time>2012-02-05T12:25:09.000Z</time>
      </trkpt>
      <trkpt lat="45.29814" lon="6.16884">
        <ele>2149.6000976562</ele>
        <time>2012-02-05T12:25:11.000Z</time>
      </trkpt>
      <trkpt lat="45.29827" lon="6.16895">
        <ele>2141.1999511719</ele>
        <time>2012-02-05T12:25:14.000Z</time>
      </trkpt>
      <trkpt lat="45.29838" lon="6.16907">
        <ele>2132</ele>
        <time>2012-02-05T12:25:17.000Z</time>
      </trkpt>
      <trkpt lat="45.29834" lon="6.1693">
        <ele>2121.6000976562</ele>
        <time>2012-02-05T12:25:21.000Z</time>
      </trkpt>
      <trkpt lat="45.29831" lon="6.16927">
        <ele>2117.1999511719</ele>
        <time>2012-02-05T12:25:26.000Z</time>
      </trkpt>
      <trkpt lat="45.29839" lon="6.1692">
        <ele>2116.8000488281</ele>
        <time>2012-02-05T12:26:15.000Z</time>
      </trkpt>
      <trkpt lat="45.29845" lon="6.16933">
        <ele>2112.6000976562</ele>
        <time>2012-02-05T12:26:20.000Z</time>
      </trkpt>
      <trkpt lat="45.29859" lon="6.16953">
        <ele>2101.6000976562</ele>
        <time>2012-02-05T12:26:24.000Z</time>
      </trkpt>
      <trkpt lat="45.29874" lon="6.1697">
        <ele>2089.1999511719</ele>
        <time>2012-02-05T12:26:28.000Z</time>
      </trkpt>
      <trkpt lat="45.29882" lon="6.16983">
        <ele>2081.1999511719</ele>
        <time>2012-02-05T12:26:30.000Z</time>
      </trkpt>
      <trkpt lat="45.29884" lon="6.16992">
        <ele>2068.6000976562</ele>
        <time>2012-02-05T12:26:34.000Z</time>
      </trkpt>
      <trkpt lat="45.29886" lon="6.1699">
        <ele>2067.3999023438</ele>
        <time>2012-02-05T12:26:37.000Z</time>
      </trkpt>
      <trkpt lat="45.29895" lon="6.1701">
        <ele>2062</ele>
        <time>2012-02-05T12:26:41.000Z</time>
      </trkpt>
      <trkpt lat="45.29893" lon="6.17039">
        <ele>2053</ele>
        <time>2012-02-05T12:26:44.000Z</time>
      </trkpt>
      <trkpt lat="45.29893" lon="6.1704">
        <ele>2050.3999023438</ele>
        <time>2012-02-05T12:26:46.000Z</time>
      </trkpt>
      <trkpt lat="45.29893" lon="6.17039">
        <ele>2050.1999511719</ele>
        <time>2012-02-05T12:26:47.000Z</time>
      </trkpt>
      <trkpt lat="45.29893" lon="6.17041">
        <ele>2050.6000976562</ele>
        <time>2012-02-05T12:27:15.000Z</time>
      </trkpt>
      <trkpt lat="45.29894" lon="6.17044">
        <ele>2050.6000976562</ele>
        <time>2012-02-05T12:27:19.000Z</time>
      </trkpt>
      <trkpt lat="45.29903" lon="6.17048">
        <ele>2047.8000488281</ele>
        <time>2012-02-05T12:27:23.000Z</time>
      </trkpt>
      <trkpt lat="45.29914" lon="6.17059">
        <ele>2039.5999755859</ele>
        <time>2012-02-05T12:27:27.000Z</time>
      </trkpt>
      <trkpt lat="45.29934" lon="6.17083">
        <ele>2025.8000488281</ele>
        <time>2012-02-05T12:27:32.000Z</time>
      </trkpt>
      <trkpt lat="45.29933" lon="6.17097">
        <ele>2016.8000488281</ele>
        <time>2012-02-05T12:27:35.000Z</time>
      </trkpt>
      <trkpt lat="45.29932" lon="6.17098">
        <ele>2014.1999511719</ele>
        <time>2012-02-05T12:27:38.000Z</time>
      </trkpt>
      <trkpt lat="45.2993" lon="6.17098">
        <ele>2014.1999511719</ele>
        <time>2012-02-05T12:27:56.000Z</time>
      </trkpt>
      <trkpt lat="45.29937" lon="6.17112">
        <ele>2010</ele>
        <time>2012-02-05T12:28:00.000Z</time>
      </trkpt>
      <trkpt lat="45.29946" lon="6.1713">
        <ele>2002.8000488281</ele>
        <time>2012-02-05T12:28:03.000Z</time>
      </trkpt>
      <trkpt lat="45.29956" lon="6.17152">
        <ele>1992.1999511719</ele>
        <time>2012-02-05T12:28:06.000Z</time>
      </trkpt>
      <trkpt lat="45.29968" lon="6.17177">
        <ele>1982.1999511719</ele>
        <time>2012-02-05T12:28:09.000Z</time>
      </trkpt>
      <trkpt lat="45.29975" lon="6.17198">
        <ele>1967.8000488281</ele>
        <time>2012-02-05T12:28:13.000Z</time>
      </trkpt>
      <trkpt lat="45.29974" lon="6.17202">
        <ele>1964.1999511719</ele>
        <time>2012-02-05T12:28:16.000Z</time>
      </trkpt>
      <trkpt lat="45.29972" lon="6.172">
        <ele>1964.1999511719</ele>
        <time>2012-02-05T12:28:21.000Z</time>
      </trkpt>
      <trkpt lat="45.29972" lon="6.172">
        <ele>1964.1999511719</ele>
        <time>2012-02-05T12:28:22.000Z</time>
      </trkpt>
      <trkpt lat="45.2998" lon="6.17206">
        <ele>1962.8000488281</ele>
        <time>2012-02-05T12:28:26.000Z</time>
      </trkpt>
      <trkpt lat="45.29994" lon="6.1722">
        <ele>1956</ele>
        <time>2012-02-05T12:28:29.000Z</time>
      </trkpt>
      <trkpt lat="45.30016" lon="6.17239">
        <ele>1946</ele>
        <time>2012-02-05T12:28:32.000Z</time>
      </trkpt>
      <trkpt lat="45.30025" lon="6.17268">
        <ele>1932.5999755859</ele>
        <time>2012-02-05T12:28:35.000Z</time>
      </trkpt>
      <trkpt lat="45.30032" lon="6.17303">
        <ele>1922.4000244141</ele>
        <time>2012-02-05T12:28:38.000Z</time>
      </trkpt>
      <trkpt lat="45.30035" lon="6.17326">
        <ele>1907.4000244141</ele>
        <time>2012-02-05T12:28:43.000Z</time>
      </trkpt>
      <trkpt lat="45.30038" lon="6.1732">
        <ele>1905.5999755859</ele>
        <time>2012-02-05T12:28:46.000Z</time>
      </trkpt>
      <trkpt lat="45.30035" lon="6.17325">
        <ele>1906</ele>
        <time>2012-02-05T12:29:16.000Z</time>
      </trkpt>
      <trkpt lat="45.30044" lon="6.17339">
        <ele>1901.8000488281</ele>
        <time>2012-02-05T12:29:21.000Z</time>
      </trkpt>
      <trkpt lat="45.30054" lon="6.1736">
        <ele>1895</ele>
        <time>2012-02-05T12:29:24.000Z</time>
      </trkpt>
      <trkpt lat="45.30076" lon="6.17402">
        <ele>1879.5999755859</ele>
        <time>2012-02-05T12:29:29.000Z</time>
      </trkpt>
      <trkpt lat="45.30081" lon="6.17412">
        <ele>1876</ele>
        <time>2012-02-05T12:29:30.000Z</time>
      </trkpt>
      <trkpt lat="45.30086" lon="6.17434">
        <ele>1862.4000244141</ele>
        <time>2012-02-05T12:29:34.000Z</time>
      </trkpt>
      <trkpt lat="45.30084" lon="6.17431">
        <ele>1860.5999755859</ele>
        <time>2012-02-05T12:29:37.000Z</time>
      </trkpt>
      <trkpt lat="45.30081" lon="6.17439">
        <ele>1862</ele>
        <time>2012-02-05T12:29:52.000Z</time>
      </trkpt>
      <trkpt lat="45.30083" lon="6.17441">
        <ele>1862</ele>
        <time>2012-02-05T12:30:27.000Z</time>
      </trkpt>
      <trkpt lat="45.30092" lon="6.17455">
        <ele>1858.4000244141</ele>
        <time>2012-02-05T12:30:32.000Z</time>
      </trkpt>
      <trkpt lat="45.301" lon="6.17475">
        <ele>1851.8000488281</ele>
        <time>2012-02-05T12:30:35.000Z</time>
      </trkpt>
      <trkpt lat="45.30101" lon="6.17504">
        <ele>1842</ele>
        <time>2012-02-05T12:30:39.000Z</time>
      </trkpt>
      <trkpt lat="45.30102" lon="6.17527">
        <ele>1835.5999755859</ele>
        <time>2012-02-05T12:30:42.000Z</time>
      </trkpt>
      <trkpt lat="45.30113" lon="6.17566">
        <ele>1822.4000244141</ele>
        <time>2012-02-05T12:30:46.000Z</time>
      </trkpt>
      <trkpt lat="45.30117" lon="6.17578">
        <ele>1818.5999755859</ele>
        <time>2012-02-05T12:30:47.000Z</time>
      </trkpt>
      <trkpt lat="45.30126" lon="6.17621">
        <ele>1807.4000244141</ele>
        <time>2012-02-05T12:30:51.000Z</time>
      </trkpt>
      <trkpt lat="45.30127" lon="6.17634">
        <ele>1800.4000244141</ele>
        <time>2012-02-05T12:30:55.000Z</time>
      </trkpt>
      <trkpt lat="45.30125" lon="6.17634">
        <ele>1800.1999511719</ele>
        <time>2012-02-05T12:30:56.000Z</time>
      </trkpt>
      <trkpt lat="45.30122" lon="6.17662">
        <ele>1799.5999755859</ele>
        <time>2012-02-05T12:32:24.000Z</time>
      </trkpt>
      <trkpt lat="45.30127" lon="6.17684">
        <ele>1794.8000488281</ele>
        <time>2012-02-05T12:32:28.000Z</time>
      </trkpt>
      <trkpt lat="45.30131" lon="6.17732">
        <ele>1784.1999511719</ele>
        <time>2012-02-05T12:32:33.000Z</time>
      </trkpt>
      <trkpt lat="45.30131" lon="6.17779">
        <ele>1773</ele>
        <time>2012-02-05T12:32:37.000Z</time>
      </trkpt>
      <trkpt lat="45.30132" lon="6.17818">
        <ele>1761.8000488281</ele>
        <time>2012-02-05T12:32:40.000Z</time>
      </trkpt>
      <trkpt lat="45.30134" lon="6.17868">
        <ele>1749.5999755859</ele>
        <time>2012-02-05T12:32:44.000Z</time>
      </trkpt>
      <trkpt lat="45.30132" lon="6.17888">
        <ele>1745.8000488281</ele>
        <time>2012-02-05T12:32:46.000Z</time>
      </trkpt>
      <trkpt lat="45.30133" lon="6.17914">
        <ele>1739.1999511719</ele>
        <time>2012-02-05T12:32:49.000Z</time>
      </trkpt>
      <trkpt lat="45.30142" lon="6.17944">
        <ele>1733.5999755859</ele>
        <time>2012-02-05T12:32:54.000Z</time>
      </trkpt>
      <trkpt lat="45.30139" lon="6.17945">
        <ele>1732</ele>
        <time>2012-02-05T12:32:58.000Z</time>
      </trkpt>
      <trkpt lat="45.30134" lon="6.17934">
        <ele>1732.5999755859</ele>
        <time>2012-02-05T12:33:10.000Z</time>
      </trkpt>
      <trkpt lat="45.30132" lon="6.17936">
        <ele>1734</ele>
        <time>2012-02-05T12:33:24.000Z</time>
      </trkpt>
      <trkpt lat="45.30135" lon="6.17935">
        <ele>1733.1999511719</ele>
        <time>2012-02-05T12:33:27.000Z</time>
      </trkpt>
      <trkpt lat="45.30137" lon="6.17956">
        <ele>1730.5999755859</ele>
        <time>2012-02-05T12:33:32.000Z</time>
      </trkpt>
      <trkpt lat="45.30138" lon="6.17965">
        <ele>1729.4000244141</ele>
        <time>2012-02-05T12:33:33.000Z</time>
      </trkpt>
      <trkpt lat="45.30131" lon="6.18009">
        <ele>1722.4000244141</ele>
        <time>2012-02-05T12:33:37.000Z</time>
      </trkpt>
      <trkpt lat="45.30111" lon="6.18067">
        <ele>1711.1999511719</ele>
        <time>2012-02-05T12:33:43.000Z</time>
      </trkpt>
      <trkpt lat="45.30094" lon="6.18115">
        <ele>1701.4000244141</ele>
        <time>2012-02-05T12:33:48.000Z</time>
      </trkpt>
      <trkpt lat="45.30081" lon="6.18149">
        <ele>1694.8000488281</ele>
        <time>2012-02-05T12:33:51.000Z</time>
      </trkpt>
      <trkpt lat="45.30071" lon="6.18198">
        <ele>1683.5999755859</ele>
        <time>2012-02-05T12:33:56.000Z</time>
      </trkpt>
      <trkpt lat="45.30062" lon="6.18242">
        <ele>1674.1999511719</ele>
        <time>2012-02-05T12:34:01.000Z</time>
      </trkpt>
      <trkpt lat="45.30039" lon="6.18303">
        <ele>1660.5999755859</ele>
        <time>2012-02-05T12:34:06.000Z</time>
      </trkpt>
      <trkpt lat="45.30036" lon="6.18315">
        <ele>1659</ele>
        <time>2012-02-05T12:34:07.000Z</time>
      </trkpt>
      <trkpt lat="45.3003" lon="6.18361">
        <ele>1654.4000244141</ele>
        <time>2012-02-05T12:34:11.000Z</time>
      </trkpt>
      <trkpt lat="45.30024" lon="6.18426">
        <ele>1649.8000488281</ele>
        <time>2012-02-05T12:34:18.000Z</time>
      </trkpt>
      <trkpt lat="45.30023" lon="6.18441">
        <ele>1648.8000488281</ele>
        <time>2012-02-05T12:34:20.000Z</time>
      </trkpt>
      <trkpt lat="45.30017" lon="6.1846">
        <ele>1645.5999755859</ele>
        <time>2012-02-05T12:34:24.000Z</time>
      </trkpt>
      <trkpt lat="45.30013" lon="6.18468">
        <ele>1643.5999755859</ele>
        <time>2012-02-05T12:34:28.000Z</time>
      </trkpt>
      <trkpt lat="45.30005" lon="6.18471">
        <ele>1643.5999755859</ele>
        <time>2012-02-05T12:35:12.000Z</time>
      </trkpt>
      <trkpt lat="45.29993" lon="6.18488">
        <ele>1640.1999511719</ele>
        <time>2012-02-05T12:35:15.000Z</time>
      </trkpt>
      <trkpt lat="45.29978" lon="6.18508">
        <ele>1636.1999511719</ele>
        <time>2012-02-05T12:35:18.000Z</time>
      </trkpt>
      <trkpt lat="45.29965" lon="6.18545">
        <ele>1630.8000488281</ele>
        <time>2012-02-05T12:35:22.000Z</time>
      </trkpt>
      <trkpt lat="45.29963" lon="6.18558">
        <ele>1629</ele>
        <time>2012-02-05T12:35:24.000Z</time>
      </trkpt>
      <trkpt lat="45.29965" lon="6.18594">
        <ele>1624.1999511719</ele>
        <time>2012-02-05T12:35:30.000Z</time>
      </trkpt>
      <trkpt lat="45.29965" lon="6.18639">
        <ele>1616.8000488281</ele>
        <time>2012-02-05T12:35:35.000Z</time>
      </trkpt>
      <trkpt lat="45.29965" lon="6.18648">
        <ele>1615.4000244141</ele>
        <time>2012-02-05T12:35:36.000Z</time>
      </trkpt>
      <trkpt lat="45.29964" lon="6.18669">
        <ele>1612.4000244141</ele>
        <time>2012-02-05T12:35:40.000Z</time>
      </trkpt>
      <trkpt lat="45.29963" lon="6.18675">
        <ele>1611.4000244141</ele>
        <time>2012-02-05T12:35:41.000Z</time>
      </trkpt>
      <trkpt lat="45.2996" lon="6.18695">
        <ele>1606.5999755859</ele>
        <time>2012-02-05T12:35:44.000Z</time>
      </trkpt>
      <trkpt lat="45.29953" lon="6.18712">
        <ele>1601.4000244141</ele>
        <time>2012-02-05T12:35:49.000Z</time>
      </trkpt>
      <trkpt lat="45.29951" lon="6.18714">
        <ele>1601.1999511719</ele>
        <time>2012-02-05T12:35:55.000Z</time>
      </trkpt>
      <trkpt lat="45.29953" lon="6.18712">
        <ele>1601.8000488281</ele>
        <time>2012-02-05T12:36:24.000Z</time>
      </trkpt>
      <trkpt lat="45.2995" lon="6.18722">
        <ele>1601</ele>
        <time>2012-02-05T12:36:28.000Z</time>
      </trkpt>
      <trkpt lat="45.29931" lon="6.1876">
        <ele>1593.4000244141</ele>
        <time>2012-02-05T12:36:35.000Z</time>
      </trkpt>
      <trkpt lat="45.2991" lon="6.1879">
        <ele>1587.1999511719</ele>
        <time>2012-02-05T12:36:40.000Z</time>
      </trkpt>
      <trkpt lat="45.29891" lon="6.18817">
        <ele>1580.5999755859</ele>
        <time>2012-02-05T12:36:45.000Z</time>
      </trkpt>
      <trkpt lat="45.29888" lon="6.18822">
        <ele>1579.1999511719</ele>
        <time>2012-02-05T12:36:46.000Z</time>
      </trkpt>
      <trkpt lat="45.29878" lon="6.18843">
        <ele>1574.1999511719</ele>
        <time>2012-02-05T12:36:49.000Z</time>
      </trkpt>
      <trkpt lat="45.29872" lon="6.18864">
        <ele>1569.1999511719</ele>
        <time>2012-02-05T12:36:52.000Z</time>
      </trkpt>
      <trkpt lat="45.29865" lon="6.189">
        <ele>1559.8000488281</ele>
        <time>2012-02-05T12:36:58.000Z</time>
      </trkpt>
      <trkpt lat="45.29856" lon="6.18931">
        <ele>1554.5999755859</ele>
        <time>2012-02-05T12:37:02.000Z</time>
      </trkpt>
      <trkpt lat="45.29852" lon="6.18948">
        <ele>1551.1999511719</ele>
        <time>2012-02-05T12:37:04.000Z</time>
      </trkpt>
      <trkpt lat="45.29847" lon="6.18984">
        <ele>1545.1999511719</ele>
        <time>2012-02-05T12:37:09.000Z</time>
      </trkpt>
      <trkpt lat="45.29837" lon="6.19025">
        <ele>1538.5999755859</ele>
        <time>2012-02-05T12:37:15.000Z</time>
      </trkpt>
      <trkpt lat="45.29831" lon="6.19043">
        <ele>1534.8000488281</ele>
        <time>2012-02-05T12:37:19.000Z</time>
      </trkpt>
      <trkpt lat="45.29831" lon="6.19042">
        <ele>1534.5999755859</ele>
        <time>2012-02-05T12:37:20.000Z</time>
      </trkpt>
      <trkpt lat="45.29832" lon="6.19042">
        <ele>1535.4000244141</ele>
        <time>2012-02-05T12:37:37.000Z</time>
      </trkpt>
      <trkpt lat="45.29831" lon="6.1906">
        <ele>1532.8000488281</ele>
        <time>2012-02-05T12:37:41.000Z</time>
      </trkpt>
      <trkpt lat="45.29829" lon="6.19104">
        <ele>1524</ele>
        <time>2012-02-05T12:37:47.000Z</time>
      </trkpt>
      <trkpt lat="45.29822" lon="6.19146">
        <ele>1516.5999755859</ele>
        <time>2012-02-05T12:37:51.000Z</time>
      </trkpt>
      <trkpt lat="45.29818" lon="6.19185">
        <ele>1510.4000244141</ele>
        <time>2012-02-05T12:37:56.000Z</time>
      </trkpt>
      <trkpt lat="45.29815" lon="6.19216">
        <ele>1505</ele>
        <time>2012-02-05T12:38:01.000Z</time>
      </trkpt>
      <trkpt lat="45.29818" lon="6.19271">
        <ele>1493.8000488281</ele>
        <time>2012-02-05T12:38:07.000Z</time>
      </trkpt>
      <trkpt lat="45.29814" lon="6.19305">
        <ele>1488.1999511719</ele>
        <time>2012-02-05T12:38:11.000Z</time>
      </trkpt>
      <trkpt lat="45.29804" lon="6.19338">
        <ele>1483.8000488281</ele>
        <time>2012-02-05T12:38:15.000Z</time>
      </trkpt>
      <trkpt lat="45.29806" lon="6.19355">
        <ele>1481.4000244141</ele>
        <time>2012-02-05T12:38:19.000Z</time>
      </trkpt>
      <trkpt lat="45.29804" lon="6.19356">
        <ele>1481.1999511719</ele>
        <time>2012-02-05T12:38:23.000Z</time>
      </trkpt>
      <trkpt lat="45.29801" lon="6.19365">
        <ele>1479.1999511719</ele>
        <time>2012-02-05T12:38:29.000Z</time>
      </trkpt>
      <trkpt lat="45.29799" lon="6.19368">
        <ele>1479.1999511719</ele>
        <time>2012-02-05T12:38:30.000Z</time>
      </trkpt>
      <trkpt lat="45.29792" lon="6.1939">
        <ele>1476.4000244141</ele>
        <time>2012-02-05T12:38:35.000Z</time>
      </trkpt>
      <trkpt lat="45.29789" lon="6.19412">
        <ele>1473.5999755859</ele>
        <time>2012-02-05T12:38:39.000Z</time>
      </trkpt>
      <trkpt lat="45.29787" lon="6.19418">
        <ele>1473.4000244141</ele>
        <time>2012-02-05T12:38:40.000Z</time>
      </trkpt>
      <trkpt lat="45.29785" lon="6.19425">
        <ele>1472.5999755859</ele>
        <time>2012-02-05T12:38:41.000Z</time>
      </trkpt>
      <trkpt lat="45.29764" lon="6.19458">
        <ele>1468</ele>
        <time>2012-02-05T12:38:46.000Z</time>
      </trkpt>
      <trkpt lat="45.29757" lon="6.19468">
        <ele>1467.1999511719</ele>
        <time>2012-02-05T12:38:48.000Z</time>
      </trkpt>
      <trkpt lat="45.29754" lon="6.19495">
        <ele>1464.1999511719</ele>
        <time>2012-02-05T12:38:52.000Z</time>
      </trkpt>
      <trkpt lat="45.29755" lon="6.19507">
        <ele>1462.1999511719</ele>
        <time>2012-02-05T12:38:56.000Z</time>
      </trkpt>
      <trkpt lat="45.29755" lon="6.19507">
        <ele>1462.1999511719</ele>
        <time>2012-02-05T12:38:57.000Z</time>
      </trkpt>
      <trkpt lat="45.29753" lon="6.19513">
        <ele>1462.4000244141</ele>
        <time>2012-02-05T12:39:03.000Z</time>
      </trkpt>
      <trkpt lat="45.29752" lon="6.19518">
        <ele>1462.4000244141</ele>
        <time>2012-02-05T12:39:07.000Z</time>
      </trkpt>
      <trkpt lat="45.29742" lon="6.19528">
        <ele>1462</ele>
        <time>2012-02-05T12:39:15.000Z</time>
      </trkpt>
      <trkpt lat="45.29729" lon="6.19541">
        <ele>1460.5999755859</ele>
        <time>2012-02-05T12:39:20.000Z</time>
      </trkpt>
      <trkpt lat="45.29716" lon="6.19558">
        <ele>1459.1999511719</ele>
        <time>2012-02-05T12:39:26.000Z</time>
      </trkpt>
      <trkpt lat="45.29703" lon="6.19565">
        <ele>1458.4000244141</ele>
        <time>2012-02-05T12:39:31.000Z</time>
      </trkpt>
      <trkpt lat="45.29694" lon="6.19566">
        <ele>1457.5999755859</ele>
        <time>2012-02-05T12:39:35.000Z</time>
      </trkpt>
      <trkpt lat="45.29683" lon="6.19573">
        <ele>1457.1999511719</ele>
        <time>2012-02-05T12:39:41.000Z</time>
      </trkpt>
      <trkpt lat="45.2967" lon="6.19586">
        <ele>1456.1999511719</ele>
        <time>2012-02-05T12:39:48.000Z</time>
      </trkpt>
      <trkpt lat="45.29664" lon="6.19597">
        <ele>1455.8000488281</ele>
        <time>2012-02-05T12:39:53.000Z</time>
      </trkpt>
      <trkpt lat="45.29663" lon="6.19598">
        <ele>1456.1999511719</ele>
        <time>2012-02-05T12:40:00.000Z</time>
      </trkpt>
      <trkpt lat="45.29657" lon="6.19608">
        <ele>1457</ele>
        <time>2012-02-05T12:40:36.000Z</time>
      </trkpt>
      <trkpt lat="45.29645" lon="6.19633">
        <ele>1454.8000488281</ele>
        <time>2012-02-05T12:40:42.000Z</time>
      </trkpt>
      <trkpt lat="45.2964" lon="6.19642">
        <ele>1454</ele>
        <time>2012-02-05T12:40:44.000Z</time>
      </trkpt>
      <trkpt lat="45.29629" lon="6.19653">
        <ele>1452</ele>
        <time>2012-02-05T12:40:47.000Z</time>
      </trkpt>
      <trkpt lat="45.29609" lon="6.19687">
        <ele>1446.8000488281</ele>
        <time>2012-02-05T12:40:52.000Z</time>
      </trkpt>
      <trkpt lat="45.29589" lon="6.19718">
        <ele>1440.5999755859</ele>
        <time>2012-02-05T12:40:57.000Z</time>
      </trkpt>
      <trkpt lat="45.29591" lon="6.19717">
        <ele>1437.1999511719</ele>
        <time>2012-02-05T12:41:00.000Z</time>
      </trkpt>
      <trkpt lat="45.29592" lon="6.19718">
        <ele>1436.5999755859</ele>
        <time>2012-02-05T12:41:02.000Z</time>
      </trkpt>
      <trkpt lat="45.2959" lon="6.19718">
        <ele>1438.4000244141</ele>
        <time>2012-02-05T12:41:16.000Z</time>
      </trkpt>
      <trkpt lat="45.29591" lon="6.1972">
        <ele>1438.5999755859</ele>
        <time>2012-02-05T12:41:35.000Z</time>
      </trkpt>
      <trkpt lat="45.29589" lon="6.19724">
        <ele>1439</ele>
        <time>2012-02-05T12:41:41.000Z</time>
      </trkpt>
      <trkpt lat="45.29592" lon="6.19725">
        <ele>1439.5999755859</ele>
        <time>2012-02-05T12:41:51.000Z</time>
      </trkpt>
      <trkpt lat="45.29586" lon="6.19737">
        <ele>1437.8000488281</ele>
        <time>2012-02-05T12:41:56.000Z</time>
      </trkpt>
      <trkpt lat="45.29584" lon="6.19745">
        <ele>1437.1999511719</ele>
        <time>2012-02-05T12:41:58.000Z</time>
      </trkpt>
      <trkpt lat="45.29584" lon="6.1976">
        <ele>1435.8000488281</ele>
        <time>2012-02-05T12:42:03.000Z</time>
      </trkpt>
      <trkpt lat="45.2959" lon="6.19784">
        <ele>1433.8000488281</ele>
        <time>2012-02-05T12:42:08.000Z</time>
      </trkpt>
      <trkpt lat="45.29591" lon="6.1979">
        <ele>1433</ele>
        <time>2012-02-05T12:42:09.000Z</time>
      </trkpt>
      <trkpt lat="45.29588" lon="6.1981">
        <ele>1430.1999511719</ele>
        <time>2012-02-05T12:42:12.000Z</time>
      </trkpt>
      <trkpt lat="45.2958" lon="6.19836">
        <ele>1427</ele>
        <time>2012-02-05T12:42:15.000Z</time>
      </trkpt>
      <trkpt lat="45.29575" lon="6.19859">
        <ele>1424.1999511719</ele>
        <time>2012-02-05T12:42:18.000Z</time>
      </trkpt>
      <trkpt lat="45.29566" lon="6.19889">
        <ele>1418.1999511719</ele>
        <time>2012-02-05T12:42:22.000Z</time>
      </trkpt>
      <trkpt lat="45.29547" lon="6.19913">
        <ele>1412.5999755859</ele>
        <time>2012-02-05T12:42:26.000Z</time>
      </trkpt>
      <trkpt lat="45.29539" lon="6.19935">
        <ele>1410.8000488281</ele>
        <time>2012-02-05T12:42:29.000Z</time>
      </trkpt>
      <trkpt lat="45.29537" lon="6.19957">
        <ele>1408.4000244141</ele>
        <time>2012-02-05T12:42:33.000Z</time>
      </trkpt>
      <trkpt lat="45.29537" lon="6.19958">
        <ele>1408.1999511719</ele>
        <time>2012-02-05T12:42:34.000Z</time>
      </trkpt>
      <trkpt lat="45.29541" lon="6.19958">
        <ele>1408.1999511719</ele>
        <time>2012-02-05T12:42:45.000Z</time>
      </trkpt>
      <trkpt lat="45.29532" lon="6.19968">
        <ele>1406.1999511719</ele>
        <time>2012-02-05T12:42:49.000Z</time>
      </trkpt>
      <trkpt lat="45.29519" lon="6.19985">
        <ele>1401.4000244141</ele>
        <time>2012-02-05T12:42:52.000Z</time>
      </trkpt>
      <trkpt lat="45.29504" lon="6.2001">
        <ele>1397.8000488281</ele>
        <time>2012-02-05T12:42:57.000Z</time>
      </trkpt>
      <trkpt lat="45.29494" lon="6.2003">
        <ele>1396</ele>
        <time>2012-02-05T12:43:02.000Z</time>
      </trkpt>
      <trkpt lat="45.29482" lon="6.20041">
        <ele>1393.5999755859</ele>
        <time>2012-02-05T12:43:05.000Z</time>
      </trkpt>
      <trkpt lat="45.29472" lon="6.20062">
        <ele>1390</ele>
        <time>2012-02-05T12:43:09.000Z</time>
      </trkpt>
      <trkpt lat="45.29467" lon="6.20073">
        <ele>1387.1999511719</ele>
        <time>2012-02-05T12:43:11.000Z</time>
      </trkpt>
      <trkpt lat="45.2946" lon="6.20086">
        <ele>1385</ele>
        <time>2012-02-05T12:43:13.000Z</time>
      </trkpt>
      <trkpt lat="45.29459" lon="6.20128">
        <ele>1379.1999511719</ele>
        <time>2012-02-05T12:43:18.000Z</time>
      </trkpt>
      <trkpt lat="45.2946" lon="6.20146">
        <ele>1378</ele>
        <time>2012-02-05T12:43:21.000Z</time>
      </trkpt>
      <trkpt lat="45.29449" lon="6.20188">
        <ele>1374.4000244141</ele>
        <time>2012-02-05T12:43:28.000Z</time>
      </trkpt>
      <trkpt lat="45.29443" lon="6.20223">
        <ele>1370</ele>
        <time>2012-02-05T12:43:32.000Z</time>
      </trkpt>
      <trkpt lat="45.29435" lon="6.20266">
        <ele>1367.8000488281</ele>
        <time>2012-02-05T12:43:37.000Z</time>
      </trkpt>
      <trkpt lat="45.29434" lon="6.20272">
        <ele>1367.5999755859</ele>
        <time>2012-02-05T12:43:38.000Z</time>
      </trkpt>
      <trkpt lat="45.2942" lon="6.20294">
        <ele>1364.1999511719</ele>
        <time>2012-02-05T12:43:42.000Z</time>
      </trkpt>
      <trkpt lat="45.29401" lon="6.20308">
        <ele>1361.5999755859</ele>
        <time>2012-02-05T12:43:46.000Z</time>
      </trkpt>
      <trkpt lat="45.29388" lon="6.2033">
        <ele>1358.5999755859</ele>
        <time>2012-02-05T12:43:50.000Z</time>
      </trkpt>
      <trkpt lat="45.29387" lon="6.20336">
        <ele>1358.1999511719</ele>
        <time>2012-02-05T12:43:51.000Z</time>
      </trkpt>
      <trkpt lat="45.29386" lon="6.20388">
        <ele>1351.5999755859</ele>
        <time>2012-02-05T12:43:57.000Z</time>
      </trkpt>
      <trkpt lat="45.29387" lon="6.20397">
        <ele>1351.1999511719</ele>
        <time>2012-02-05T12:43:58.000Z</time>
      </trkpt>
      <trkpt lat="45.29391" lon="6.20423">
        <ele>1350.4000244141</ele>
        <time>2012-02-05T12:44:03.000Z</time>
      </trkpt>
      <trkpt lat="45.29391" lon="6.20428">
        <ele>1350.4000244141</ele>
        <time>2012-02-05T12:44:05.000Z</time>
      </trkpt>
      <trkpt lat="45.29393" lon="6.20449">
        <ele>1348.8000488281</ele>
        <time>2012-02-05T12:44:10.000Z</time>
      </trkpt>
      <trkpt lat="45.29393" lon="6.20472">
        <ele>1346.4000244141</ele>
        <time>2012-02-05T12:44:13.000Z</time>
      </trkpt>
      <trkpt lat="45.29389" lon="6.20511">
        <ele>1342.5999755859</ele>
        <time>2012-02-05T12:44:18.000Z</time>
      </trkpt>
      <trkpt lat="45.29388" lon="6.20519">
        <ele>1342</ele>
        <time>2012-02-05T12:44:19.000Z</time>
      </trkpt>
      <trkpt lat="45.29384" lon="6.20534">
        <ele>1340.4000244141</ele>
        <time>2012-02-05T12:44:21.000Z</time>
      </trkpt>
      <trkpt lat="45.29374" lon="6.20572">
        <ele>1336.8000488281</ele>
        <time>2012-02-05T12:44:27.000Z</time>
      </trkpt>
      <trkpt lat="45.29372" lon="6.20586">
        <ele>1335.5999755859</ele>
        <time>2012-02-05T12:44:29.000Z</time>
      </trkpt>
      <trkpt lat="45.29369" lon="6.20629">
        <ele>1331</ele>
        <time>2012-02-05T12:44:34.000Z</time>
      </trkpt>
      <trkpt lat="45.29367" lon="6.20635">
        <ele>1330.4000244141</ele>
        <time>2012-02-05T12:44:35.000Z</time>
      </trkpt>
      <trkpt lat="45.2935" lon="6.20678">
        <ele>1325.1999511719</ele>
        <time>2012-02-05T12:44:41.000Z</time>
      </trkpt>
      <trkpt lat="45.29345" lon="6.20699">
        <ele>1324.5999755859</ele>
        <time>2012-02-05T12:44:45.000Z</time>
      </trkpt>
      <trkpt lat="45.2934" lon="6.20719">
        <ele>1324</ele>
        <time>2012-02-05T12:44:50.000Z</time>
      </trkpt>
      <trkpt lat="45.2934" lon="6.20732">
        <ele>1323.8000488281</ele>
        <time>2012-02-05T12:44:56.000Z</time>
      </trkpt>
      <trkpt lat="45.29341" lon="6.20736">
        <ele>1324.1999511719</ele>
        <time>2012-02-05T12:45:02.000Z</time>
      </trkpt>
      <trkpt lat="45.29342" lon="6.20736">
        <ele>1324.4000244141</ele>
        <time>2012-02-05T12:45:10.000Z</time>
      </trkpt>
      <trkpt lat="45.29337" lon="6.20734">
        <ele>1324.4000244141</ele>
        <time>2012-02-05T12:45:17.000Z</time>
      </trkpt>
      <trkpt lat="45.2933" lon="6.20736">
        <ele>1325.5999755859</ele>
        <time>2012-02-05T12:46:09.000Z</time>
      </trkpt>
      <trkpt lat="45.29327" lon="6.20736">
        <ele>1328.5999755859</ele>
        <time>2012-02-05T12:49:01.000Z</time>
      </trkpt>
      <trkpt lat="45.29333" lon="6.20753">
        <ele>1327.1999511719</ele>
        <time>2012-02-05T12:49:07.000Z</time>
      </trkpt>
      <trkpt lat="45.29334" lon="6.20761">
        <ele>1326.4000244141</ele>
        <time>2012-02-05T12:49:09.000Z</time>
      </trkpt>
      <trkpt lat="45.29346" lon="6.20786">
        <ele>1321.8000488281</ele>
        <time>2012-02-05T12:49:14.000Z</time>
      </trkpt>
      <trkpt lat="45.29349" lon="6.20802">
        <ele>1318.4000244141</ele>
        <time>2012-02-05T12:49:17.000Z</time>
      </trkpt>
      <trkpt lat="45.29351" lon="6.20852">
        <ele>1312</ele>
        <time>2012-02-05T12:49:22.000Z</time>
      </trkpt>
      <trkpt lat="45.29344" lon="6.20865">
        <ele>1308.8000488281</ele>
        <time>2012-02-05T12:49:25.000Z</time>
      </trkpt>
      <trkpt lat="45.29339" lon="6.20878">
        <ele>1307</ele>
        <time>2012-02-05T12:49:27.000Z</time>
      </trkpt>
      <trkpt lat="45.29328" lon="6.20894">
        <ele>1303.5999755859</ele>
        <time>2012-02-05T12:49:31.000Z</time>
      </trkpt>
      <trkpt lat="45.2933" lon="6.20891">
        <ele>1304.5999755859</ele>
        <time>2012-02-05T12:49:39.000Z</time>
      </trkpt>
      <trkpt lat="45.29333" lon="6.20884">
        <ele>1304.8000488281</ele>
        <time>2012-02-05T12:49:45.000Z</time>
      </trkpt>
      <trkpt lat="45.29332" lon="6.20884">
        <ele>1305.1999511719</ele>
        <time>2012-02-05T12:49:54.000Z</time>
      </trkpt>
      <trkpt lat="45.29334" lon="6.20884">
        <ele>1304.1999511719</ele>
        <time>2012-02-05T12:50:01.000Z</time>
      </trkpt>
      <trkpt lat="45.29348" lon="6.20879">
        <ele>1305.5999755859</ele>
        <time>2012-02-05T12:50:16.000Z</time>
      </trkpt>
      <trkpt lat="45.29353" lon="6.20876">
        <ele>1305.8000488281</ele>
        <time>2012-02-05T12:50:24.000Z</time>
      </trkpt>
      <trkpt lat="45.29354" lon="6.20878">
        <ele>1305</ele>
        <time>2012-02-05T12:50:26.000Z</time>
      </trkpt>
      <trkpt lat="45.29351" lon="6.20896">
        <ele>1299.4000244141</ele>
        <time>2012-02-05T12:50:33.000Z</time>
      </trkpt>
      <trkpt lat="45.29352" lon="6.20911">
        <ele>1296.4000244141</ele>
        <time>2012-02-05T12:50:36.000Z</time>
      </trkpt>
      <trkpt lat="45.29347" lon="6.20935">
        <ele>1291.8000488281</ele>
        <time>2012-02-05T12:50:42.000Z</time>
      </trkpt>
      <trkpt lat="45.29341" lon="6.20945">
        <ele>1290.1999511719</ele>
        <time>2012-02-05T12:50:47.000Z</time>
      </trkpt>
      <trkpt lat="45.29337" lon="6.20953">
        <ele>1286.1999511719</ele>
        <time>2012-02-05T12:50:51.000Z</time>
      </trkpt>
      <trkpt lat="45.29335" lon="6.20967">
        <ele>1282.8000488281</ele>
        <time>2012-02-05T12:50:56.000Z</time>
      </trkpt>
      <trkpt lat="45.29337" lon="6.20978">
        <ele>1280.5999755859</ele>
        <time>2012-02-05T12:50:59.000Z</time>
      </trkpt>
      <trkpt lat="45.29336" lon="6.20987">
        <ele>1278.8000488281</ele>
        <time>2012-02-05T12:51:02.000Z</time>
      </trkpt>
      <trkpt lat="45.29333" lon="6.20994">
        <ele>1275</ele>
        <time>2012-02-05T12:51:07.000Z</time>
      </trkpt>
      <trkpt lat="45.2933" lon="6.20999">
        <ele>1273.5999755859</ele>
        <time>2012-02-05T12:51:14.000Z</time>
      </trkpt>
      <trkpt lat="45.29333" lon="6.21007">
        <ele>1274.5999755859</ele>
        <time>2012-02-05T12:51:20.000Z</time>
      </trkpt>
      <trkpt lat="45.29329" lon="6.21006">
        <ele>1274.8000488281</ele>
        <time>2012-02-05T12:51:30.000Z</time>
      </trkpt>
      <trkpt lat="45.29322" lon="6.21018">
        <ele>1275</ele>
        <time>2012-02-05T12:52:23.000Z</time>
      </trkpt>
      <trkpt lat="45.29324" lon="6.21014">
        <ele>1275.1999511719</ele>
        <time>2012-02-05T12:52:30.000Z</time>
      </trkpt>
      <trkpt lat="45.29325" lon="6.21014">
        <ele>1275.1999511719</ele>
        <time>2012-02-05T12:52:31.000Z</time>
      </trkpt>
      <trkpt lat="45.29326" lon="6.21015">
        <ele>1274.4000244141</ele>
        <time>2012-02-05T12:52:33.000Z</time>
      </trkpt>
      <trkpt lat="45.29327" lon="6.21035">
        <ele>1268</ele>
        <time>2012-02-05T12:52:38.000Z</time>
      </trkpt>
      <trkpt lat="45.29321" lon="6.21054">
        <ele>1263.5999755859</ele>
        <time>2012-02-05T12:52:42.000Z</time>
      </trkpt>
      <trkpt lat="45.29317" lon="6.21058">
        <ele>1263</ele>
        <time>2012-02-05T12:52:48.000Z</time>
      </trkpt>
      <trkpt lat="45.29318" lon="6.21065">
        <ele>1263.1999511719</ele>
        <time>2012-02-05T12:52:56.000Z</time>
      </trkpt>
      <trkpt lat="45.29323" lon="6.21083">
        <ele>1260.8000488281</ele>
        <time>2012-02-05T12:53:01.000Z</time>
      </trkpt>
      <trkpt lat="45.29324" lon="6.2111">
        <ele>1255.8000488281</ele>
        <time>2012-02-05T12:53:06.000Z</time>
      </trkpt>
      <trkpt lat="45.29323" lon="6.21131">
        <ele>1251.4000244141</ele>
        <time>2012-02-05T12:53:10.000Z</time>
      </trkpt>
      <trkpt lat="45.2932" lon="6.21151">
        <ele>1247.8000488281</ele>
        <time>2012-02-05T12:53:14.000Z</time>
      </trkpt>
      <trkpt lat="45.29311" lon="6.2118">
        <ele>1243</ele>
        <time>2012-02-05T12:53:19.000Z</time>
      </trkpt>
      <trkpt lat="45.29309" lon="6.21209">
        <ele>1238.8000488281</ele>
        <time>2012-02-05T12:53:24.000Z</time>
      </trkpt>
      <trkpt lat="45.29305" lon="6.21237">
        <ele>1233.4000244141</ele>
        <time>2012-02-05T12:53:30.000Z</time>
      </trkpt>
      <trkpt lat="45.29295" lon="6.21253">
        <ele>1230.5999755859</ele>
        <time>2012-02-05T12:53:34.000Z</time>
      </trkpt>
      <trkpt lat="45.29287" lon="6.21272">
        <ele>1228</ele>
        <time>2012-02-05T12:53:40.000Z</time>
      </trkpt>
      <trkpt lat="45.2927" lon="6.21292">
        <ele>1222</ele>
        <time>2012-02-05T12:53:46.000Z</time>
      </trkpt>
      <trkpt lat="45.29262" lon="6.21304">
        <ele>1219.4000244141</ele>
        <time>2012-02-05T12:53:50.000Z</time>
      </trkpt>
      <trkpt lat="45.29261" lon="6.21306">
        <ele>1219.1999511719</ele>
        <time>2012-02-05T12:53:51.000Z</time>
      </trkpt>
      <trkpt lat="45.29257" lon="6.21315">
        <ele>1218.4000244141</ele>
        <time>2012-02-05T12:53:57.000Z</time>
      </trkpt>
      <trkpt lat="45.29254" lon="6.21322">
        <ele>1218.8000488281</ele>
        <time>2012-02-05T12:54:07.000Z</time>
      </trkpt>
      <trkpt lat="45.29247" lon="6.21336">
        <ele>1215.1999511719</ele>
        <time>2012-02-05T12:54:13.000Z</time>
      </trkpt>
      <trkpt lat="45.29241" lon="6.2134">
        <ele>1214.1999511719</ele>
        <time>2012-02-05T12:54:17.000Z</time>
      </trkpt>
      <trkpt lat="45.29235" lon="6.21348">
        <ele>1214.4000244141</ele>
        <time>2012-02-05T12:54:26.000Z</time>
      </trkpt>
      <trkpt lat="45.29234" lon="6.21349">
        <ele>1214.4000244141</ele>
        <time>2012-02-05T12:54:27.000Z</time>
      </trkpt>
      <trkpt lat="45.29227" lon="6.21361">
        <ele>1212.5999755859</ele>
        <time>2012-02-05T12:54:35.000Z</time>
      </trkpt>
      <trkpt lat="45.29227" lon="6.21368">
        <ele>1209.1999511719</ele>
        <time>2012-02-05T12:54:40.000Z</time>
      </trkpt>
      <trkpt lat="45.29227" lon="6.21367">
        <ele>1209</ele>
        <time>2012-02-05T12:54:41.000Z</time>
      </trkpt>
      <trkpt lat="45.29227" lon="6.21369">
        <ele>1208.4000244141</ele>
        <time>2012-02-05T12:54:45.000Z</time>
      </trkpt>
      <trkpt lat="45.29234" lon="6.21376">
        <ele>1205.1999511719</ele>
        <time>2012-02-05T12:54:50.000Z</time>
      </trkpt>
      <trkpt lat="45.29238" lon="6.21377">
        <ele>1203.4000244141</ele>
        <time>2012-02-05T12:54:54.000Z</time>
      </trkpt>
      <trkpt lat="45.29241" lon="6.21381">
        <ele>1203.5999755859</ele>
        <time>2012-02-05T12:55:10.000Z</time>
      </trkpt>
      <trkpt lat="45.29237" lon="6.21394">
        <ele>1199</ele>
        <time>2012-02-05T12:55:16.000Z</time>
      </trkpt>
      <trkpt lat="45.29236" lon="6.21397">
        <ele>1198.8000488281</ele>
        <time>2012-02-05T12:55:17.000Z</time>
      </trkpt>
      <trkpt lat="45.2923" lon="6.21403">
        <ele>1196.4000244141</ele>
        <time>2012-02-05T12:55:21.000Z</time>
      </trkpt>
      <trkpt lat="45.29224" lon="6.2141">
        <ele>1193.8000488281</ele>
        <time>2012-02-05T12:55:25.000Z</time>
      </trkpt>
      <trkpt lat="45.2922" lon="6.21414">
        <ele>1191.5999755859</ele>
        <time>2012-02-05T12:55:29.000Z</time>
      </trkpt>
      <trkpt lat="45.29221" lon="6.21419">
        <ele>1188.8000488281</ele>
        <time>2012-02-05T12:55:34.000Z</time>
      </trkpt>
      <trkpt lat="45.2922" lon="6.21419">
        <ele>1188.4000244141</ele>
        <time>2012-02-05T12:55:35.000Z</time>
      </trkpt>
      <trkpt lat="45.29217" lon="6.21425">
        <ele>1186.8000488281</ele>
        <time>2012-02-05T12:55:42.000Z</time>
      </trkpt>
      <trkpt lat="45.29215" lon="6.21428">
        <ele>1186</ele>
        <time>2012-02-05T12:55:44.000Z</time>
      </trkpt>
      <trkpt lat="45.29211" lon="6.21438">
        <ele>1182.8000488281</ele>
        <time>2012-02-05T12:55:49.000Z</time>
      </trkpt>
      <trkpt lat="45.29212" lon="6.2144">
        <ele>1182.1999511719</ele>
        <time>2012-02-05T12:55:51.000Z</time>
      </trkpt>
      <trkpt lat="45.29213" lon="6.21442">
        <ele>1182</ele>
        <time>2012-02-05T12:55:55.000Z</time>
      </trkpt>
      <trkpt lat="45.29208" lon="6.21451">
        <ele>1179.8000488281</ele>
        <time>2012-02-05T12:55:59.000Z</time>
      </trkpt>
      <trkpt lat="45.29204" lon="6.21451">
        <ele>1178.8000488281</ele>
        <time>2012-02-05T12:56:01.000Z</time>
      </trkpt>
      <trkpt lat="45.29201" lon="6.21454">
        <ele>1178.4000244141</ele>
        <time>2012-02-05T12:56:05.000Z</time>
      </trkpt>
      <trkpt lat="45.292" lon="6.21455">
        <ele>1177.5999755859</ele>
        <time>2012-02-05T12:56:11.000Z</time>
      </trkpt>
      <trkpt lat="45.29199" lon="6.21459">
        <ele>1177</ele>
        <time>2012-02-05T12:56:23.000Z</time>
      </trkpt>
      <trkpt lat="45.29195" lon="6.21464">
        <ele>1177</ele>
        <time>2012-02-05T12:56:30.000Z</time>
      </trkpt>
      <trkpt lat="45.29195" lon="6.21466">
        <ele>1177.1999511719</ele>
        <time>2012-02-05T12:56:33.000Z</time>
      </trkpt>
      <trkpt lat="45.2919" lon="6.21471">
        <ele>1175.4000244141</ele>
        <time>2012-02-05T12:56:38.000Z</time>
      </trkpt>
      <trkpt lat="45.29187" lon="6.21475">
        <ele>1174.1999511719</ele>
        <time>2012-02-05T12:56:43.000Z</time>
      </trkpt>
      <trkpt lat="45.29183" lon="6.21471">
        <ele>1174.1999511719</ele>
        <time>2012-02-05T12:57:02.000Z</time>
      </trkpt>
      <trkpt lat="45.29184" lon="6.21473">
        <ele>1173.5999755859</ele>
        <time>2012-02-05T12:57:09.000Z</time>
      </trkpt>
      <trkpt lat="45.29184" lon="6.21474">
        <ele>1173.5999755859</ele>
        <time>2012-02-05T12:57:10.000Z</time>
      </trkpt>
      <trkpt lat="45.2918" lon="6.21485">
        <ele>1171.8000488281</ele>
        <time>2012-02-05T12:57:15.000Z</time>
      </trkpt>
      <trkpt lat="45.29179" lon="6.21495">
        <ele>1170</ele>
        <time>2012-02-05T12:57:23.000Z</time>
      </trkpt>
      <trkpt lat="45.29176" lon="6.21495">
        <ele>1169.8000488281</ele>
        <time>2012-02-05T12:57:26.000Z</time>
      </trkpt>
      <trkpt lat="45.29171" lon="6.21498">
        <ele>1167.8000488281</ele>
        <time>2012-02-05T12:57:32.000Z</time>
      </trkpt>
      <trkpt lat="45.29164" lon="6.21504">
        <ele>1165.4000244141</ele>
        <time>2012-02-05T12:57:38.000Z</time>
      </trkpt>
      <trkpt lat="45.2916" lon="6.21509">
        <ele>1163.5999755859</ele>
        <time>2012-02-05T12:57:50.000Z</time>
      </trkpt>
      <trkpt lat="45.29154" lon="6.21518">
        <ele>1161.1999511719</ele>
        <time>2012-02-05T12:57:53.000Z</time>
      </trkpt>
      <trkpt lat="45.29142" lon="6.21535">
        <ele>1155.4000244141</ele>
        <time>2012-02-05T12:57:58.000Z</time>
      </trkpt>
      <trkpt lat="45.29131" lon="6.21553">
        <ele>1150.5999755859</ele>
        <time>2012-02-05T12:58:03.000Z</time>
      </trkpt>
      <trkpt lat="45.29121" lon="6.21576">
        <ele>1146.4000244141</ele>
        <time>2012-02-05T12:58:07.000Z</time>
      </trkpt>
      <trkpt lat="45.29113" lon="6.21595">
        <ele>1141.5999755859</ele>
        <time>2012-02-05T12:58:10.000Z</time>
      </trkpt>
      <trkpt lat="45.29106" lon="6.21618">
        <ele>1135.5999755859</ele>
        <time>2012-02-05T12:58:15.000Z</time>
      </trkpt>
      <trkpt lat="45.29103" lon="6.21625">
        <ele>1135</ele>
        <time>2012-02-05T12:58:16.000Z</time>
      </trkpt>
      <trkpt lat="45.29099" lon="6.21632">
        <ele>1133</ele>
        <time>2012-02-05T12:58:19.000Z</time>
      </trkpt>
      <trkpt lat="45.29091" lon="6.21645">
        <ele>1130.4000244141</ele>
        <time>2012-02-05T12:58:24.000Z</time>
      </trkpt>
      <trkpt lat="45.29091" lon="6.21646">
        <ele>1129.4000244141</ele>
        <time>2012-02-05T12:58:26.000Z</time>
      </trkpt>
      <trkpt lat="45.2909" lon="6.21651">
        <ele>1128.4000244141</ele>
        <time>2012-02-05T12:58:32.000Z</time>
      </trkpt>
      <trkpt lat="45.29086" lon="6.21666">
        <ele>1124.8000488281</ele>
        <time>2012-02-05T12:58:37.000Z</time>
      </trkpt>
      <trkpt lat="45.29086" lon="6.21668">
        <ele>1124.5999755859</ele>
        <time>2012-02-05T12:58:38.000Z</time>
      </trkpt>
      <trkpt lat="45.29087" lon="6.21678">
        <ele>1124.8000488281</ele>
        <time>2012-02-05T12:59:03.000Z</time>
      </trkpt>
      <trkpt lat="45.29087" lon="6.21679">
        <ele>1124.8000488281</ele>
        <time>2012-02-05T12:59:04.000Z</time>
      </trkpt>
      <trkpt lat="45.29073" lon="6.21691">
        <ele>1123</ele>
        <time>2012-02-05T12:59:10.000Z</time>
      </trkpt>
      <trkpt lat="45.29059" lon="6.21703">
        <ele>1122.5999755859</ele>
        <time>2012-02-05T12:59:16.000Z</time>
      </trkpt>
      <trkpt lat="45.29045" lon="6.21709">
        <ele>1121.4000244141</ele>
        <time>2012-02-05T12:59:21.000Z</time>
      </trkpt>
      <trkpt lat="45.29029" lon="6.21716">
        <ele>1119.5999755859</ele>
        <time>2012-02-05T12:59:26.000Z</time>
      </trkpt>
      <trkpt lat="45.29022" lon="6.21718">
        <ele>1120.5999755859</ele>
        <time>2012-02-05T12:59:30.000Z</time>
      </trkpt>
      <trkpt lat="45.29011" lon="6.21718">
        <ele>1122</ele>
        <time>2012-02-05T12:59:37.000Z</time>
      </trkpt>
      <trkpt lat="45.29004" lon="6.21711">
        <ele>1123.1999511719</ele>
        <time>2012-02-05T12:59:44.000Z</time>
      </trkpt>
      <trkpt lat="45.29" lon="6.21703">
        <ele>1124</ele>
        <time>2012-02-05T12:59:49.000Z</time>
      </trkpt>
      <trkpt lat="45.28993" lon="6.21695">
        <ele>1125.1999511719</ele>
        <time>2012-02-05T12:59:56.000Z</time>
      </trkpt>
      <trkpt lat="45.28992" lon="6.21693">
        <ele>1126</ele>
        <time>2012-02-05T13:00:02.000Z</time>
      </trkpt>
      <trkpt lat="45.28988" lon="6.21687">
        <ele>1126.1999511719</ele>
        <time>2012-02-05T13:00:27.000Z</time>
      </trkpt>
      <trkpt lat="45.28988" lon="6.21688">
        <ele>1127.1999511719</ele>
        <time>2012-02-05T13:01:03.000Z</time>
      </trkpt>
      <trkpt lat="45.28986" lon="6.2169">
        <ele>1128.8000488281</ele>
        <time>2012-02-05T13:02:23.000Z</time>
      </trkpt>
      <trkpt lat="45.28998" lon="6.21693">
        <ele>1129.5999755859</ele>
        <time>2012-02-05T13:03:05.000Z</time>
      </trkpt>
      <trkpt lat="45.28996" lon="6.21694">
        <ele>1129.5999755859</ele>
        <time>2012-02-05T13:03:13.000Z</time>
      </trkpt>
      <trkpt lat="45.28993" lon="6.21688">
        <ele>1130</ele>
        <time>2012-02-05T13:03:31.000Z</time>
      </trkpt>
      <trkpt lat="45.28993" lon="6.21683">
        <ele>1130.4000244141</ele>
        <time>2012-02-05T13:03:35.000Z</time>
      </trkpt>
      <trkpt lat="45.28994" lon="6.21667">
        <ele>1132</ele>
        <time>2012-02-05T13:03:43.000Z</time>
      </trkpt>
      <trkpt lat="45.28993" lon="6.21666">
        <ele>1132</ele>
        <time>2012-02-05T13:03:44.000Z</time>
      </trkpt>
      <trkpt lat="45.28988" lon="6.2166">
        <ele>1133.1999511719</ele>
        <time>2012-02-05T13:03:51.000Z</time>
      </trkpt>
      <trkpt lat="45.28987" lon="6.2166">
        <ele>1133.4000244141</ele>
        <time>2012-02-05T13:03:52.000Z</time>
      </trkpt>
      <trkpt lat="45.2898" lon="6.21653">
        <ele>1134.4000244141</ele>
        <time>2012-02-05T13:03:59.000Z</time>
      </trkpt>
      <trkpt lat="45.28971" lon="6.2165">
        <ele>1135.1999511719</ele>
        <time>2012-02-05T13:04:05.000Z</time>
      </trkpt>
      <trkpt lat="45.28969" lon="6.21647">
        <ele>1135.5999755859</ele>
        <time>2012-02-05T13:04:09.000Z</time>
      </trkpt>
      <trkpt lat="45.28961" lon="6.21639">
        <ele>1136.5999755859</ele>
        <time>2012-02-05T13:04:18.000Z</time>
      </trkpt>
      <trkpt lat="45.28955" lon="6.21632">
        <ele>1137.5999755859</ele>
        <time>2012-02-05T13:04:26.000Z</time>
      </trkpt>
      <trkpt lat="45.28948" lon="6.21622">
        <ele>1138.4000244141</ele>
        <time>2012-02-05T13:04:36.000Z</time>
      </trkpt>
      <trkpt lat="45.28942" lon="6.21614">
        <ele>1139.1999511719</ele>
        <time>2012-02-05T13:04:43.000Z</time>
      </trkpt>
      <trkpt lat="45.28937" lon="6.21603">
        <ele>1140.1999511719</ele>
        <time>2012-02-05T13:04:52.000Z</time>
      </trkpt>
      <trkpt lat="45.28933" lon="6.21593">
        <ele>1141.1999511719</ele>
        <time>2012-02-05T13:05:00.000Z</time>
      </trkpt>
      <trkpt lat="45.28928" lon="6.21582">
        <ele>1142.4000244141</ele>
        <time>2012-02-05T13:05:09.000Z</time>
      </trkpt>
      <trkpt lat="45.28928" lon="6.21572">
        <ele>1143.1999511719</ele>
        <time>2012-02-05T13:05:17.000Z</time>
      </trkpt>
      <trkpt lat="45.28923" lon="6.21568">
        <ele>1143.5999755859</ele>
        <time>2012-02-05T13:05:21.000Z</time>
      </trkpt>
      <trkpt lat="45.2892" lon="6.21562">
        <ele>1144.1999511719</ele>
        <time>2012-02-05T13:05:26.000Z</time>
      </trkpt>
      <trkpt lat="45.28918" lon="6.21558">
        <ele>1144.5999755859</ele>
        <time>2012-02-05T13:05:29.000Z</time>
      </trkpt>
      <trkpt lat="45.28911" lon="6.21546">
        <ele>1146.1999511719</ele>
        <time>2012-02-05T13:05:40.000Z</time>
      </trkpt>
      <trkpt lat="45.28906" lon="6.21536">
        <ele>1147</ele>
        <time>2012-02-05T13:05:48.000Z</time>
      </trkpt>
      <trkpt lat="45.28901" lon="6.21526">
        <ele>1148</ele>
        <time>2012-02-05T13:05:56.000Z</time>
      </trkpt>
      <trkpt lat="45.28896" lon="6.21515">
        <ele>1149</ele>
        <time>2012-02-05T13:06:04.000Z</time>
      </trkpt>
      <trkpt lat="45.28891" lon="6.21504">
        <ele>1150</ele>
        <time>2012-02-05T13:06:13.000Z</time>
      </trkpt>
      <trkpt lat="45.28885" lon="6.21494">
        <ele>1151</ele>
        <time>2012-02-05T13:06:21.000Z</time>
      </trkpt>
      <trkpt lat="45.28876" lon="6.21481">
        <ele>1152.4000244141</ele>
        <time>2012-02-05T13:06:32.000Z</time>
      </trkpt>
      <trkpt lat="45.28869" lon="6.21472">
        <ele>1153.4000244141</ele>
        <time>2012-02-05T13:06:41.000Z</time>
      </trkpt>
      <trkpt lat="45.28862" lon="6.21463">
        <ele>1154.4000244141</ele>
        <time>2012-02-05T13:06:50.000Z</time>
      </trkpt>
      <trkpt lat="45.28856" lon="6.21451">
        <ele>1155.5999755859</ele>
        <time>2012-02-05T13:06:59.000Z</time>
      </trkpt>
      <trkpt lat="45.28852" lon="6.21441">
        <ele>1156.4000244141</ele>
        <time>2012-02-05T13:07:06.000Z</time>
      </trkpt>
      <trkpt lat="45.28848" lon="6.21429">
        <ele>1157.4000244141</ele>
        <time>2012-02-05T13:07:14.000Z</time>
      </trkpt>
      <trkpt lat="45.28843" lon="6.21421">
        <ele>1157.8000488281</ele>
        <time>2012-02-05T13:07:21.000Z</time>
      </trkpt>
      <trkpt lat="45.28839" lon="6.21417">
        <ele>1158.4000244141</ele>
        <time>2012-02-05T13:07:25.000Z</time>
      </trkpt>
      <trkpt lat="45.28832" lon="6.21408">
        <ele>1158.8000488281</ele>
        <time>2012-02-05T13:07:33.000Z</time>
      </trkpt>
      <trkpt lat="45.28823" lon="6.21399">
        <ele>1159.5999755859</ele>
        <time>2012-02-05T13:07:41.000Z</time>
      </trkpt>
      <trkpt lat="45.28819" lon="6.21397">
        <ele>1159.8000488281</ele>
        <time>2012-02-05T13:07:44.000Z</time>
      </trkpt>
      <trkpt lat="45.28812" lon="6.21386">
        <ele>1160.4000244141</ele>
        <time>2012-02-05T13:07:53.000Z</time>
      </trkpt>
      <trkpt lat="45.28809" lon="6.21383">
        <ele>1160.8000488281</ele>
        <time>2012-02-05T13:07:56.000Z</time>
      </trkpt>
      <trkpt lat="45.28802" lon="6.21373">
        <ele>1161.8000488281</ele>
        <time>2012-02-05T13:08:05.000Z</time>
      </trkpt>
      <trkpt lat="45.28795" lon="6.21365">
        <ele>1162.5999755859</ele>
        <time>2012-02-05T13:08:12.000Z</time>
      </trkpt>
      <trkpt lat="45.28792" lon="6.21361">
        <ele>1163</ele>
        <time>2012-02-05T13:08:16.000Z</time>
      </trkpt>
      <trkpt lat="45.28783" lon="6.21353">
        <ele>1163.4000244141</ele>
        <time>2012-02-05T13:08:24.000Z</time>
      </trkpt>
      <trkpt lat="45.28776" lon="6.21349">
        <ele>1163.8000488281</ele>
        <time>2012-02-05T13:08:29.000Z</time>
      </trkpt>
      <trkpt lat="45.28773" lon="6.21342">
        <ele>1164</ele>
        <time>2012-02-05T13:08:34.000Z</time>
      </trkpt>
      <trkpt lat="45.28763" lon="6.21335">
        <ele>1164.5999755859</ele>
        <time>2012-02-05T13:08:42.000Z</time>
      </trkpt>
      <trkpt lat="45.28758" lon="6.21326">
        <ele>1165</ele>
        <time>2012-02-05T13:08:48.000Z</time>
      </trkpt>
      <trkpt lat="45.28753" lon="6.21316">
        <ele>1165</ele>
        <time>2012-02-05T13:08:55.000Z</time>
      </trkpt>
      <trkpt lat="45.28748" lon="6.21311">
        <ele>1165.5999755859</ele>
        <time>2012-02-05T13:09:00.000Z</time>
      </trkpt>
      <trkpt lat="45.2874" lon="6.21299">
        <ele>1166.1999511719</ele>
        <time>2012-02-05T13:09:09.000Z</time>
      </trkpt>
      <trkpt lat="45.28736" lon="6.21296">
        <ele>1166.1999511719</ele>
        <time>2012-02-05T13:09:12.000Z</time>
      </trkpt>
      <trkpt lat="45.28728" lon="6.21284">
        <ele>1166.8000488281</ele>
        <time>2012-02-05T13:09:21.000Z</time>
      </trkpt>
      <trkpt lat="45.28724" lon="6.21281">
        <ele>1167</ele>
        <time>2012-02-05T13:09:24.000Z</time>
      </trkpt>
      <trkpt lat="45.28718" lon="6.21278">
        <ele>1167.4000244141</ele>
        <time>2012-02-05T13:09:28.000Z</time>
      </trkpt>
      <trkpt lat="45.28713" lon="6.21274">
        <ele>1167.5999755859</ele>
        <time>2012-02-05T13:09:32.000Z</time>
      </trkpt>
      <trkpt lat="45.28711" lon="6.21268">
        <ele>1168</ele>
        <time>2012-02-05T13:09:37.000Z</time>
      </trkpt>
      <trkpt lat="45.287" lon="6.21263">
        <ele>1169</ele>
        <time>2012-02-05T13:09:45.000Z</time>
      </trkpt>
      <trkpt lat="45.2869" lon="6.21257">
        <ele>1169.4000244141</ele>
        <time>2012-02-05T13:09:53.000Z</time>
      </trkpt>
      <trkpt lat="45.28682" lon="6.2125">
        <ele>1169.4000244141</ele>
        <time>2012-02-05T13:10:01.000Z</time>
      </trkpt>
      <trkpt lat="45.28676" lon="6.21242">
        <ele>1170.1999511719</ele>
        <time>2012-02-05T13:10:08.000Z</time>
      </trkpt>
      <trkpt lat="45.28669" lon="6.21234">
        <ele>1170.8000488281</ele>
        <time>2012-02-05T13:10:15.000Z</time>
      </trkpt>
      <trkpt lat="45.28667" lon="6.21232">
        <ele>1171.1999511719</ele>
        <time>2012-02-05T13:10:17.000Z</time>
      </trkpt>
      <trkpt lat="45.28657" lon="6.21226">
        <ele>1171.8000488281</ele>
        <time>2012-02-05T13:10:24.000Z</time>
      </trkpt>
      <trkpt lat="45.28646" lon="6.21219">
        <ele>1172.8000488281</ele>
        <time>2012-02-05T13:10:34.000Z</time>
      </trkpt>
      <trkpt lat="45.28638" lon="6.21213">
        <ele>1173.8000488281</ele>
        <time>2012-02-05T13:10:42.000Z</time>
      </trkpt>
      <trkpt lat="45.28631" lon="6.21206">
        <ele>1174.4000244141</ele>
        <time>2012-02-05T13:10:49.000Z</time>
      </trkpt>
      <trkpt lat="45.28624" lon="6.21195">
        <ele>1175.1999511719</ele>
        <time>2012-02-05T13:10:58.000Z</time>
      </trkpt>
      <trkpt lat="45.28613" lon="6.21188">
        <ele>1176.1999511719</ele>
        <time>2012-02-05T13:11:07.000Z</time>
      </trkpt>
      <trkpt lat="45.28604" lon="6.2118">
        <ele>1177.1999511719</ele>
        <time>2012-02-05T13:11:15.000Z</time>
      </trkpt>
      <trkpt lat="45.28597" lon="6.21179">
        <ele>1178</ele>
        <time>2012-02-05T13:11:20.000Z</time>
      </trkpt>
      <trkpt lat="45.28595" lon="6.21177">
        <ele>1178.4000244141</ele>
        <time>2012-02-05T13:11:22.000Z</time>
      </trkpt>
      <trkpt lat="45.28584" lon="6.2117">
        <ele>1179.4000244141</ele>
        <time>2012-02-05T13:11:31.000Z</time>
      </trkpt>
      <trkpt lat="45.28576" lon="6.21165">
        <ele>1180.1999511719</ele>
        <time>2012-02-05T13:11:39.000Z</time>
      </trkpt>
      <trkpt lat="45.28569" lon="6.2116">
        <ele>1181.4000244141</ele>
        <time>2012-02-05T13:11:46.000Z</time>
      </trkpt>
      <trkpt lat="45.28561" lon="6.21156">
        <ele>1182.8000488281</ele>
        <time>2012-02-05T13:11:54.000Z</time>
      </trkpt>
      <trkpt lat="45.28551" lon="6.2115">
        <ele>1184</ele>
        <time>2012-02-05T13:12:03.000Z</time>
      </trkpt>
      <trkpt lat="45.28544" lon="6.21143">
        <ele>1185.4000244141</ele>
        <time>2012-02-05T13:12:11.000Z</time>
      </trkpt>
      <trkpt lat="45.28541" lon="6.2114">
        <ele>1185.8000488281</ele>
        <time>2012-02-05T13:12:14.000Z</time>
      </trkpt>
      <trkpt lat="45.28531" lon="6.2113">
        <ele>1187.5999755859</ele>
        <time>2012-02-05T13:12:24.000Z</time>
      </trkpt>
      <trkpt lat="45.28526" lon="6.21123">
        <ele>1188.5999755859</ele>
        <time>2012-02-05T13:12:31.000Z</time>
      </trkpt>
      <trkpt lat="45.28517" lon="6.21116">
        <ele>1189.5999755859</ele>
        <time>2012-02-05T13:12:40.000Z</time>
      </trkpt>
      <trkpt lat="45.28508" lon="6.21111">
        <ele>1190.5999755859</ele>
        <time>2012-02-05T13:12:48.000Z</time>
      </trkpt>
      <trkpt lat="45.28501" lon="6.21103">
        <ele>1191.4000244141</ele>
        <time>2012-02-05T13:12:55.000Z</time>
      </trkpt>
      <trkpt lat="45.28494" lon="6.21097">
        <ele>1192.5999755859</ele>
        <time>2012-02-05T13:13:02.000Z</time>
      </trkpt>
      <trkpt lat="45.28485" lon="6.21091">
        <ele>1193.1999511719</ele>
        <time>2012-02-05T13:13:10.000Z</time>
      </trkpt>
      <trkpt lat="45.28478" lon="6.21085">
        <ele>1194.4000244141</ele>
        <time>2012-02-05T13:13:17.000Z</time>
      </trkpt>
      <trkpt lat="45.2847" lon="6.2108">
        <ele>1195.1999511719</ele>
        <time>2012-02-05T13:13:24.000Z</time>
      </trkpt>
      <trkpt lat="45.28464" lon="6.21073">
        <ele>1196.1999511719</ele>
        <time>2012-02-05T13:13:31.000Z</time>
      </trkpt>
      <trkpt lat="45.28457" lon="6.21068">
        <ele>1197.1999511719</ele>
        <time>2012-02-05T13:13:38.000Z</time>
      </trkpt>
      <trkpt lat="45.28451" lon="6.21067">
        <ele>1197.8000488281</ele>
        <time>2012-02-05T13:13:44.000Z</time>
      </trkpt>
      <trkpt lat="45.28444" lon="6.21069">
        <ele>1198.5999755859</ele>
        <time>2012-02-05T13:13:50.000Z</time>
      </trkpt>
      <trkpt lat="45.28441" lon="6.21074">
        <ele>1199.4000244141</ele>
        <time>2012-02-05T13:13:57.000Z</time>
      </trkpt>
      <trkpt lat="45.28434" lon="6.21076">
        <ele>1200</ele>
        <time>2012-02-05T13:14:05.000Z</time>
      </trkpt>
      <trkpt lat="45.2843" lon="6.21076">
        <ele>1200.8000488281</ele>
        <time>2012-02-05T13:14:09.000Z</time>
      </trkpt>
      <trkpt lat="45.28419" lon="6.21071">
        <ele>1202</ele>
        <time>2012-02-05T13:14:16.000Z</time>
      </trkpt>
      <trkpt lat="45.28415" lon="6.2107">
        <ele>1202.4000244141</ele>
        <time>2012-02-05T13:14:19.000Z</time>
      </trkpt>
      <trkpt lat="45.28409" lon="6.21061">
        <ele>1202.4000244141</ele>
        <time>2012-02-05T13:14:25.000Z</time>
      </trkpt>
      <trkpt lat="45.28407" lon="6.21061">
        <ele>1202.4000244141</ele>
        <time>2012-02-05T13:14:26.000Z</time>
      </trkpt>
      <trkpt lat="45.28393" lon="6.21058">
        <ele>1202.1999511719</ele>
        <time>2012-02-05T13:14:35.000Z</time>
      </trkpt>
      <trkpt lat="45.28383" lon="6.21052">
        <ele>1202.5999755859</ele>
        <time>2012-02-05T13:14:43.000Z</time>
      </trkpt>
      <trkpt lat="45.28375" lon="6.21046">
        <ele>1203</ele>
        <time>2012-02-05T13:14:51.000Z</time>
      </trkpt>
      <trkpt lat="45.28368" lon="6.2104">
        <ele>1203.1999511719</ele>
        <time>2012-02-05T13:14:59.000Z</time>
      </trkpt>
      <trkpt lat="45.28367" lon="6.21036">
        <ele>1203.4000244141</ele>
        <time>2012-02-05T13:15:06.000Z</time>
      </trkpt>
      <trkpt lat="45.28359" lon="6.21033">
        <ele>1203.4000244141</ele>
        <time>2012-02-05T13:15:24.000Z</time>
      </trkpt>
      <trkpt lat="45.28352" lon="6.21029">
        <ele>1203</ele>
        <time>2012-02-05T13:15:30.000Z</time>
      </trkpt>
      <trkpt lat="45.28339" lon="6.21024">
        <ele>1202.4000244141</ele>
        <time>2012-02-05T13:15:39.000Z</time>
      </trkpt>
      <trkpt lat="45.28326" lon="6.21019">
        <ele>1201.8000488281</ele>
        <time>2012-02-05T13:15:48.000Z</time>
      </trkpt>
      <trkpt lat="45.28318" lon="6.21016">
        <ele>1201.4000244141</ele>
        <time>2012-02-05T13:15:54.000Z</time>
      </trkpt>
      <trkpt lat="45.2831" lon="6.21013">
        <ele>1200.1999511719</ele>
        <time>2012-02-05T13:16:01.000Z</time>
      </trkpt>
      <trkpt lat="45.28298" lon="6.21007">
        <ele>1198.5999755859</ele>
        <time>2012-02-05T13:16:09.000Z</time>
      </trkpt>
      <trkpt lat="45.28287" lon="6.21005">
        <ele>1197.4000244141</ele>
        <time>2012-02-05T13:16:16.000Z</time>
      </trkpt>
      <trkpt lat="45.28282" lon="6.21002">
        <ele>1197.1999511719</ele>
        <time>2012-02-05T13:16:22.000Z</time>
      </trkpt>
      <trkpt lat="45.28272" lon="6.21001">
        <ele>1197.4000244141</ele>
        <time>2012-02-05T13:16:30.000Z</time>
      </trkpt>
      <trkpt lat="45.28262" lon="6.21005">
        <ele>1196.4000244141</ele>
        <time>2012-02-05T13:16:36.000Z</time>
      </trkpt>
      <trkpt lat="45.28258" lon="6.21009">
        <ele>1195.8000488281</ele>
        <time>2012-02-05T13:16:40.000Z</time>
      </trkpt>
      <trkpt lat="45.28258" lon="6.21018">
        <ele>1195.1999511719</ele>
        <time>2012-02-05T13:16:45.000Z</time>
      </trkpt>
      <trkpt lat="45.28257" lon="6.21026">
        <ele>1194.5999755859</ele>
        <time>2012-02-05T13:16:49.000Z</time>
      </trkpt>
      <trkpt lat="45.28255" lon="6.21036">
        <ele>1194</ele>
        <time>2012-02-05T13:16:55.000Z</time>
      </trkpt>
      <trkpt lat="45.28254" lon="6.21052">
        <ele>1193.1999511719</ele>
        <time>2012-02-05T13:17:04.000Z</time>
      </trkpt>
      <trkpt lat="45.28247" lon="6.21059">
        <ele>1192.5999755859</ele>
        <time>2012-02-05T13:17:10.000Z</time>
      </trkpt>
      <trkpt lat="45.28246" lon="6.21064">
        <ele>1192.4000244141</ele>
        <time>2012-02-05T13:17:13.000Z</time>
      </trkpt>
      <trkpt lat="45.28241" lon="6.21079">
        <ele>1191.1999511719</ele>
        <time>2012-02-05T13:17:21.000Z</time>
      </trkpt>
      <trkpt lat="45.28236" lon="6.2109">
        <ele>1190.4000244141</ele>
        <time>2012-02-05T13:17:28.000Z</time>
      </trkpt>
      <trkpt lat="45.28235" lon="6.21097">
        <ele>1189.8000488281</ele>
        <time>2012-02-05T13:17:32.000Z</time>
      </trkpt>
      <trkpt lat="45.28227" lon="6.21104">
        <ele>1189.1999511719</ele>
        <time>2012-02-05T13:17:37.000Z</time>
      </trkpt>
      <trkpt lat="45.28227" lon="6.21107">
        <ele>1188.8000488281</ele>
        <time>2012-02-05T13:17:39.000Z</time>
      </trkpt>
      <trkpt lat="45.28227" lon="6.21115">
        <ele>1188.4000244141</ele>
        <time>2012-02-05T13:17:43.000Z</time>
      </trkpt>
      <trkpt lat="45.2822" lon="6.21125">
        <ele>1187.8000488281</ele>
        <time>2012-02-05T13:17:49.000Z</time>
      </trkpt>
      <trkpt lat="45.28215" lon="6.21129">
        <ele>1187.4000244141</ele>
        <time>2012-02-05T13:17:55.000Z</time>
      </trkpt>
      <trkpt lat="45.28207" lon="6.21129">
        <ele>1186.8000488281</ele>
        <time>2012-02-05T13:18:00.000Z</time>
      </trkpt>
      <trkpt lat="45.28197" lon="6.21128">
        <ele>1185.8000488281</ele>
        <time>2012-02-05T13:18:07.000Z</time>
      </trkpt>
      <trkpt lat="45.2819" lon="6.2113">
        <ele>1184.8000488281</ele>
        <time>2012-02-05T13:18:15.000Z</time>
      </trkpt>
      <trkpt lat="45.28184" lon="6.21137">
        <ele>1184.5999755859</ele>
        <time>2012-02-05T13:18:20.000Z</time>
      </trkpt>
      <trkpt lat="45.28181" lon="6.21145">
        <ele>1183.8000488281</ele>
        <time>2012-02-05T13:18:28.000Z</time>
      </trkpt>
      <trkpt lat="45.28175" lon="6.21159">
        <ele>1183.5999755859</ele>
        <time>2012-02-05T13:18:34.000Z</time>
      </trkpt>
      <trkpt lat="45.28171" lon="6.2117">
        <ele>1183.4000244141</ele>
        <time>2012-02-05T13:18:42.000Z</time>
      </trkpt>
      <trkpt lat="45.2817" lon="6.21179">
        <ele>1183.4000244141</ele>
        <time>2012-02-05T13:18:48.000Z</time>
      </trkpt>
      <trkpt lat="45.28167" lon="6.21186">
        <ele>1183.8000488281</ele>
        <time>2012-02-05T13:18:52.000Z</time>
      </trkpt>
      <trkpt lat="45.28159" lon="6.21188">
        <ele>1184.8000488281</ele>
        <time>2012-02-05T13:18:57.000Z</time>
      </trkpt>
      <trkpt lat="45.28152" lon="6.21195">
        <ele>1185</ele>
        <time>2012-02-05T13:19:00.000Z</time>
      </trkpt>
      <trkpt lat="45.28158" lon="6.21212">
        <ele>1186</ele>
        <time>2012-02-05T13:19:06.000Z</time>
      </trkpt>
      <trkpt lat="45.28163" lon="6.21215">
        <ele>1186.8000488281</ele>
        <time>2012-02-05T13:19:11.000Z</time>
      </trkpt>
      <trkpt lat="45.28162" lon="6.21221">
        <ele>1186.1999511719</ele>
        <time>2012-02-05T13:19:19.000Z</time>
      </trkpt>
      <trkpt lat="45.28163" lon="6.21221">
        <ele>1186</ele>
        <time>2012-02-05T13:19:20.000Z</time>
      </trkpt>
      <trkpt lat="45.28172" lon="6.21227">
        <ele>1185.1999511719</ele>
        <time>2012-02-05T13:19:28.000Z</time>
      </trkpt>
      <trkpt lat="45.28182" lon="6.21228">
        <ele>1184.5999755859</ele>
        <time>2012-02-05T13:19:35.000Z</time>
      </trkpt>
      <trkpt lat="45.28198" lon="6.21235">
        <ele>1184.8000488281</ele>
        <time>2012-02-05T13:20:14.000Z</time>
      </trkpt>
      <trkpt lat="45.28193" lon="6.21235">
        <ele>1184.8000488281</ele>
        <time>2012-02-05T13:20:37.000Z</time>
      </trkpt>
    </trkseg>
  </trk>
</gpx>